Date StartTime U_cm/s V_cm/s W_cm/s Ustd_cm/s Vstd_cm/s Wstd_cm/s Uvar_(cm/s)^2 Vvar_(cm/s)^2 Wvar_(cm/s)^2 KE_(m/s)^2 TurbulentKE_(m/s)^2 HorizWindSpeed_cm/s FrictionSpeec_cm/s DragCoef SpeedOfSound_m/s SonicTemperature_C Pressure_mb 
10/17/2013  00:00:00      -92.616       -5.028      -13.246       16.939       25.073        9.161      286.916      628.659       83.924        0.489        0.050       92.752        5.602        0.004      337.509        9.533      865.021
10/17/2013  00:01:00      -86.701      -21.991      -10.687       29.200       24.684       19.250      852.623      609.292      370.577        0.497        0.092       89.447       22.050        0.061      337.092        8.832      865.032
10/17/2013  00:02:00      -75.631      -20.639       -9.877       28.398       19.480       12.898      806.453      379.477      166.363        0.380        0.068       78.396       11.597        0.022      337.047        8.757      865.016
10/17/2013  00:03:00      -51.874      -34.157       -5.649       20.584       18.168       15.386      423.684      330.065      236.721        0.244        0.050       62.109       11.182        0.032      337.239        9.078      865.013
10/17/2013  00:04:00      -40.834       -6.426       -4.772       11.179       27.525        7.278      124.963      757.607       52.970        0.133        0.047       41.337        4.217        0.010      337.659        9.782      865.007
10/17/2013  00:05:00      -69.790      -34.891      -11.583       14.324       18.302       11.409      205.177      334.973      130.174        0.345        0.034       78.026        6.953        0.008      337.469        9.464      865.012
10/17/2013  00:06:00      -61.889      -43.102      -14.913       16.870       11.661        7.520      284.607      135.976       56.556        0.319        0.024       75.418        6.859        0.008      337.174        8.972      865.011
10/17/2013  00:07:00      -74.379      -10.053      -17.585       16.493       11.692        7.156      272.013      136.701       51.211        0.320        0.023       75.055        9.759        0.017      337.490        9.501      864.996
10/17/2013  00:08:00     -132.778      -11.793      -20.046       33.657       11.238       13.474     1132.762      126.301      181.536        0.981        0.072      133.300       15.123        0.013      337.157        8.941      864.996
10/17/2013  00:09:00     -109.182      -28.957      -21.786       52.751       28.847       20.612     2782.623      832.154      424.858        0.864        0.202      112.957       11.675        0.011      337.082        8.813      865.006
10/17/2013  00:10:00      -44.807      -18.084       -5.901       36.977       22.275       16.623     1367.321      496.184      276.328        0.225        0.107       48.319       12.779        0.070      336.977        8.638      865.001
10/17/2013  00:11:00       -2.620      -21.987        1.200       12.530       10.944       11.067      157.009      119.782      122.484        0.045        0.020       22.143        6.988        0.100      337.101        8.848      864.983
10/17/2013  00:12:00       -7.328      -26.156        2.681       12.939        7.732        8.386      167.414       59.783       70.332        0.052        0.015       27.163        3.321        0.015      337.260        9.113      864.970
10/17/2013  00:13:00      -91.105      -30.700      -11.823       48.108       13.287       10.176     2314.390      176.547      103.559        0.599        0.130       96.139        8.493        0.008      337.146        8.923      864.981
10/17/2013  00:14:00     -125.859      -27.706      -14.691       28.858       15.326       15.009      832.808      234.873      225.268        0.906        0.065      128.873       14.728        0.013      336.970        8.628      865.004
10/17/2013  00:15:00      -92.012      -11.043      -11.182       29.052       16.882       12.926      844.002      284.991      167.075        0.500        0.065       92.672        9.891        0.011      337.041        8.748      865.029
10/17/2013  00:16:00     -151.766       12.558      -10.280       20.338       19.823       12.481      413.636      392.943      155.770        1.213        0.048      152.284       10.234        0.005      337.003        8.683      865.045
10/17/2013  00:17:00     -145.506       -5.930      -13.725       41.881       27.784       17.264     1754.010      771.941      298.045        1.211        0.141      145.627       18.940        0.017      336.857        8.440      865.049
10/17/2013  00:18:00     -135.882      -39.419       -1.137       44.860       39.306       24.713     2012.390     1544.997      610.738        1.209        0.208      141.484       18.768        0.018      336.712        8.198      865.057
10/17/2013  00:19:00      -82.775      -40.107        3.579       46.873       33.031       26.150     2197.039     1091.022      683.828        0.622        0.199       91.980       25.216        0.075      336.744        8.252      865.057
10/17/2013  00:20:00      -82.380      -57.935        4.876       55.549       41.922       25.634     3085.647     1757.442      657.077        0.783        0.275      100.712       26.259        0.068      336.931        8.564      865.046
10/17/2013  00:21:00      -99.234      -63.941        3.051       45.672       32.574       23.783     2085.919     1061.092      565.623        0.883        0.186      118.050       20.470        0.030      336.968        8.624      865.056
10/17/2013  00:22:00      -59.211      -56.642       12.303       47.832       39.775       25.406     2287.921     1582.013      645.486        0.569        0.226       81.941       25.093        0.094      336.919        8.545      865.066
10/17/2013  00:23:00      -78.937      -46.414       -0.326       37.652       30.591       16.934     1417.658      935.812      286.761        0.551        0.132       91.571       19.469        0.045      337.005        8.687      865.063
10/17/2013  00:24:00      -80.905      -47.133        7.076       44.620       35.794       26.343     1990.932     1281.201      693.946        0.639        0.198       93.633       26.982        0.083      337.092        8.832      865.056
10/17/2013  00:25:00     -103.951      -65.434        5.385       40.752       41.022       24.128     1660.733     1682.828      582.167        0.952        0.196      122.831       22.808        0.034      337.034        8.736      865.077
10/17/2013  00:26:00     -137.868      -49.220       -8.520       29.316       28.620       21.516      859.450      819.129      462.940        1.182        0.107      146.390       13.751        0.009      337.026        8.721      865.078
10/17/2013  00:27:00     -116.818      -12.848       -4.548       44.321       32.587       23.441     1964.331     1061.928      549.501        0.870        0.179      117.522       22.121        0.035      336.819        8.378      865.097
10/17/2013  00:28:00      -98.141      -28.765       -5.411       57.465       35.347       25.522     3302.223     1249.432      651.374        0.784        0.260      102.270       31.034        0.092      336.795        8.338      865.090
10/17/2013  00:29:00     -109.603      -56.949       -1.891       39.980       24.219       17.546     1598.371      586.545      307.846        0.888        0.125      123.515       21.329        0.030      336.950        8.594      865.063
10/17/2013  00:30:00      -89.144      -70.637       -1.255       37.205       30.616       19.921     1384.221      937.318      396.831        0.783        0.136      113.738       22.157        0.038      337.235        9.072      865.035
10/17/2013  00:31:00     -128.930       -7.385       -9.061       32.041       25.611       17.491     1026.653      655.914      305.950        0.937        0.099      129.142       18.709        0.021      337.140        8.912      865.005
10/17/2013  00:32:00      -83.717        5.197      -10.523       36.627       25.284       16.771     1341.561      639.291      281.252        0.470        0.113       83.878       15.473        0.034      336.887        8.489      865.010
10/17/2013  00:33:00      -87.715      -25.523      -11.950       32.952       44.768       16.947     1085.842     2004.189      287.203        0.593        0.169       91.353       13.824        0.023      336.618        8.041      865.026
10/17/2013  00:34:00      -81.227      -38.126       -4.502       27.545       25.767       17.604      758.745      663.922      309.897        0.490        0.087       89.729       13.734        0.023      336.589        7.994      865.014
10/17/2013  00:35:00      -82.543      -26.247       -7.353       22.576       26.974       13.751      509.666      727.612      189.100        0.449        0.071       86.616       12.544        0.021      336.653        8.100      865.014
10/17/2013  00:36:00      -96.854      -35.094      -11.687       20.256       23.876       15.611      410.314      570.069      243.709        0.599        0.061      103.016       11.167        0.012      336.667        8.123      865.029
10/17/2013  00:37:00      -91.624       13.528       -8.584       24.170       21.855       11.789      584.168      477.624      138.985        0.493        0.060       92.617        5.266        0.003      336.965        8.620      865.015
10/17/2013  00:38:00      -80.705       -5.212       -4.467       28.706       31.029       14.440      824.047      962.787      208.512        0.428        0.100       80.873       13.897        0.030      337.061        8.780      865.015
10/17/2013  00:39:00      -84.892      -22.555      -12.058       15.919       13.332       11.506      253.420      177.754      132.389        0.421        0.028       87.838        5.729        0.004      336.895        8.503      865.017
10/17/2013  00:40:00      -89.804      -32.805      -10.366       20.493       21.721       14.010      419.978      471.823      196.271        0.517        0.054       95.609        9.310        0.009      336.815        8.371      865.017
10/17/2013  00:41:00      -37.181      -39.501       -4.070       26.590       13.870       14.273      707.035      192.381      203.710        0.203        0.055       54.247       13.208        0.059      336.837        8.408      865.030
10/17/2013  00:42:00      -39.262      -52.402       -5.377       17.705       15.527       13.583      313.463      241.076      184.492        0.253        0.037       65.479       10.274        0.025      336.895        8.503      865.033
10/17/2013  00:43:00      -31.291        9.813      -12.941       18.681       27.368       10.355      348.986      749.020      107.218        0.122        0.060       32.793       10.983        0.112      337.387        9.326      865.021
10/17/2013  00:44:00      -25.030      -14.860        3.398       17.256       21.580       10.885      297.786      465.701      118.489        0.087        0.044       29.109       10.185        0.122      337.299        9.179      865.027
10/17/2013  00:45:00      -71.326      -11.715       -7.812       17.960       18.596       12.666      322.557      345.800      160.428        0.306        0.041       72.282        9.960        0.019      336.772        8.298      865.044
10/17/2013  00:46:00      -75.974        1.613       -9.096       54.776       18.068       12.489     3000.380      326.464      155.964        0.467        0.174       75.991       20.028        0.069      336.583        7.982      865.048
10/17/2013  00:47:00        6.431        9.837        1.685       13.497       15.021        4.953      182.179      225.634       24.529        0.029        0.022       11.752        4.660        0.157      337.145        8.922      865.044
10/17/2013  00:48:00      -17.848      -27.486       -0.492       16.876       16.757       21.567      284.795      280.793      465.125        0.105        0.052       32.772       10.915        0.111      337.000        8.679      865.052
10/17/2013  00:49:00      -91.896      -80.850       -2.264       40.241       27.226       22.001     1619.368      741.235      484.054        0.892        0.142      122.400       21.532        0.031      336.645        8.086      865.064
10/17/2013  00:50:00      -36.661      -27.877       -4.537       21.906       18.009        9.319      479.886      324.328       86.845        0.152        0.045       46.056        9.062        0.039      336.655        8.102      865.065
10/17/2013  00:51:00      -39.374      -33.617       -6.150       21.663       13.687        9.025      469.272      187.346       81.446        0.173        0.037       51.773        7.536        0.021      336.751        8.264      865.054
10/17/2013  00:52:00      -38.555      -35.097        0.458       30.165       19.833       17.508      909.956      393.348      306.516        0.216        0.080       52.137       12.672        0.059      336.855        8.435      865.049
10/17/2013  00:53:00      -77.515      -52.260       -7.839       24.176       20.166       12.799      584.482      406.656      163.826        0.498        0.058       93.486       10.187        0.012      336.975        8.638      865.043
10/17/2013  00:54:00      -95.189      -18.181      -15.082       24.101       14.628       15.956      580.879      213.985      254.608        0.533        0.052       96.910       15.072        0.024      336.920        8.545      865.031
10/17/2013  00:55:00     -123.789      -23.579       -9.482       25.262       16.204       12.256      638.161      262.556      150.208        0.851        0.053      126.014       12.111        0.009      336.891        8.496      865.021
10/17/2013  00:56:00     -121.824      -29.904       -7.855       28.246       35.285       18.937      797.814     1245.035      358.614        0.910        0.120      125.441       16.590        0.017      336.682        8.148      865.020
10/17/2013  00:57:00      -62.022      -12.873       -3.532       49.333       30.312       21.660     2433.704      918.836      469.149        0.392        0.191       63.344       24.280        0.147      336.832        8.399      865.017
10/17/2013  00:58:00      -90.021      -50.826        3.724       34.979       25.398       16.890     1223.534      645.045      285.269        0.643        0.108      103.378       18.236        0.031      336.619        8.043      865.014
10/17/2013  00:59:00      -40.342      -41.266       11.536       36.388       30.106       19.438     1324.051      906.377      377.837        0.304        0.130       57.709       20.157        0.122      336.611        8.029      865.004
10/17/2013  01:00:00     -109.134      -30.516       -4.729       43.796       28.030       16.889     1918.085      785.703      285.255        0.793        0.149      113.320       17.393        0.024      336.651        8.096      864.995
10/17/2013  01:01:00     -126.539       21.474      -15.161       37.569       23.472       15.882     1411.416      550.935      252.237        0.946        0.111      128.348       10.507        0.007      336.415        7.701      865.004
10/17/2013  01:02:00      -69.326      -44.030       -0.359       25.124       25.322       16.073      631.194      641.216      258.330        0.414        0.077       82.126       14.025        0.029      336.509        7.859      865.016
10/17/2013  01:03:00      -32.822      -82.325       -1.073       17.957       14.342        9.373      322.460      205.684       87.851        0.424        0.031       88.627        8.017        0.008      336.997        8.676      865.016
10/17/2013  01:04:00      -24.901      -55.537       -3.082       26.888       35.406       21.964      722.952     1253.602      482.413        0.309        0.123       60.864       15.162        0.062      337.458        9.446      865.018
10/17/2013  01:05:00     -107.746       22.697       -3.081       38.203       33.218       14.307     1459.454     1103.447      204.679        0.745        0.138      110.111       15.266        0.019      336.777        8.307      865.020
10/17/2013  01:06:00     -114.062       37.058      -10.531       44.719       29.865       24.739     1999.751      891.889      611.996        0.900        0.175      119.931       21.978        0.034      336.624        8.051      865.038
10/17/2013  01:07:00      -52.682        5.831       -6.645       41.389       22.664       16.209     1713.037      513.662      262.737        0.267        0.124       53.003       15.839        0.089      337.203        9.018      865.020
10/17/2013  01:08:00      -46.579      -45.828       -4.954       20.972       19.180       14.340      439.822      367.861      205.637        0.265        0.051       65.344       11.080        0.029      337.141        8.915      864.999
10/17/2013  01:09:00      -86.363      -50.535        1.319       40.138       26.600       17.518     1611.032      707.557      306.890        0.632        0.131      100.062       23.596        0.056      336.605        8.020      864.994
10/17/2013  01:10:00      -95.830      -50.058        1.878       29.680       14.261       14.530      880.895      203.382      211.108        0.649        0.065      108.116       14.124        0.017      336.531        7.897      864.980
10/17/2013  01:11:00      -68.933      -30.511        4.296       41.638       13.531       18.165     1733.749      183.098      329.977        0.397        0.112       75.383       23.575        0.098      336.503        7.848      864.961
10/17/2013  01:12:00      -96.550      -61.363       -8.927       15.674       11.335        9.467      245.660      128.474       89.627        0.682        0.023      114.400        7.117        0.004      336.700        8.179      864.937
10/17/2013  01:13:00      -95.395      -57.493       -0.647       20.459       18.822       13.030      418.556      354.255      169.791        0.667        0.047      111.381       10.662        0.009      336.810        8.361      864.933
10/17/2013  01:14:00     -112.600      -52.986       -1.799       19.766       16.171       11.307      390.678      261.489      127.859        0.813        0.039      124.444        7.492        0.004      336.826        8.388      864.926
10/17/2013  01:15:00      -86.895      -49.663       -1.413       20.893       15.545       13.793      436.497      241.659      190.234        0.544        0.043      100.085       12.820        0.016      336.790        8.329      864.918
10/17/2013  01:16:00     -109.722      -27.539      -11.250       19.367       18.282       14.069      375.068      334.247      197.946        0.692        0.045      113.125       13.198        0.014      336.586        7.988      864.916
10/17/2013  01:17:00     -128.928       -0.508      -10.437       42.628       42.182       23.638     1817.153     1779.354      558.746        1.044        0.208      128.929       24.117        0.035      336.300        7.509      864.925
10/17/2013  01:18:00     -134.491        8.656      -12.845       43.795       24.604       18.416     1917.983      605.376      339.150        1.059        0.143      134.769       17.404        0.017      336.528        7.891      864.938
10/17/2013  01:19:00     -116.322       -6.546       -7.232       45.057       31.281       18.599     2030.134      978.502      345.937        0.849        0.168      116.506       21.234        0.033      336.572        7.965      864.950
10/17/2013  01:20:00      -74.092        2.331        3.778       39.135       32.999       17.560     1531.545     1088.960      308.345        0.422        0.146       74.129       17.738        0.057      336.549        7.927      864.958
10/17/2013  01:21:00      -94.113       -1.657       -2.316       43.533       33.839       20.822     1895.147     1145.076      433.569        0.617        0.174       94.127       14.448        0.024      336.625        8.054      864.963
10/17/2013  01:22:00      -45.894       -1.798        4.726       32.211       34.094       21.637     1037.536     1162.420      468.178        0.240        0.133       45.929       18.600        0.164      336.546        7.920      864.978
10/17/2013  01:23:00       -3.251      -18.689        1.956       49.941       27.345       16.096     2494.123      747.742      259.091        0.193        0.175       18.969       14.826        0.611      336.626        8.056      864.994
10/17/2013  01:24:00       26.524       14.771       18.241       17.591       12.609       10.960      309.437      158.979      120.117        0.092        0.029       30.360        8.618        0.081      336.645        8.088      864.996
10/17/2013  01:25:00      -58.845       -8.963       -6.873       30.521       13.256       11.484      931.522      175.731      131.873        0.241        0.062       59.524       12.891        0.047      336.530        7.894      865.006
10/17/2013  01:26:00      -67.245       -6.675      -12.171       13.524       16.033        8.526      182.904      257.073       72.685        0.261        0.026       67.575        6.794        0.010      336.451        7.761      865.012
10/17/2013  01:27:00      -72.811       -2.351       -8.703       14.820       14.431        8.764      219.621      208.243       76.812        0.294        0.025       72.849        7.878        0.012      336.490        7.827      865.005
10/17/2013  01:28:00      -98.813      -25.920      -13.289       17.422       12.475       11.349      303.515      155.619      128.791        0.560        0.029      102.156       10.537        0.011      336.394        7.665      864.995
10/17/2013  01:29:00     -118.322      -41.984      -18.217       16.065       18.084       10.190      258.078      327.028      103.834        0.839        0.034      125.549        5.449        0.002      336.300        7.508      864.979
10/17/2013  01:30:00     -124.380      -36.555      -11.816       29.159       24.559       16.875      850.251      603.157      284.751        0.934        0.087      129.641       13.098        0.010      336.243        7.412      864.957
10/17/2013  01:31:00      -83.030      -20.539       -5.179       26.745       19.821       16.130      715.290      392.855      260.175        0.436        0.068       85.533       14.771        0.030      336.141        7.243      864.931
10/17/2013  01:32:00      -71.485      -13.143      -16.215       16.439       22.377       13.957      270.234      500.715      194.791        0.326        0.048       72.683        7.976        0.012      336.254        7.432      864.915
10/17/2013  01:33:00      -93.925       -7.671      -13.630       30.425       16.486       14.270      925.684      271.790      203.626        0.523        0.070       94.238       14.945        0.025      336.280        7.477      864.897
10/17/2013  01:34:00     -129.526       -7.480      -19.724       27.989       25.489       16.914      783.357      649.713      286.085        0.947        0.086      129.742       14.797        0.013      336.242        7.413      864.889
10/17/2013  01:35:00      -81.076      -21.022       -4.416       27.908       31.141       22.853      778.847      969.751      522.280        0.465        0.114       83.757       17.056        0.041      336.140        7.242      864.890
10/17/2013  01:36:00      -55.452      -33.062       -6.286       34.005       19.160       21.634     1156.348      367.100      468.026        0.310        0.100       64.560       23.117        0.128      336.153        7.262      864.893
10/17/2013  01:37:00     -112.902      -15.522        8.278       68.476       48.551       23.721     4689.001     2357.239      562.678        1.033        0.380      113.964       30.586        0.072      336.154        7.263      864.900
10/17/2013  01:38:00     -168.880       38.363      -10.055       78.971       25.800       23.046     6236.366      665.655      531.100        1.876        0.372      173.183       27.445        0.025      336.415        7.699      864.905
10/17/2013  01:39:00     -150.899       40.246      -12.422       39.943       33.580       21.204     1595.480     1127.595      449.612        1.386        0.159      156.173        8.219        0.003      336.396        7.668      864.905
10/17/2013  01:40:00     -141.961        3.249      -12.732       59.225       44.002       29.173     3507.555     1936.201      851.073        1.331        0.315      141.999       29.166        0.042      336.340        7.576      864.911
10/17/2013  01:41:00      -77.109      -12.996       -7.293       27.371       34.192       18.681      749.194     1169.113      348.980        0.422        0.113       78.196       12.401        0.025      336.337        7.570      864.918
10/17/2013  01:42:00      -60.797       -0.256      -14.620       27.657       33.531       18.056      764.936     1124.325      326.019        0.306        0.111       60.797       14.258        0.055      336.321        7.545      864.910
10/17/2013  01:43:00      -63.107       20.692      -14.068       33.129       33.205       16.862     1097.545     1102.549      284.324        0.355        0.124       66.412        6.160        0.009      336.410        7.693      864.909
10/17/2013  01:44:00      -66.328       -0.641      -10.414       34.209       25.255       16.970     1170.261      637.798      287.983        0.330        0.105       66.331       16.342        0.061      336.404        7.684      864.921
10/17/2013  01:45:00      -82.774      -30.242      -25.595       28.803       23.165       16.173      829.603      536.634      261.566        0.502        0.081       88.125        8.715        0.010      336.338        7.574      864.915
10/17/2013  01:46:00      -48.088      -15.325       -4.940       34.049       20.438       22.916     1159.366      417.696      525.136        0.234        0.105       50.471       21.142        0.175      336.243        7.414      864.911
10/17/2013  01:47:00      -63.857      -37.676      -14.647       26.919       23.366       17.095      724.650      545.973      292.243        0.364        0.078       74.144        8.552        0.013      336.370        7.625      864.914
10/17/2013  01:48:00      -53.493      -21.245       -2.260       21.217       21.381       13.386      450.144      457.137      179.172        0.220        0.054       57.557        8.040        0.020      336.354        7.600      864.917
10/17/2013  01:49:00      -83.549      -44.986      -13.680       22.340       26.295       14.453      499.073      691.407      208.896        0.530        0.070       94.890        8.739        0.008      336.462        7.780      864.914
10/17/2013  01:50:00     -119.977        0.586      -15.996       44.821       38.111       20.705     2008.960     1452.451      428.692        0.927        0.195      119.978       21.491        0.032      336.322        7.545      864.912
10/17/2013  01:51:00      -97.992        7.116      -19.695       49.564       33.709       21.592     2456.589     1136.313      466.201        0.705        0.203       98.250       12.760        0.017      336.304        7.517      864.919
10/17/2013  01:52:00     -111.115        2.752      -16.183       53.602       38.294       28.818     2873.151     1466.433      830.483        0.889        0.259      111.149       28.936        0.068      336.537        7.905      864.901
10/17/2013  01:53:00     -130.546       -4.871      -12.978       53.479       41.694       32.208     2860.038     1738.410     1037.337        1.143        0.282      130.637       25.125        0.037      336.253        7.429      864.876
10/17/2013  01:54:00     -152.980      -22.488      -17.591       51.379       33.561       26.763     2639.845     1126.338      716.283        1.435        0.224      154.624       18.173        0.014      336.162        7.280      864.862
10/17/2013  01:55:00     -145.357      -10.745      -10.621       58.834       40.109       28.842     3461.413     1608.764      831.863        1.363        0.295      145.754       30.776        0.045      336.091        7.159      864.862
10/17/2013  01:56:00     -166.504       15.232      -18.021       37.423       31.875       22.263     1400.464     1015.998      495.661        1.560        0.146      167.199       17.198        0.011      336.216        7.368      864.848
10/17/2013  01:57:00     -143.376       23.875      -13.405       36.310       23.571       18.726     1318.404      555.589      350.651        1.176        0.111      145.350       19.029        0.017      336.307        7.520      864.841
10/17/2013  01:58:00     -149.081       42.057      -13.272       45.315       30.871       20.927     2053.463      953.032      437.954        1.381        0.172      154.900        7.777        0.003      336.364        7.615      864.849
10/17/2013  01:59:00     -178.650       57.182      -19.244       43.141       28.637       26.399     1861.124      820.101      696.917        1.947        0.169      187.578       23.535        0.016      336.414        7.699      864.867
10/17/2013  02:00:00     -202.971       66.085      -18.939       52.723       36.465       23.205     2779.705     1329.728      538.451        2.528        0.232      213.458       12.557        0.003      336.390        7.657      864.879
10/17/2013  02:01:00     -144.976       26.380       -6.867       39.939       38.879       32.477     1595.135     1511.595     1054.777        1.296        0.208      147.356       23.394        0.025      336.288        7.488      864.899
10/17/2013  02:02:00     -146.115      -22.428      -20.021       51.549       42.705       21.434     2657.350     1823.674      459.432        1.360        0.247      147.827       16.901        0.013      336.335        7.567      864.916
10/17/2013  02:03:00      -92.557      -42.538        5.674       55.847       45.238       30.023     3118.848     2046.510      901.378        0.824        0.303      101.865       33.245        0.107      336.216        7.369      864.920
10/17/2013  02:04:00     -107.423      -43.333       -5.250       42.201       40.849       21.131     1780.909     1668.644      446.532        0.867        0.195      115.834       16.590        0.021      336.201        7.343      864.924
10/17/2013  02:05:00     -106.571      -42.011       -6.776       41.025       27.227       14.953     1683.028      741.294      223.590        0.791        0.132      114.552        7.810        0.005      336.230        7.391      864.917
10/17/2013  02:06:00     -125.882      -55.582        1.061       53.452       31.391       22.240     2857.139      985.376      494.607        1.164        0.217      137.607       23.154        0.028      336.195        7.335      864.904
10/17/2013  02:07:00     -155.150      -55.203       -6.015       32.177       22.834       17.310     1035.355      521.383      299.629        1.451        0.093      164.678       13.106        0.006      336.241        7.410      864.904
10/17/2013  02:08:00     -130.415      -64.895       -6.447       23.503       26.251       16.372      552.389      689.134      268.028        1.138        0.075      145.668       14.250        0.010      336.171        7.294      864.903
10/17/2013  02:09:00     -128.648      -35.431       -8.205       37.389       25.709       15.195     1397.924      660.955      230.889        1.008        0.114      133.438       16.803        0.016      336.197        7.336      864.891
10/17/2013  02:10:00     -105.808      -44.620        5.772       33.914       19.356       16.693     1150.174      374.640      278.646        0.751        0.090      114.832       15.976        0.019      336.384        7.648      864.872
10/17/2013  02:11:00      -94.570      -39.976        2.418       32.803       19.660       16.260     1076.049      386.519      264.373        0.614        0.086      102.672       17.080        0.028      336.350        7.592      864.867
10/17/2013  02:12:00      -49.318      -38.983        6.215       44.627       29.660       17.312     1991.605      879.740      299.695        0.358        0.159       62.864       21.808        0.120      336.224        7.381      864.847
10/17/2013  02:13:00      -29.586      -34.516        4.915       62.120       37.417       24.776     3858.869     1399.998      613.832        0.398        0.294       45.461       28.367        0.389      336.193        7.331      864.830
10/17/2013  02:14:00      -65.371      -39.493       16.818       63.142       45.886       28.902     3986.944     2105.486      835.337        0.652        0.346       76.375       28.445        0.139      336.167        7.287      864.828
10/17/2013  02:15:00     -102.855      -83.265        0.924       64.452       42.903       28.975     4154.078     1840.674      839.522        1.217        0.342      132.334       31.420        0.056      336.276        7.468      864.818
10/17/2013  02:16:00      -86.152      -83.049       -5.471       48.307       52.369       25.593     2333.587     2742.460      655.016        1.004        0.287      119.663       26.758        0.050      336.262        7.445      864.791
10/17/2013  02:17:00      -87.846      -48.023       -0.978       54.251       59.551       27.584     2943.165     3546.263      760.851        0.864        0.363      100.116       27.937        0.078      336.216        7.369      864.778
10/17/2013  02:18:00     -114.050      -38.491       -2.149       49.263       30.488       26.081     2426.803      929.521      680.231        0.926        0.202      120.370       27.216        0.051      336.167        7.286      864.774
10/17/2013  02:19:00      -83.203      -42.287       -1.009       33.649       25.595       17.084     1132.267      655.127      291.861        0.540        0.104       93.333        9.707        0.011      336.163        7.281      864.766
10/17/2013  02:20:00      -66.161      -23.405       -2.962       22.373       30.251       15.980      500.571      915.118      255.374        0.330        0.084       70.179       12.840        0.033      336.134        7.231      864.757
10/17/2013  02:21:00      -70.104      -18.570       -0.537       23.868       18.838       10.832      569.705      354.871      117.328        0.315        0.052       72.522        9.510        0.017      336.058        7.104      864.753
10/17/2013  02:22:00      -80.284      -27.505        0.982       23.149       35.582       18.615      535.881     1266.092      346.535        0.468        0.107       84.865       12.491        0.022      336.171        7.293      864.758
10/17/2013  02:23:00      -56.716      -26.494        0.763       19.711       15.985        9.782      388.513      255.505       95.688        0.233        0.037       62.599        9.485        0.023      336.165        7.284      864.754
10/17/2013  02:24:00      -42.672      -22.324        0.365       19.114       13.148        9.577      365.335      172.867       91.712        0.147        0.031       48.159        9.295        0.037      336.276        7.469      864.757
10/17/2013  02:25:00      -30.868      -22.976       -3.151       19.442       17.793        9.477      377.997      316.600       89.811        0.114        0.039       38.480       10.066        0.068      336.308        7.523      864.772
10/17/2013  02:26:00       -1.269      -35.622       11.581       12.361       15.536       10.706      152.799      241.359      114.620        0.096        0.025       35.644       10.436        0.086      336.493        7.831      864.779
10/17/2013  02:27:00      -21.298      -50.844        3.220       21.644       15.237       13.065      468.467      232.165      170.682        0.196        0.044       55.124        5.563        0.010      336.839        8.410      864.777
10/17/2013  02:28:00       10.395       15.381       15.209       15.423       11.477       14.269      237.868      131.716      203.609        0.057        0.029       18.564        7.093        0.146      336.233        7.397      864.775
10/17/2013  02:29:00       31.483       64.237       -8.416       14.745       20.936       11.701      217.427      438.309      136.906        0.299        0.040       71.537       11.582        0.026      335.866        6.785      864.778
10/17/2013  02:30:00       24.998      122.719      -18.295       23.448       22.171       12.502      549.823      491.545      156.301        0.861        0.060      125.239        8.693        0.005      335.729        6.558      864.788
10/17/2013  02:31:00       -8.208      137.464      -23.037       23.235       25.422       13.811      539.874      646.264      190.737        1.044        0.069      137.709       15.113        0.012      336.063        7.112      864.779
10/17/2013  02:32:00      -63.317       72.259      -12.244       29.633       37.898       14.205      878.085     1436.228      201.786        0.595        0.126       96.075       15.686        0.027      336.241        7.411      864.786
10/17/2013  02:33:00      -55.313        6.680       -6.667       15.878       33.040       10.481      252.117     1091.644      109.858        0.230        0.073       55.715        9.211        0.027      336.292        7.497      864.780
10/17/2013  02:34:00      -41.822      -21.351       -7.554       16.479       10.893        9.359      271.544      118.653       87.586        0.137        0.024       46.957        7.331        0.024      336.182        7.312      864.762
10/17/2013  02:35:00      -42.814      -31.163       -2.744       15.744       11.777        7.658      247.886      138.698       58.648        0.163        0.022       52.955        4.481        0.007      336.033        7.063      864.746
10/17/2013  02:36:00      -72.487      -32.980       -1.596       23.227       18.421        9.917      539.479      339.345       98.355        0.366        0.049       79.637       10.259        0.017      336.429        7.724      864.724
10/17/2013  02:37:00      -69.192      -18.400       -2.162       26.368       19.432       15.160      695.290      377.613      229.834        0.322        0.065       71.597       12.362        0.030      336.329        7.558      864.715
10/17/2013  02:38:00      -91.639      -10.718      -11.623       29.526       21.910       13.298      871.771      480.056      176.843        0.509        0.076       92.264       13.486        0.021      335.960        6.940      864.728
10/17/2013  02:39:00      -54.193      -14.361       -6.153       27.263       15.973       13.907      743.291      255.152      193.409        0.219        0.060       56.064       13.569        0.059      335.858        6.772      864.732
10/17/2013  02:40:00      -47.059      -23.740       -5.318        7.218       14.519        7.522       52.103      210.812       56.578        0.156        0.016       52.708        6.810        0.017      336.080        7.141      864.719
10/17/2013  02:41:00      -34.905      -14.524       -2.392       12.835       18.142        7.388      164.742      329.118       54.576        0.099        0.027       37.806        4.525        0.014      336.203        7.348      864.720
10/17/2013  02:42:00       -3.299      -46.235       -1.090       15.353       16.889       15.237      235.729      285.222      232.167        0.145        0.038       46.353       12.245        0.070      336.235        7.400      864.727
10/17/2013  02:43:00       -9.266      -21.349       -0.583       13.781       14.311       10.229      189.928      204.805      104.636        0.052        0.025       23.273        8.018        0.119      336.250        7.425      864.728
10/17/2013  02:44:00      -14.786      -12.681        0.266       13.218        8.477        8.174      174.725       71.857       66.809        0.035        0.016       19.479        6.948        0.127      336.311        7.529      864.732
10/17/2013  02:45:00      -38.346        0.880       -5.337       10.027       12.560        7.511      100.540      157.741       56.418        0.091        0.016       38.356        6.683        0.030      336.056        7.102      864.745
10/17/2013  02:46:00      -53.185       16.259       -7.259       10.333       11.499        6.858      106.779      132.232       47.028        0.172        0.014       55.615        3.264        0.003      335.825        6.719      864.750
10/17/2013  02:47:00      -68.693        2.924       -7.702        9.605       11.194        7.051       92.250      125.312       49.715        0.253        0.013       68.755        4.199        0.004      336.015        7.033      864.765
10/17/2013  02:48:00      -46.670      -13.552       -5.181        6.543        7.168        4.502       42.809       51.373       20.272        0.125        0.006       48.598        1.765        0.001      336.086        7.152      864.763
10/17/2013  02:49:00      -37.383      -18.168       -2.635        8.663        6.857        5.113       75.047       47.018       26.145        0.094        0.007       41.564        3.626        0.008      336.156        7.269      864.758
10/17/2013  02:50:00      -51.246      -18.771       -5.809       17.468        8.259        5.437      305.114       68.218       29.559        0.171        0.020       54.576        5.665        0.011      336.039        7.073      864.759
10/17/2013  02:51:00      -83.653      -13.123      -10.695       15.595       13.667       10.365      243.198      186.792      107.425        0.391        0.027       84.676        8.343        0.010      335.785        6.650      864.767
10/17/2013  02:52:00      -75.078        7.606       -5.685       26.452       22.594       16.741      699.734      510.496      280.251        0.361        0.075       75.462       13.871        0.034      335.502        6.179      864.767
10/17/2013  02:53:00      -90.551       -7.788       -7.786       26.581       29.733       16.385      706.568      884.070      268.475        0.509        0.093       90.886       11.928        0.017      335.612        6.361      864.770
10/17/2013  02:54:00      -66.093      -38.681       -4.115       31.495       31.227       13.752      991.949      975.097      189.109        0.402        0.108       76.580        9.975        0.017      335.598        6.338      864.779
10/17/2013  02:55:00      -28.587      -24.681       -2.272       37.405       22.842       18.096     1399.164      521.735      327.454        0.184        0.112       37.767       21.153        0.314      335.590        6.325      864.776
10/17/2013  02:56:00      -43.236      -50.376       -5.169       21.747       13.894        8.088      472.928      193.047       65.414        0.258        0.037       66.386        7.237        0.012      335.792        6.662      864.772
10/17/2013  02:57:00       -3.995      -30.482       11.383       26.341       18.265       17.492      693.855      333.604      305.980        0.120        0.067       30.743       14.148        0.212      336.020        7.041      864.769
10/17/2013  02:58:00       -3.268      -11.616       10.090       20.298       17.892       12.544      412.016      320.122      157.363        0.057        0.044       12.067       12.782        1.122      336.051        7.094      864.768
10/17/2013  02:59:00       -1.310      -15.265        6.041       16.630       21.680       11.710      276.554      470.042      137.121        0.058        0.044       15.322       10.996        0.515      336.072        7.127      864.767
10/17/2013  03:00:00      -41.879        5.833       -1.769       12.810       16.221       11.827      164.085      263.124      139.882        0.118        0.028       42.284        9.981        0.056      335.792        6.663      864.772
10/17/2013  03:01:00      -46.256       19.435       -7.954        7.402       11.498        5.920       54.790      132.197       35.044        0.140        0.011       50.173        4.000        0.006      335.671        6.461      864.768
10/17/2013  03:02:00      -30.594       18.399       -4.960       14.055       10.257        9.422      197.532      105.211       88.772        0.085        0.020       35.700        4.563        0.016      335.694        6.499      864.754
10/17/2013  03:03:00      -36.759      -18.032       -1.636       16.243       17.061        7.480      263.845      291.077       55.951        0.114        0.031       40.943        5.608        0.019      335.637        6.403      864.750
10/17/2013  03:04:00        1.652      -12.033        6.472       11.526       18.815       10.219      132.858      354.009      104.426        0.039        0.030       12.146       10.631        0.766      335.634        6.399      864.750
10/17/2013  03:05:00      -88.535      -26.511       -4.701       24.256       16.109        9.506      588.353      259.500       90.372        0.475        0.047       92.419       10.373        0.013      335.568        6.288      864.748
10/17/2013  03:06:00      -87.509      -23.117        3.811       39.258       32.320       20.230     1541.171     1044.584      409.250        0.560        0.150       90.511       17.326        0.037      335.441        6.075      864.741
10/17/2013  03:07:00      -91.073      -59.524       -1.490       54.602       27.262       18.423     2981.374      743.222      339.420        0.795        0.203      108.800       22.631        0.043      335.655        6.433      864.754
10/17/2013  03:08:00      -86.252      -47.984       -1.171       30.076       31.187       18.505      904.544      972.599      342.445        0.598        0.111       98.701       17.116        0.030      335.696        6.502      864.766
10/17/2013  03:09:00     -139.160      -53.057      -13.708       15.444       18.198       15.191      238.522      331.165      230.764        1.158        0.040      148.931       10.089        0.005      335.692        6.495      864.781
10/17/2013  03:10:00     -110.567      -38.457       -2.868       26.661       16.464       19.733      710.831      271.061      389.411        0.754        0.069      117.064       18.880        0.026      335.659        6.442      864.787
10/17/2013  03:11:00      -43.954      -38.138       15.861       33.155       24.563       19.437     1099.224      603.343      377.787        0.286        0.104       58.193       18.716        0.103      335.687        6.487      864.784
10/17/2013  03:12:00      -57.436      -36.312        8.499       33.072       23.621       18.736     1093.744      557.961      351.034        0.335        0.100       67.952       17.434        0.066      335.655        6.433      864.778
10/17/2013  03:13:00      -95.850      -42.402       -3.059       21.959       16.280       11.724      482.210      265.039      137.457        0.594        0.044      104.810        6.669        0.004      335.627        6.387      864.765
10/17/2013  03:14:00      -71.657      -27.507       -4.576       32.133       11.947       13.956     1032.561      142.734      194.769        0.364        0.069       76.755       16.876        0.048      335.442        6.079      864.749
10/17/2013  03:15:00      -78.592      -27.718        0.202       22.238       19.418       15.193      494.507      377.059      230.840        0.402        0.055       83.337       13.956        0.028      335.378        5.970      864.750
10/17/2013  03:16:00      -69.874      -44.900        1.505       26.037       15.233       14.977      677.941      232.051      224.321        0.402        0.057       83.057       16.147        0.038      335.332        5.894      864.737
10/17/2013  03:17:00      -86.216      -65.730       -3.307       44.913       39.074       21.043     2017.183     1526.774      442.826        0.787        0.199      108.414       13.994        0.017      335.381        5.975      864.725
10/17/2013  03:18:00     -137.711      -76.603        2.215       55.861       47.514       29.163     3120.451     2257.566      850.505        1.553        0.311      157.582       26.233        0.028      335.612        6.362      864.706
10/17/2013  03:19:00     -119.142      -75.931        1.852       57.343       34.267       24.383     3288.170     1174.223      594.506        1.251        0.253      141.281       23.385        0.027      335.606        6.350      864.689
10/17/2013  03:20:00     -100.363      -50.187        8.078       44.189       39.246       24.951     1952.625     1540.234      622.559        0.839        0.206      112.212       25.341        0.051      335.460        6.108      864.669
10/17/2013  03:21:00      -97.527      -42.782       -5.750       43.599       31.364       22.463     1900.876      983.729      504.571        0.738        0.169      106.498       23.602        0.049      335.411        6.027      864.657
10/17/2013  03:22:00     -100.711      -28.958        2.207       34.129       33.963       20.013     1164.792     1153.484      400.539        0.685        0.136      104.791       19.559        0.035      335.353        5.929      864.649
10/17/2013  03:23:00     -100.276      -36.725       -0.543       32.627       23.946       17.690     1064.490      573.415      312.932        0.668        0.098      106.790       15.297        0.021      335.348        5.921      864.662
10/17/2013  03:24:00     -123.682      -43.745       -1.727       31.081       24.253       16.271      966.017      588.216      264.746        0.952        0.091      131.190       16.318        0.015      335.332        5.895      864.679
10/17/2013  03:25:00      -66.965      -16.419        6.452       28.934       28.930       18.021      837.182      836.941      324.762        0.340        0.100       68.949       13.706        0.040      335.203        5.681      864.683
10/17/2013  03:26:00      -63.437      -28.891       -1.615       40.184       22.677       14.243     1614.738      514.245      202.857        0.360        0.117       69.706        9.371        0.018      335.209        5.690      864.688
10/17/2013  03:27:00      -77.935      -36.473       -3.657       19.821       27.236       17.614      392.877      741.814      310.261        0.443        0.072       86.047       12.482        0.021      335.209        5.690      864.698
10/17/2013  03:28:00      -78.639      -15.155       -2.220       28.703       38.639       12.882      823.844     1492.971      165.935        0.445        0.124       80.086        8.354        0.011      335.224        5.714      864.698
10/17/2013  03:29:00      -84.281       -0.490       -4.918       53.264       24.971       18.321     2837.068      623.528      335.641        0.546        0.190       84.283       24.322        0.083      335.171        5.628      864.708
10/17/2013  03:30:00     -111.920       -2.165       -8.770       34.830       31.533       20.204     1213.102      994.330      408.183        0.761        0.131      111.941       20.768        0.034      335.118        5.538      864.723
10/17/2013  03:31:00     -113.260      -28.348       -8.297       34.078       31.863       18.463     1161.277     1015.254      340.881        0.811        0.126      116.754       17.491        0.022      335.043        5.416      864.737
10/17/2013  03:32:00     -125.150       10.766       -6.474       56.158       42.646       24.479     3153.762     1818.659      599.219        1.069        0.279      125.612       24.149        0.037      335.057        5.439      864.747
10/17/2013  03:33:00     -125.006       38.261      -17.045       51.505       32.910       25.528     2652.716     1083.074      651.667        1.088        0.219      130.730       15.896        0.015      335.186        5.654      864.760
10/17/2013  03:34:00     -168.494       42.653      -15.666       46.349       33.246       26.689     2148.231     1105.278      712.302        1.721        0.198      173.809       17.476        0.010      335.237        5.737      864.762
10/17/2013  03:35:00     -185.344       35.789      -10.194       41.333       35.937       22.036     1708.434     1291.500      485.591        1.961        0.174      188.767       17.574        0.009      335.405        6.015      864.755
10/17/2013  03:36:00     -198.942       51.768      -17.294       44.197       23.943       20.478     1953.369      573.265      419.348        2.275        0.147      205.567       15.593        0.006      335.399        6.005      864.754
10/17/2013  03:37:00     -195.107        7.798      -25.547       34.962       32.569       20.652     1222.318     1060.728      426.508        2.074        0.135      195.263       10.554        0.003      335.283        5.812      864.752
10/17/2013  03:38:00     -155.049      -15.274      -23.011       46.412       42.224       24.940     2154.082     1782.835      621.984        1.468        0.228      155.799       25.310        0.026      335.219        5.707      864.744
10/17/2013  03:39:00     -139.368      -16.173      -21.308       35.722       30.160       23.324     1276.077      909.641      544.030        1.143        0.136      140.303       24.015        0.029      335.208        5.690      864.738
10/17/2013  03:40:00     -103.998      -21.403      -10.564       34.237       31.984       22.540     1172.172     1022.992      508.066        0.704        0.135      106.177       20.511        0.037      335.149        5.593      864.741
10/17/2013  03:41:00     -118.290      -15.867       -2.592       26.223       31.126       19.065      687.649      968.834      363.457        0.814        0.101      119.349       15.321        0.016      335.148        5.590      864.739
10/17/2013  03:42:00     -157.579        5.569      -15.610       14.113       20.667       13.737      199.172      427.143      188.717        1.296        0.041      157.678        9.976        0.004      335.272        5.794      864.734
10/17/2013  03:43:00     -174.722       27.684      -15.384       32.723       20.574       11.877     1070.798      423.281      141.065        1.658        0.082      176.902        9.307        0.003      335.292        5.829      864.744
10/17/2013  03:44:00     -158.248       36.699      -11.455       44.707       35.381       20.479     1998.684     1251.791      419.404        1.509        0.183      162.448       14.511        0.008      335.326        5.884      864.732
10/17/2013  03:45:00     -144.721       23.215       -8.423       38.963       31.601       22.226     1518.090      998.598      493.981        1.228        0.151      146.571       20.344        0.019      335.286        5.819      864.735
10/17/2013  03:46:00      -57.614      -34.978       -2.767       43.885       32.706       16.997     1925.902     1069.690      288.901        0.392        0.164       67.400       19.875        0.087      335.229        5.722      864.726
10/17/2013  03:47:00      -69.277       -5.267       -9.818       24.174       22.801       18.196      584.387      519.875      331.086        0.318        0.072       69.477        6.795        0.010      335.220        5.708      864.722
10/17/2013  03:48:00      -55.856      -17.288      -11.689       16.217       18.443       10.106      263.001      340.151      102.129        0.213        0.035       58.470        3.372        0.003      335.217        5.701      864.723
10/17/2013  03:49:00      -60.289       -9.196      -10.432       25.415       14.078        9.129      645.905      198.176       83.339        0.238        0.046       60.986        9.881        0.026      335.162        5.612      864.732
10/17/2013  03:50:00      -66.927      -21.768       -7.544       18.142       13.517        8.674      329.128      182.705       75.241        0.280        0.029       70.378        6.923        0.010      335.172        5.629      864.735
10/17/2013  03:51:00      -79.478      -27.370      -10.621       17.885       16.029       10.308      319.888      256.938      106.251        0.393        0.034       84.059        4.243        0.003      335.076        5.470      864.749
10/17/2013  03:52:00      -74.469      -21.866      -10.070       18.788       17.615       13.028      352.984      310.286      169.737        0.348        0.042       77.613        4.836        0.004      335.060        5.446      864.757
10/17/2013  03:53:00      -83.070      -21.340      -10.913       14.151       13.828       11.474      200.254      191.224      131.655        0.400        0.026       85.767        8.286        0.009      335.060        5.444      864.749
10/17/2013  03:54:00      -95.301       -5.804      -23.009       17.093       13.507       13.276      292.155      182.447      176.248        0.515        0.033       95.478        4.684        0.002      335.088        5.490      864.753
10/17/2013  03:55:00      -57.465      -26.640      -10.464       18.006       19.294       14.369      324.224      372.270      206.459        0.251        0.045       63.339       10.986        0.030      334.955        5.269      864.739
10/17/2013  03:56:00      -55.399      -43.530      -11.749       25.903       21.000       12.536      670.957      441.010      157.160        0.319        0.063       70.455       11.373        0.026      334.950        5.261      864.724
10/17/2013  03:57:00      -34.538      -22.399       -5.103       17.200       14.857       17.160      295.846      220.742      294.467        0.127        0.041       41.165       13.490        0.107      334.945        5.252      864.710
10/17/2013  03:58:00      -51.144      -56.008      -12.114       18.725       22.252       13.231      350.611      495.160      175.071        0.346        0.051       75.846        7.315        0.009      335.131        5.561      864.692
10/17/2013  03:59:00      -79.277      -57.513      -15.363       19.376       19.428       14.055      375.441      377.461      197.546        0.539        0.048       97.942       10.289        0.011      335.099        5.510      864.686
10/17/2013  04:00:00     -101.155      -32.573      -11.805       15.605       13.183        9.991      243.526      173.790       99.815        0.597        0.026      106.270        7.792        0.005      335.203        5.680      864.682
10/17/2013  04:01:00      -94.372      -45.133      -11.733       23.977       15.043       11.408      574.877      226.287      130.135        0.601        0.047      104.610       11.578        0.012      335.217        5.704      864.675
10/17/2013  04:02:00      -53.080      -44.407       -1.121       25.907       16.757       12.716      671.148      280.806      161.696        0.295        0.056       69.206       11.101        0.026      335.227        5.719      864.661
10/17/2013  04:03:00      -63.289      -58.899       -2.664       39.557       23.569       16.717     1564.739      555.502      279.451        0.494        0.120       86.456       17.376        0.040      335.258        5.773      864.657
10/17/2013  04:04:00      -78.294      -71.158       -4.410       46.423       33.482       22.056     2155.123     1121.026      486.453        0.749        0.188      105.799       15.387        0.021      335.254        5.764      864.656
10/17/2013  04:05:00      -71.438      -79.429       -0.695       33.584       32.817       21.660     1127.897     1076.929      469.170        0.704        0.134      106.828       23.151        0.047      335.350        5.926      864.642
10/17/2013  04:06:00      -75.972      -46.640        5.057       39.310       35.960       26.660     1545.263     1293.136      710.754        0.576        0.177       89.147       28.961        0.106      335.243        5.747      864.628
10/17/2013  04:07:00     -111.431      -76.979        3.626       32.858       35.917       23.767     1079.625     1290.006      564.856        1.064        0.147      135.435       14.318        0.011      335.302        5.844      864.632
10/17/2013  04:08:00      -90.135      -72.234        2.150       66.609       37.491       26.088     4436.764     1405.573      680.565        0.993        0.326      115.508       28.073        0.059      335.224        5.715      864.626
10/17/2013  04:09:00     -103.845      -78.104       -3.425       50.172       37.675       25.010     2517.217     1419.384      625.502        1.073        0.228      129.939       23.429        0.033      335.298        5.838      864.622
10/17/2013  04:10:00     -158.109      -84.208       -6.738       34.753       36.421       20.978     1207.780     1326.508      440.078        1.755        0.149      179.136       18.685        0.011      335.320        5.874      864.618
10/17/2013  04:11:00     -109.887      -56.115       -3.978       38.536       28.529       21.816     1485.050      813.931      475.953        0.901        0.139      123.385       16.919        0.019      335.231        5.725      864.626
10/17/2013  04:12:00      -72.358      -62.263        4.959       52.082       38.416       24.852     2712.510     1475.778      617.624        0.697        0.240       95.459       27.727        0.084      335.192        5.662      864.627
10/17/2013  04:13:00     -104.062      -73.050        1.102       44.351       29.494       20.632     1966.970      869.897      425.687        0.971        0.163      127.142       22.065        0.030      335.203        5.682      864.630
10/17/2013  04:14:00     -119.677      -94.904       -1.650       48.735       42.512       22.029     2375.113     1807.278      485.261        1.400        0.233      152.740       20.508        0.018      335.188        5.655      864.631
10/17/2013  04:15:00     -129.082      -90.603       -5.284       48.199       33.058       25.001     2323.161     1092.814      625.031        1.447        0.202      157.706       28.294        0.032      335.195        5.668      864.636
10/17/2013  04:16:00     -131.662      -74.338      -12.746       30.071       24.533       23.134      904.278      601.864      535.205        1.253        0.102      151.199       15.308        0.010      335.181        5.645      864.633
10/17/2013  04:17:00     -102.058      -51.118       -7.859       23.569       33.203       16.743      555.492     1102.420      280.339        0.751        0.097      114.145       12.125        0.011      335.242        5.743      864.623
10/17/2013  04:18:00      -90.516      -35.543       -1.773       20.665       28.151       16.797      427.049      792.456      282.155        0.548        0.075       97.244       11.202        0.013      335.175        5.634      864.618
10/17/2013  04:19:00      -83.845      -19.818        3.009       27.315       19.185       13.950      746.083      368.058      194.608        0.437        0.065       86.155       12.160        0.020      335.018        5.374      864.620
10/17/2013  04:20:00      -81.642       -4.573        9.012       28.494       23.440       19.347      811.930      549.427      374.304        0.425        0.087       81.769       17.609        0.046      334.944        5.251      864.619
10/17/2013  04:21:00      -87.880      -20.974        3.184       28.219       22.698       17.175      796.286      515.189      294.965        0.489        0.080       90.348       15.637        0.030      335.071        5.461      864.620
10/17/2013  04:22:00     -109.957       -6.480       -3.648       26.389       23.013       13.951      696.359      529.593      194.617        0.678        0.071      110.148       13.973        0.016      335.078        5.474      864.624
10/17/2013  04:23:00     -117.417       -8.549      -13.922       18.811       12.400       11.660      353.850      153.763      135.964        0.735        0.032      117.728       10.919        0.009      335.098        5.510      864.631
10/17/2013  04:24:00      -76.677       -7.649       -7.380       30.143       16.290       16.465      908.619      265.370      271.081        0.372        0.072       77.058       11.132        0.021      335.021        5.380      864.629
10/17/2013  04:25:00      -64.771        3.409      -12.088       24.483       17.650       11.545      599.402      311.532      133.292        0.270        0.052       64.860        6.692        0.011      335.096        5.503      864.631
10/17/2013  04:26:00     -106.158       -1.496      -15.449       35.000       23.601       14.306     1224.999      557.017      204.669        0.675        0.099      106.169       15.690        0.022      335.165        5.618      864.633
10/17/2013  04:27:00     -124.020      -13.832       -9.473       32.303       30.191       19.176     1043.460      911.484      367.732        0.899        0.116      124.789       10.969        0.008      335.062        5.448      864.642
10/17/2013  04:28:00     -133.589      -44.921      -14.303       29.897       32.157       19.343      893.804     1034.093      374.144        1.118        0.115      140.939       14.473        0.011      334.953        5.266      864.643
10/17/2013  04:29:00     -110.209       -7.188      -11.396       21.671       24.287       16.484      469.619      589.848      271.726        0.683        0.067      110.443       10.849        0.010      334.836        5.072      864.635
10/17/2013  04:30:00     -128.819      -17.405      -11.025       18.512       18.829       19.216      342.708      354.521      369.257        0.904        0.053      129.990       14.243        0.012      334.863        5.116      864.612
10/17/2013  04:31:00     -149.298        2.793      -12.770       25.640       24.715       19.232      657.388      610.830      369.859        1.205        0.082      149.324       11.614        0.006      335.112        5.530      864.595
10/17/2013  04:32:00     -175.806       16.772       -7.489       42.965       25.591       14.117     1845.960      654.897      199.288        1.697        0.135      176.605       20.129        0.013      335.286        5.819      864.592
10/17/2013  04:33:00     -118.982      -21.447      -11.444       26.819       29.385       18.257      719.263      863.482      333.321        0.833        0.096      120.900       12.698        0.011      335.187        5.653      864.579
10/17/2013  04:34:00      -77.325      -26.258       -4.175       32.310       22.549       20.056     1043.957      508.439      402.261        0.432        0.098       81.662       18.822        0.053      335.184        5.648      864.567
10/17/2013  04:35:00      -81.762      -29.984       -4.645       17.284       15.078       10.378      298.749      227.345      107.705        0.412        0.032       87.087        7.735        0.008      335.217        5.704      864.552
10/17/2013  04:36:00      -93.264      -35.229       -1.926       18.347       17.834       10.819      336.601      318.045      117.051        0.536        0.039       99.696        7.118        0.005      335.241        5.744      864.553
10/17/2013  04:37:00      -76.908      -29.823       -0.625       30.870       22.465       16.228      952.938      504.661      263.354        0.426        0.086       82.488       14.919        0.033      335.296        5.834      864.555
10/17/2013  04:38:00      -88.962      -33.814       -5.998       22.880       27.578       13.979      523.489      760.556      195.414        0.529        0.074       95.172       12.818        0.018      335.404        6.014      864.556
10/17/2013  04:39:00      -96.924      -47.383       -0.544       20.204       16.949       10.200      408.202      287.254      104.046        0.622        0.040      107.886        6.638        0.004      335.404        6.015      864.559
10/17/2013  04:40:00      -86.836      -33.545       -5.146       13.184       15.601        9.505      173.816      243.387       90.340        0.460        0.025       93.090        4.563        0.002      335.336        5.901      864.564
10/17/2013  04:41:00      -80.826      -13.673       -5.424       13.952       16.704        9.632      194.664      279.034       92.768        0.366        0.028       81.974        5.144        0.004      335.185        5.649      864.562
10/17/2013  04:42:00     -113.683       -8.809       -8.950       29.838       19.392       15.535      890.300      376.032      241.350        0.729        0.075      114.023       15.529        0.019      335.194        5.666      864.578
10/17/2013  04:43:00     -130.340      -22.669       -2.831       37.841       27.933       19.180     1431.929      780.248      367.871        1.004        0.129      132.296       20.407        0.024      335.154        5.601      864.595
10/17/2013  04:44:00     -154.078       -0.503       -7.144       35.287       24.272       20.363     1245.194      589.134      414.654        1.302        0.112      154.078       21.577        0.020      335.145        5.584      864.610
10/17/2013  04:45:00     -128.617      -18.671       -4.774       39.517       22.527       24.056     1561.612      507.484      578.696        0.978        0.132      129.965       24.135        0.034      335.002        5.347      864.616
10/17/2013  04:46:00      -87.783      -30.108        2.222       36.245       23.386       16.845     1313.727      546.900      283.749        0.538        0.107       92.802       19.394        0.044      334.927        5.224      864.620
10/17/2013  04:47:00     -102.901      -43.279       -6.861       23.564       29.629       14.279      555.243      877.896      203.893        0.707        0.082      111.632       10.723        0.009      335.015        5.369      864.628
10/17/2013  04:48:00      -75.057      -29.286       -2.274       44.857       18.818       14.795     2012.114      354.119      218.880        0.454        0.129       80.568       19.149        0.056      335.043        5.416      864.636
10/17/2013  04:49:00      -39.763      -26.590       -0.739       22.714       13.232       14.292      515.926      175.077      204.266        0.159        0.045       47.835       11.276        0.056      334.938        5.240      864.646
10/17/2013  04:50:00      -40.001      -29.808       -2.406       26.612       12.434       10.186      708.197      154.592      103.759        0.173        0.048       49.886       12.415        0.062      334.937        5.239      864.650
10/17/2013  04:51:00      -39.186      -25.894        4.093       30.367       13.086       11.292      922.175      171.246      127.502        0.172        0.061       46.968       11.942        0.065      334.968        5.291      864.650
10/17/2013  04:52:00      -42.774      -31.484       -0.901       19.160       22.157       11.858      367.097      490.930      140.615        0.191        0.050       53.111       14.420        0.074      334.975        5.303      864.660
10/17/2013  04:53:00      -72.249      -31.308       -5.697       15.854       17.634        8.136      251.340      310.946       66.196        0.343        0.031       78.741        4.769        0.004      335.017        5.372      864.671
10/17/2013  04:54:00      -72.325      -18.552       -9.201        6.407       10.691        7.023       41.045      114.297       49.324        0.293        0.010       74.666        4.533        0.004      335.012        5.363      864.692
10/17/2013  04:55:00      -78.695      -44.042       -9.659       10.746       21.249        5.731      115.468      451.520       32.845        0.441        0.030       90.181        4.958        0.003      335.096        5.504      864.710
10/17/2013  04:56:00      -68.075      -41.318       -4.308       21.073       17.942       15.417      444.072      321.903      237.692        0.368        0.050       79.633       10.856        0.019      334.970        5.296      864.736
10/17/2013  04:57:00      -26.548      -25.544        3.443       25.776       16.003       17.914      664.382      256.100      320.907        0.131        0.062       36.841       10.420        0.080      334.849        5.093      864.754
10/17/2013  04:58:00      -65.910      -35.389       -3.376       13.223       15.957       10.264      174.861      254.635      105.354        0.307        0.027       74.810        6.822        0.008      334.884        5.152      864.767
10/17/2013  04:59:00      -65.012      -28.790       -9.156        8.800        6.545        5.590       77.441       42.840       31.247        0.265        0.008       71.102        2.859        0.002      334.940        5.245      864.771
10/17/2013  05:00:00      -51.951      -22.826       -8.651        6.970        8.741        6.488       48.587       76.398       42.094        0.173        0.008       56.745        2.741        0.002      334.898        5.174      864.766
10/17/2013  05:01:00      -65.186      -23.219       -8.814       14.170        7.633        6.546      200.794       58.256       42.850        0.258        0.015       69.198        3.785        0.003      334.877        5.141      864.766
10/17/2013  05:02:00      -80.886      -31.215      -10.840        6.164        5.090        5.037       37.995       25.906       25.369        0.386        0.004       86.700        0.974        0.000      334.946        5.252      864.772
10/17/2013  05:03:00      -59.869      -28.815       -5.473       12.075        7.536        4.921      145.797       56.788       24.220        0.234        0.011       66.442        4.381        0.004      334.904        5.185      864.769
10/17/2013  05:04:00      -25.897      -24.613       -5.040       15.680        7.772        5.282      245.856       60.404       27.896        0.082        0.017       35.727        4.169        0.014      334.922        5.213      864.772
10/17/2013  05:05:00       -8.576       -2.524       -0.820        9.957        4.340        5.661       99.146       18.834       32.051        0.012        0.008        8.940        6.755        0.571      334.917        5.206      864.780
10/17/2013  05:06:00       -1.316       -0.765        3.886        8.302        3.035        4.543       68.919        9.210       20.640        0.006        0.005        1.522        5.729       14.170      334.842        5.083      864.798
10/17/2013  05:07:00      -30.943      -21.025       -5.838       11.233        8.169        6.160      126.188       66.740       37.950        0.083        0.012       37.410        3.190        0.007      334.835        5.068      864.806
10/17/2013  05:08:00      -60.207      -22.958       -5.161       10.526       13.542        5.097      110.805      183.383       25.981        0.225        0.016       64.435        3.148        0.002      334.749        4.927      864.814
10/17/2013  05:09:00      -61.934      -40.602       -7.333       21.952       18.608       14.271      481.880      346.269      203.650        0.328        0.052       74.056        8.206        0.012      334.666        4.790      864.822
10/17/2013  05:10:00      -62.948      -54.794        1.214       31.004       41.414       22.465      961.278     1715.130      504.659        0.507        0.159       83.456       16.609        0.040      334.710        4.862      864.828
10/17/2013  05:11:00     -105.175      -89.737       -6.793       23.188       35.860       21.399      537.667     1285.929      457.921        1.072        0.114      138.255       14.304        0.011      334.784        4.983      864.821
10/17/2013  05:12:00      -43.931      -35.237       11.416       45.627       24.942       20.926     2081.865      622.096      437.904        0.322        0.157       56.317       25.675        0.208      334.655        4.771      864.805
10/17/2013  05:13:00      -55.761      -39.059        7.662       42.297       21.298       19.551     1789.021      453.625      382.226        0.366        0.131       68.081       22.023        0.105      334.730        4.895      864.799
10/17/2013  05:14:00      -53.858      -37.090        6.797       45.337       22.522       19.645     2055.401      507.248      385.934        0.363        0.147       65.394       22.755        0.121      334.627        4.725      864.803
10/17/2013  05:15:00      -33.084      -45.708        8.482       30.488       28.759       23.110      929.533      827.091      534.063        0.277        0.115       56.425       16.946        0.090      334.647        4.758      864.802
10/17/2013  05:16:00      -79.788      -34.001        4.415       41.303       24.879       19.707     1705.976      618.956      388.360        0.513        0.136       86.730       20.093        0.054      334.689        4.826      864.803
10/17/2013  05:17:00      -99.139      -42.600        0.810       26.847       25.802       18.618      720.774      665.768      346.632        0.669        0.087      107.904        7.826        0.005      334.678        4.809      864.806
10/17/2013  05:18:00      -74.778      -38.338        1.355       42.314       22.000       17.298     1790.512      483.990      299.234        0.482        0.129       84.033       16.190        0.037      334.584        4.653      864.816
10/17/2013  05:19:00      -76.104      -37.581        3.019       32.260       24.899       17.385     1040.729      619.944      302.238        0.459        0.098       84.877       16.464        0.038      334.599        4.677      864.826
10/17/2013  05:20:00      -84.156      -16.048       -1.239       31.978       22.077       16.323     1022.573      487.406      266.429        0.456        0.089       85.673       15.643        0.033      334.439        4.413      864.842
10/17/2013  05:21:00     -108.867      -22.623        1.929       37.067       21.832       21.050     1373.960      476.642      443.096        0.733        0.115      111.192       23.340        0.044      334.340        4.248      864.853
10/17/2013  05:22:00     -114.658      -31.659       -9.712       27.875       27.436       21.231      776.997      752.733      450.754        0.811        0.099      118.949       18.820        0.025      334.361        4.285      864.857
10/17/2013  05:23:00      -97.710      -23.228       -4.486       31.311       23.105       15.981      980.400      533.856      255.407        0.594        0.088      100.434       15.628        0.024      334.337        4.244      864.860
10/17/2013  05:24:00      -69.238      -42.843       -4.544       21.265       20.926       11.395      452.204      437.889      129.846        0.383        0.051       81.421        5.007        0.004      334.475        4.472      864.863
10/17/2013  05:25:00      -98.036      -23.516       -3.329       25.963       26.090       14.935      674.059      680.678      223.054        0.588        0.079      100.817       14.196        0.020      334.394        4.339      864.875
10/17/2013  05:26:00     -119.175      -20.023      -13.408       30.130       20.477       13.714      907.801      419.319      188.080        0.815        0.076      120.845       12.713        0.011      334.320        4.216      864.891
10/17/2013  05:27:00     -108.005      -48.865       -2.667       31.209       29.137       20.554      973.989      848.940      422.456        0.815        0.112      118.545       16.191        0.019      334.274        4.140      864.901
10/17/2013  05:28:00      -93.851      -48.075       -9.913       22.310       17.303       15.264      497.729      299.387      232.976        0.612        0.052      105.448        5.895        0.003      334.264        4.124      864.911
10/17/2013  05:29:00      -99.756      -66.116       -7.730       27.568       29.324       16.567      759.973      859.886      274.462        0.814        0.095      119.677       12.138        0.010      334.231        4.069      864.914
10/17/2013  05:30:00      -91.935      -43.110       -5.113       31.335       19.949       17.150      981.899      397.981      294.117        0.601        0.084      101.541       17.252        0.029      334.225        4.058      864.908
10/17/2013  05:31:00     -108.479      -35.898       -9.806       12.509       19.402       10.813      156.486      376.442      116.919        0.690        0.032      114.264        8.511        0.006      334.291        4.167      864.909
10/17/2013  05:32:00      -67.069      -51.728      -12.486       27.325       18.943       13.060      746.646      358.826      170.574        0.430        0.064       84.699       11.102        0.017      334.338        4.246      864.919
10/17/2013  05:33:00      -38.781      -21.284        1.224       24.695       11.827       16.047      609.823      139.882      257.490        0.148        0.050       44.237       17.503        0.157      334.338        4.245      864.918
10/17/2013  05:34:00      -76.814      -18.257       -9.298       17.371       10.845        8.953      301.739      117.616       80.147        0.341        0.025       78.954        7.937        0.010      334.430        4.399      864.919
10/17/2013  05:35:00      -79.182      -45.260      -13.473       24.996       14.460       16.725      624.811      209.090      279.739        0.481        0.056       91.205       12.814        0.020      334.429        4.398      864.929
10/17/2013  05:36:00      -44.333      -39.149       -7.677       24.438       21.362       17.400      597.239      456.344      302.746        0.246        0.068       59.144       15.939        0.073      334.341        4.249      864.940
10/17/2013  05:37:00      -88.007      -32.218       -5.927       28.128       34.960       16.580      791.178     1222.187      274.885        0.555        0.114       93.719       13.074        0.019      334.446        4.425      864.944
10/17/2013  05:38:00      -85.125      -39.125      -17.607       14.299       14.955       12.517      204.464      223.659      156.673        0.484        0.029       93.686        8.504        0.008      334.389        4.331      864.950
10/17/2013  05:39:00      -78.538      -31.425       -7.038       15.321       20.350       12.887      234.724      414.104      166.081        0.401        0.041       84.591       10.332        0.015      334.375        4.307      864.962
10/17/2013  05:40:00      -52.440      -39.873       -4.978       32.638       21.558       16.715     1065.216      464.728      279.401        0.309        0.090       65.877       20.827        0.100      334.385        4.325      864.955
10/17/2013  05:41:00      -88.004      -50.459      -10.879       23.869       15.972       13.712      569.710      255.094      188.030        0.571        0.051      101.444       10.073        0.010      334.313        4.205      864.951
10/17/2013  05:42:00     -101.363      -66.866      -12.104       23.064       18.607       14.133      531.966      346.219      199.752        0.798        0.054      121.431       10.800        0.008      334.270        4.131      864.946
10/17/2013  05:43:00     -109.589      -38.720      -10.777       16.713       26.400       11.762      279.339      696.968      138.345        0.737        0.056      116.228        9.137        0.006      334.244        4.090      864.943
10/17/2013  05:44:00     -106.922      -25.053      -14.392       18.349       17.030       12.528      336.687      290.015      156.947        0.653        0.039      109.818        9.092        0.007      334.202        4.019      864.943
10/17/2013  05:45:00     -104.656      -32.784      -15.963       23.599       17.297       11.417      556.900      299.195      130.346        0.663        0.049      109.670        5.557        0.003      334.158        3.946      864.946
10/17/2013  05:46:00      -52.665      -34.480        3.313       35.540       20.569       16.910     1263.127      423.085      285.960        0.297        0.099       62.948       18.552        0.087      334.191        4.003      864.954
10/17/2013  05:47:00      -72.340      -46.883        0.053       18.090       14.196       13.745      327.244      201.533      188.920        0.407        0.036       86.203       10.693        0.015      334.261        4.119      864.958
10/17/2013  05:48:00      -75.482      -38.640       -4.852       26.044       14.422       11.759      678.294      207.982      138.273        0.412        0.051       84.797       11.334        0.018      334.239        4.082      864.972
10/17/2013  05:49:00      -63.806      -47.762       -6.954       17.876       17.447       12.651      319.558      304.410      160.057        0.359        0.039       79.703        3.404        0.002      334.274        4.140      864.984
10/17/2013  05:50:00      -84.615      -47.443       -5.308       16.094       13.383       12.418      259.017      179.116      154.200        0.502        0.030       97.008        8.897        0.008      334.204        4.022      864.989
10/17/2013  05:51:00      -67.542      -35.650        2.635       25.426       15.918       15.551      646.457      253.397      241.825        0.349        0.057       76.373       14.411        0.036      334.140        3.915      864.982
10/17/2013  05:52:00      -40.450      -17.519        3.288       21.833       16.348        8.720      476.676      267.268       76.044        0.139        0.041       44.081        7.521        0.029      334.287        4.162      864.970
10/17/2013  05:53:00      -38.011      -14.248       -5.286        7.964       11.636        7.584       63.421      135.398       57.523        0.097        0.013       40.594        5.814        0.021      334.572        4.632      864.953
10/17/2013  05:54:00      -44.569      -39.018       -6.073       12.662       16.040       10.825      160.329      257.284      117.175        0.204        0.027       59.235        7.912        0.018      334.636        4.739      864.956
10/17/2013  05:55:00      -70.550      -53.054       -1.092       26.282       17.282       14.461      690.753      298.664      209.126        0.450        0.060       88.273       15.098        0.029      334.425        4.389      864.968
10/17/2013  05:56:00      -84.851      -45.127        4.187       34.730       22.964       17.554     1206.151      527.350      308.136        0.565        0.102       96.105       20.939        0.047      334.275        4.142      864.975
10/17/2013  05:57:00      -51.302      -29.102        4.482       24.537       18.754       16.252      602.051      351.719      264.113        0.236        0.061       58.981       14.147        0.058      334.231        4.066      864.980
10/17/2013  05:58:00      -88.273      -45.070        3.724       28.668       21.202       22.319      821.833      449.506      498.135        0.580        0.088       99.113       16.173        0.027      334.127        3.894      864.990
10/17/2013  05:59:00      -74.893      -68.159        4.130       52.352       37.087       23.788     2740.769     1375.412      565.864        0.748        0.234      101.265       22.334        0.049      334.281        4.151      864.999
10/17/2013  06:00:00      -47.474      -70.012       -5.071       25.241       19.869       16.677      637.110      394.784      278.111        0.425        0.066       84.590       13.959        0.027      334.459        4.447      864.996
10/17/2013  06:01:00      -46.952      -72.674       -2.400       36.329       39.665       18.866     1319.778     1573.315      355.933        0.537        0.162       86.522       18.645        0.046      334.561        4.614      864.992
10/17/2013  06:02:00      -70.058      -48.177       -0.694       32.234       25.043       15.540     1039.021      627.173      241.479        0.457        0.095       85.024       12.312        0.021      334.454        4.438      865.002
10/17/2013  06:03:00      -37.869      -24.953       -0.282       18.447       14.257       11.626      340.288      203.258      135.166        0.137        0.034       45.351        7.484        0.027      334.354        4.273      865.025
10/17/2013  06:04:00      -52.022      -10.098       -3.815       11.277       14.617        9.488      127.171      213.669       90.022        0.163        0.022       52.993        5.972        0.013      334.207        4.027      865.044
10/17/2013  06:05:00      -41.926      -21.576       -0.772       14.224        8.250       12.602      202.323       68.070      158.813        0.133        0.021       47.152        3.692        0.006      334.276        4.144      865.048
10/17/2013  06:06:00      -79.041      -49.841       -1.966       27.280       17.307       12.982      744.214      299.544      168.533        0.497        0.061       93.443       10.748        0.013      334.324        4.222      865.045
10/17/2013  06:07:00      -88.026      -48.123        4.282       29.463       20.397       15.085      868.053      416.037      227.551        0.580        0.076      100.322       14.934        0.022      334.165        3.958      865.040
10/17/2013  06:08:00      -65.059      -37.209       -0.385       36.980       25.492       17.202     1367.531      649.842      295.921        0.396        0.116       74.948       18.452        0.061      334.113        3.873      865.042
10/17/2013  06:09:00      -91.244      -54.253       -0.768       36.912       20.598       15.575     1362.510      424.278      242.580        0.665        0.101      106.155       15.384        0.021      334.124        3.890      865.039
10/17/2013  06:10:00      -98.609      -45.655       -4.305       16.408       17.406       12.521      269.231      302.981      156.785        0.628        0.036      108.665        7.887        0.005      334.170        3.966      865.039
10/17/2013  06:11:00      -91.383      -45.875       -0.164       25.305       16.833       14.597      640.343      283.340      213.065        0.580        0.057      102.251       12.113        0.014      334.209        4.030      865.034
10/17/2013  06:12:00      -84.806      -13.054       -5.640       21.067       16.458       15.311      443.816      270.854      234.419        0.417        0.047       85.804        9.577        0.012      334.093        3.838      865.034
10/17/2013  06:13:00      -38.763      -10.429        6.439       26.532       14.450       13.545      703.969      208.791      183.460        0.137        0.055       40.141       14.367        0.128      334.058        3.780      865.037
10/17/2013  06:14:00      -92.764      -23.214       -5.810       15.609       11.235       10.416      243.637      126.231      108.487        0.483        0.024       95.624       10.321        0.012      334.015        3.710      865.037
10/17/2013  06:15:00      -74.957      -21.349       -4.288       14.913       27.463       11.009      222.406      754.214      121.193        0.360        0.055       77.938        6.633        0.007      334.115        3.874      865.024
10/17/2013  06:16:00      -96.482      -20.104      -13.081       23.607       24.753       10.027      557.272      612.701      100.541        0.558        0.064       98.554        8.964        0.008      334.083        3.821      865.027
10/17/2013  06:17:00      -97.317      -53.407       -7.849       33.095       17.811       16.863     1095.264      317.226      284.376        0.704        0.085      111.008       13.362        0.014      333.996        3.677      865.035
10/17/2013  06:18:00      -49.210      -47.120        7.038       34.099       23.189       18.813     1162.759      537.729      353.941        0.337        0.103       68.131       19.552        0.082      334.041        3.752      865.040
10/17/2013  06:19:00     -102.500      -53.005       -3.358       33.944       15.258       15.668     1152.227      232.797      245.484        0.748        0.082      115.394       15.002        0.017      334.135        3.907      865.040
10/17/2013  06:20:00      -63.656      -38.910        1.830       27.207       20.909       16.229      740.231      437.185      263.385        0.350        0.072       74.606       16.365        0.048      333.983        3.656      865.040
10/17/2013  06:21:00      -56.334      -30.292       -4.144        9.543       14.062        5.676       91.072      197.738       32.220        0.221        0.016       63.962        4.717        0.005      334.151        3.935      865.029
10/17/2013  06:22:00      -76.798      -26.825       -8.337       11.455       12.143        8.251      131.215      147.441       68.085        0.352        0.017       81.348        5.777        0.005      334.152        3.937      865.024
10/17/2013  06:23:00     -100.869      -24.866       -4.324       21.324       18.131       10.885      454.703      328.739      118.487        0.586        0.045      103.889        8.314        0.006      334.076        3.810      865.029
10/17/2013  06:24:00      -82.460      -35.771        1.937       30.219       26.688       19.617      913.186      712.268      384.833        0.505        0.101       89.884       17.999        0.040      333.965        3.627      865.040
10/17/2013  06:25:00      -80.764      -26.037       -0.261       23.582       25.314       14.569      556.121      640.789      212.264        0.430        0.070       84.857       13.039        0.024      333.849        3.433      865.036
10/17/2013  06:26:00      -90.870      -41.320       -2.851       13.913       14.270        8.117      193.567      203.641       65.891        0.522        0.023       99.823        3.724        0.001      334.005        3.692      865.023
10/17/2013  06:27:00      -81.822      -36.759        5.689       28.496       28.341       20.242      812.048      803.206      409.739        0.505        0.101       89.700       17.555        0.038      333.953        3.606      865.019
10/17/2013  06:28:00      -95.132      -13.756       -5.696       30.373       19.994       16.223      922.522      399.774      263.196        0.543        0.079       96.121       17.481        0.033      333.802        3.356      865.017
10/17/2013  06:29:00     -120.223      -56.027       -2.672       23.150       21.989       12.329      535.932      483.516      151.996        0.939        0.059      132.637        5.978        0.002      333.932        3.569      865.010
10/17/2013  06:30:00      -90.549      -57.472        4.147       38.975       32.381       20.413     1519.062     1048.522      416.674        0.725        0.149      107.248       18.861        0.031      333.903        3.524      865.015
10/17/2013  06:31:00      -91.087      -49.775        0.848       28.548       24.818       12.207      814.995      615.949      149.013        0.618        0.079      103.800       10.361        0.010      333.892        3.507      865.022
10/17/2013  06:32:00     -112.503      -47.742       -1.322       29.586       19.817       16.820      875.321      392.731      282.928        0.824        0.078      122.214       14.498        0.014      334.042        3.753      865.019
10/17/2013  06:33:00      -88.223      -42.512       -5.908       34.958       22.234       19.882     1222.040      494.357      395.282        0.587        0.106       97.932       20.191        0.043      333.964        3.625      865.022
10/17/2013  06:34:00     -120.399      -18.021       -7.692       31.569       23.010       15.788      996.598      529.456      249.267        0.833        0.089      121.740       12.744        0.011      333.769        3.300      865.029
10/17/2013  06:35:00     -103.215      -17.952       -0.794       28.228       18.350       14.050      796.806      336.710      197.412        0.615        0.067      104.765       11.373        0.012      333.764        3.293      865.034
10/17/2013  06:36:00     -119.181      -38.645      -11.461       20.714       19.353       11.507      429.073      374.546      132.421        0.838        0.047      125.289        8.599        0.005      333.754        3.276      865.036
10/17/2013  06:37:00      -40.852      -34.752       10.758       42.226       29.556       17.079     1783.012      873.544      291.686        0.297        0.147       53.634       21.218        0.157      333.920        3.552      865.028
10/17/2013  06:38:00      -38.978      -34.022        4.235       32.408       24.962       17.334     1050.249      623.111      300.484        0.233        0.099       51.738       17.946        0.120      333.952        3.606      865.032
10/17/2013  06:39:00      -68.180      -41.909        1.937       33.199       14.944       20.610     1102.169      223.317      424.772        0.408        0.088       80.030       20.733        0.067      333.893        3.508      865.039
10/17/2013  06:40:00      -54.334      -35.435        1.385       30.924       18.315       14.810      956.286      335.450      219.328        0.286        0.076       64.868       16.634        0.066      333.867        3.463      865.042
10/17/2013  06:41:00      -75.237      -44.156       -6.367       18.307       14.116        9.876      335.130      199.268       97.542        0.414        0.032       87.238        8.343        0.009      333.891        3.503      865.050
10/17/2013  06:42:00      -39.460      -33.031        0.455       27.578       24.330       18.884      760.556      591.940      356.595        0.218        0.085       51.460       17.232        0.112      333.821        3.387      865.061
10/17/2013  06:43:00      -54.921      -43.618        3.979       37.346       26.522       19.974     1394.754      703.404      398.955        0.372        0.125       70.134       21.872        0.097      333.818        3.382      865.062
10/17/2013  06:44:00      -76.642      -48.052        3.388       27.157       20.254       14.804      737.511      410.206      219.153        0.478        0.068       90.460       12.310        0.019      333.843        3.424      865.059
10/17/2013  06:45:00      -53.759      -61.877        6.098       32.601       17.333       19.378     1062.847      300.442      375.493        0.425        0.087       81.968       19.578        0.057      333.980        3.650      865.061
10/17/2013  06:46:00      -60.977      -50.076        7.488       40.878       24.365       21.730     1670.985      593.669      472.184        0.451        0.137       78.903       23.515        0.089      333.984        3.658      865.068
10/17/2013  06:47:00      -78.312      -52.024        1.541       45.045       27.154       19.731     2029.027      737.346      389.297        0.600        0.158       94.017       21.360        0.052      333.865        3.460      865.069
10/17/2013  06:48:00      -83.344      -49.751        3.800       31.299       25.294       15.515      979.641      639.771      240.705        0.565        0.093       97.064       11.589        0.014      333.873        3.473      865.070
10/17/2013  06:49:00      -88.720      -48.851       -3.998       21.954       15.934       10.974      481.984      253.898      120.419        0.556        0.043      101.280        5.063        0.002      333.938        3.581      865.071
10/17/2013  06:50:00      -80.533      -50.499       -3.999       38.963       19.312       17.893     1518.097      372.959      320.171        0.563        0.111       95.056       18.901        0.040      333.941        3.588      865.081
10/17/2013  06:51:00      -69.603      -48.969        2.590       31.539       23.336       16.384      994.706      544.557      268.440        0.453        0.090       85.103       14.374        0.029      333.937        3.580      865.083
10/17/2013  06:52:00      -52.425      -31.627        5.433       33.392       20.030       15.731     1115.005      401.200      247.455        0.277        0.088       61.226       19.655        0.103      333.990        3.668      865.088
10/17/2013  06:53:00      -84.654      -41.388        1.542       16.331       16.781       13.101      266.692      281.587      171.624        0.480        0.036       94.230       10.012        0.011      334.087        3.828      865.097
10/17/2013  06:54:00      -72.896      -11.982       -0.454       33.293       18.907       15.363     1108.450      357.469      236.028        0.358        0.085       73.875       17.892        0.059      333.991        3.671      865.110
10/17/2013  06:55:00      -95.505      -16.016       -6.453       21.759       14.945       16.017      473.437      223.357      256.541        0.519        0.048       96.839       14.153        0.021      333.925        3.560      865.118
10/17/2013  06:56:00      -80.122      -17.716       -4.827       17.677       15.301        9.049      312.486      234.124       81.881        0.369        0.031       82.057        4.814        0.003      333.939        3.584      865.130
10/17/2013  06:57:00      -44.107      -23.356        1.034       25.879       16.970       11.535      669.710      287.979      133.047        0.179        0.055       49.909       12.305        0.061      333.904        3.526      865.148
10/17/2013  06:58:00      -61.556      -27.000       -2.631       22.570       16.342       11.212      509.422      267.048      125.714        0.271        0.045       67.217       13.018        0.038      333.925        3.561      865.165
10/17/2013  06:59:00      -79.070       -3.869       -3.871       23.033       14.504       10.838      530.539      210.365      117.454        0.357        0.043       79.165        7.427        0.009      333.893        3.508      865.175
10/17/2013  07:00:00      -96.880       -7.399      -10.037       16.508       14.689       11.707      272.521      215.773      137.058        0.508        0.031       97.163        9.090        0.009      333.789        3.334      865.185
10/17/2013  07:01:00      -78.263      -23.066       -4.566       35.902       16.776       15.660     1288.924      281.427      245.248        0.425        0.091       81.591       19.465        0.057      333.780        3.320      865.191
10/17/2013  07:02:00      -67.692       -3.060       -7.104       26.506       17.552       14.294      702.570      308.059      204.333        0.293        0.061       67.761       11.815        0.030      333.709        3.200      865.201
10/17/2013  07:03:00      -70.411        2.247       -2.841       29.606       16.400       16.113      876.533      268.949      259.627        0.319        0.070       70.447       13.873        0.039      333.704        3.193      865.207
10/17/2013  07:04:00      -87.969       -4.435       -2.698       21.512       14.689       13.693      462.751      215.769      187.487        0.432        0.043       88.081       12.327        0.020      333.711        3.204      865.208
10/17/2013  07:05:00      -55.112      -35.213        0.297       24.604       24.771       12.752      605.339      613.619      162.625        0.283        0.069       65.401       12.855        0.039      333.759        3.285      865.208
10/17/2013  07:06:00      -47.415      -25.108        7.958       33.158       22.369       16.763     1099.455      500.350      281.000        0.241        0.094       53.653       15.327        0.082      333.758        3.285      865.215
10/17/2013  07:07:00      -89.467      -37.361        2.700       19.353       13.591       11.087      374.530      184.707      122.930        0.504        0.034       96.955        8.665        0.008      333.741        3.255      865.206
10/17/2013  07:08:00      -67.521      -31.891        0.865       18.249       16.587       15.099      333.015      275.144      227.967        0.321        0.042       74.673       11.732        0.025      333.793        3.339      865.209
10/17/2013  07:09:00      -46.410      -30.271        0.768       17.423       11.665       11.995      303.578      136.078      143.889        0.183        0.029       55.410        5.892        0.011      333.871        3.472      865.209
10/17/2013  07:10:00      -54.754      -25.689       -2.659       21.702       11.774        9.107      470.996      138.619       82.930        0.218        0.035       60.481       11.817        0.038      333.872        3.474      865.208
10/17/2013  07:11:00      -47.656      -24.999        0.330       21.054       12.660       10.223      443.280      160.273      104.514        0.180        0.035       53.815        7.057        0.017      333.821        3.389      865.226
10/17/2013  07:12:00      -27.549      -21.760       -0.487       18.933       17.710       12.086      358.459      313.653      146.064        0.103        0.041       35.107       10.688        0.093      333.846        3.429      865.252
10/17/2013  07:13:00      -45.041      -23.240        1.299       18.579       17.100       11.355      345.197      292.419      128.935        0.167        0.038       50.683       12.138        0.057      333.939        3.584      865.269
10/17/2013  07:14:00      -47.794       -8.844       -4.938       16.342       17.604        9.774      267.065      309.908       95.539        0.153        0.034       48.606       10.104        0.043      333.939        3.583      865.286
10/17/2013  07:15:00      -43.873        1.891       -3.671        9.877       10.042        7.104       97.553      100.837       50.462        0.110        0.012       43.914        5.810        0.018      333.958        3.616      865.303
10/17/2013  07:16:00      -58.873       -4.316        1.175       16.392       10.168        9.188      268.689      103.398       84.416        0.197        0.023       59.031        6.599        0.012      333.935        3.578      865.318
10/17/2013  07:17:00      -70.183       -4.746       -9.854        9.563        9.532        8.792       91.453       90.857       77.294        0.265        0.013       70.343        4.340        0.004      333.910        3.537      865.327
10/17/2013  07:18:00      -66.959       -9.598       -6.411       14.704       13.848       11.207      216.220      191.780      125.606        0.258        0.027       67.644        7.164        0.011      333.919        3.551      865.340
10/17/2013  07:19:00      -55.283      -20.121       -4.582       18.712       16.104        9.822      350.136      259.329       96.462        0.209        0.035       58.830        8.733        0.022      333.938        3.583      865.359
10/17/2013  07:20:00      -57.274      -19.231       -3.210       19.167       20.230       10.862      367.391      409.251      117.978        0.228        0.045       60.416        6.889        0.013      333.861        3.454      865.367
10/17/2013  07:21:00      -11.743      -11.649        9.754       30.248       16.270       14.773      914.929      264.721      218.232        0.088        0.070       16.541       14.918        0.813      333.846        3.430      865.368
10/17/2013  07:22:00      -20.208      -13.824        6.140       21.465       13.041       11.184      460.760      170.070      125.073        0.070        0.038       24.484        8.981        0.135      333.809        3.367      865.358
10/17/2013  07:23:00      -51.929      -18.505       -5.493       13.463        9.236       11.836      181.257       85.296      140.079        0.174        0.020       55.127        5.516        0.010      333.774        3.309      865.350
10/17/2013  07:24:00      -76.838       -0.308       -5.166       24.691       11.144       11.092      609.639      124.180      123.040        0.339        0.043       76.839       12.085        0.025      333.730        3.236      865.351
10/17/2013  07:25:00      -73.288       -5.745       -9.011       17.059        9.968        8.537      291.022       99.360       72.876        0.297        0.023       73.513        4.493        0.004      333.713        3.208      865.363
10/17/2013  07:26:00      -75.031       -3.469       -5.931       15.895       10.267        8.130      252.662      105.418       66.096        0.305        0.021       75.111        5.397        0.005      333.821        3.387      865.369
10/17/2013  07:27:00      -60.386      -18.690       -3.206       15.187       19.023       10.541      230.656      361.864      111.107        0.235        0.035       63.212        7.730        0.015      333.856        3.447      865.373
10/17/2013  07:28:00      -56.435       -2.733       -0.366       25.228       21.896       13.605      636.441      479.423      185.097        0.225        0.065       56.501       10.670        0.036      333.758        3.283      865.383
10/17/2013  07:29:00      -43.149        5.057       -0.038       23.228       17.381       11.816      539.519      302.112      139.624        0.143        0.049       43.444       11.904        0.075      333.695        3.178      865.382
10/17/2013  07:30:00      -47.684       -3.573       -6.024       14.670       15.567       10.741      215.220      242.342      115.373        0.145        0.029       47.817        1.952        0.002      333.795        3.345      865.387
10/17/2013  07:31:00      -67.067        0.911       -7.463       22.311       13.157        8.741      497.769      173.118       76.413        0.265        0.037       67.073        8.487        0.016      333.911        3.537      865.397
10/17/2013  07:32:00      -80.200       -9.814      -11.251       16.407       13.894       11.033      269.180      193.035      121.725        0.362        0.029       80.798        7.765        0.009      334.010        3.702      865.412
10/17/2013  07:33:00      -71.386       -9.277       -5.579       14.263       11.892        8.180      203.426      141.423       66.905        0.281        0.021       71.986        6.808        0.009      334.020        3.717      865.422
10/17/2013  07:34:00      -64.419       -5.091       -7.435       10.807        9.405        6.466      116.785       88.449       41.805        0.224        0.012       64.620        4.711        0.005      334.007        3.697      865.438
10/17/2013  07:35:00      -58.754        7.774       -6.468        8.256       11.935        6.449       68.154      142.443       41.595        0.190        0.013       59.266        3.100        0.003      334.064        3.789      865.459
10/17/2013  07:36:00      -58.212        2.635       -3.147       10.341        9.425        5.788      106.934       88.837       33.506        0.182        0.011       58.272        4.664        0.006      334.166        3.958      865.470
10/17/2013  07:37:00      -37.940       -4.817       -1.780        9.489        8.619        4.881       90.046       74.288       23.822        0.083        0.009       38.245        4.402        0.013      334.125        3.891      865.476
10/17/2013  07:38:00      -23.442        0.386       -6.400        8.223       13.696        7.177       67.617      187.570       51.505        0.045        0.015       23.445        7.978        0.116      334.195        4.007      865.475
10/17/2013  07:39:00      -28.290       -3.654       -0.005       11.479       10.129        6.206      131.767      102.590       38.520        0.054        0.014       28.525        4.990        0.031      334.131        3.901      865.465
10/17/2013  07:40:00       -9.408        6.259        1.089       13.263        9.224        9.196      175.911       85.083       84.570        0.024        0.017       11.299        6.397        0.321      334.281        4.150      865.451
10/17/2013  07:41:00       -7.281       -3.156        0.513       11.937        4.884        4.838      142.491       23.852       23.406        0.013        0.009        7.935        2.840        0.128      334.356        4.275      865.461
10/17/2013  07:42:00      -31.677       -9.594       -2.922        5.670        5.512        4.637       32.148       30.381       21.500        0.059        0.004       33.098        1.567        0.002      334.089        3.831      865.466
10/17/2013  07:43:00      -20.238       -5.605       -0.881        5.631        5.043        4.800       31.713       25.434       23.043        0.026        0.004       21.000        2.257        0.012      334.069        3.797      865.479
10/17/2013  07:44:00      -38.009      -10.491       -1.394       16.015        7.986        6.634      256.469       63.778       44.008        0.096        0.018       39.430        7.901        0.040      334.053        3.771      865.486
10/17/2013  07:45:00      -48.225      -24.518       -6.681       12.283        9.771        7.648      150.871       95.471       58.493        0.164        0.015       54.100        6.745        0.016      334.151        3.934      865.486
10/17/2013  07:46:00      -11.498      -11.408        4.027       12.829        7.680       10.207      164.583       58.986      104.175        0.030        0.016       16.197        8.951        0.305      334.273        4.137      865.488
10/17/2013  07:47:00      -38.190      -14.335       -5.348        9.242        7.018        7.749       85.407       49.249       60.040        0.094        0.010       40.792        2.749        0.005      334.206        4.028      865.494
10/17/2013  07:48:00      -34.475       -9.298       -4.880        4.897        6.526        4.865       23.976       42.588       23.665        0.069        0.005       35.707        3.257        0.008      334.347        4.262      865.506
10/17/2013  07:49:00      -44.741      -12.341       -4.727        9.828        8.885        4.862       96.586       78.935       23.638        0.119        0.010       46.412        3.600        0.006      334.275        4.141      865.519
10/17/2013  07:50:00      -58.145      -12.994       -5.261       10.133        7.555        7.762      102.684       57.073       60.246        0.190        0.011       59.579        5.135        0.007      334.326        4.226      865.534
10/17/2013  07:51:00      -37.679      -18.612       -2.975       12.337        7.852        5.579      152.200       61.650       31.129        0.101        0.012       42.025        5.383        0.016      334.414        4.371      865.522
10/17/2013  07:52:00      -36.623      -18.902       -4.204        7.916        6.303        4.555       62.656       39.726       20.745        0.092        0.006       41.214        4.186        0.010      334.450        4.431      865.519
10/17/2013  07:53:00      -47.775      -30.166       -4.469        7.895       10.887        5.514       62.334      118.529       30.405        0.171        0.011       56.502        3.022        0.003      334.389        4.330      865.520
10/17/2013  07:54:00      -47.824      -28.543       -4.651       10.372        7.179        6.657      107.583       51.539       44.313        0.166        0.010       55.694        4.847        0.008      334.347        4.262      865.516
10/17/2013  07:55:00      -44.002      -30.511       -2.463       15.554       10.712        7.788      241.932      114.756       60.660        0.165        0.021       53.546        5.613        0.011      334.371        4.299      865.514
10/17/2013  07:56:00      -63.130      -22.578       -2.402        9.850       12.803        6.887       97.027      163.906       47.432        0.240        0.015       67.046        5.747        0.007      334.462        4.449      865.530
10/17/2013  07:57:00      -56.436      -20.293       -4.865        6.767        9.448        6.726       45.795       89.259       45.244        0.190        0.009       59.974        3.224        0.003      334.563        4.617      865.536
10/17/2013  07:58:00      -51.409      -21.611       -5.837        7.304        7.945        5.995       53.351       63.122       35.941        0.165        0.008       55.766        3.038        0.003      334.641        4.748      865.546
10/17/2013  07:59:00      -47.416      -19.801       -4.024        6.752        5.535        3.476       45.595       30.633       12.085        0.137        0.004       51.385        2.933        0.003      334.712        4.865      865.557
10/17/2013  08:00:00      -26.397      -16.155       -5.056       10.916        6.714        6.789      119.156       45.084       46.088        0.060        0.011       30.948        3.172        0.011      334.779        4.976      865.568
10/17/2013  08:01:00      -33.392      -10.309       -5.936        8.232        6.827        6.580       67.770       46.608       43.301        0.071        0.008       34.947        4.151        0.014      334.701        4.847      865.579
10/17/2013  08:02:00      -19.027      -12.358       -4.341        8.485        6.375        4.492       71.987       40.640       20.176        0.033        0.007       22.688        2.186        0.009      334.713        4.867      865.597
10/17/2013  08:03:00      -22.588       -8.111       -5.588        7.444        8.150        6.627       55.407       66.422       43.914        0.039        0.008       24.000        4.281        0.032      334.789        4.994      865.612
10/17/2013  08:04:00      -42.975      -24.097       -8.468        9.595       12.021        8.104       92.070      144.502       65.678        0.140        0.015       49.270        5.516        0.013      334.827        5.056      865.629
10/17/2013  08:05:00      -39.166      -22.210       -1.444       10.678       13.682        9.360      114.029      187.194       87.615        0.121        0.019       45.025        4.193        0.009      334.844        5.084      865.647
10/17/2013  08:06:00      -33.259      -10.831       -2.552       11.700        7.908        6.780      136.900       62.531       45.972        0.074        0.012       34.978        3.839        0.012      334.870        5.128      865.660
10/17/2013  08:07:00      -35.282       -9.580       -1.314       12.164        7.115        8.490      147.967       50.628       72.085        0.080        0.014       36.560        5.019        0.019      334.836        5.069      865.668
10/17/2013  08:08:00      -37.718       -4.220       -4.180        5.787        5.484        4.205       33.488       30.078       17.682        0.077        0.004       37.954        0.589        0.000      334.804        5.020      865.682
10/17/2013  08:09:00      -37.871        2.819       -7.625        7.519        5.579        5.697       56.532       31.125       32.457        0.081        0.006       37.976        2.978        0.006      334.827        5.058      865.693
10/17/2013  08:10:00      -14.668        7.925        2.160       13.144       10.302       10.239      172.773      106.124      104.837        0.033        0.019       16.672        6.318        0.144      335.176        5.636      865.708
10/17/2013  08:11:00      -35.499       16.233       -5.818       10.308       11.421        8.942      106.248      130.450       79.952        0.094        0.016       39.034        7.166        0.034      334.957        5.272      865.718
10/17/2013  08:12:00      -13.349       -4.985       -8.926       12.744        7.956        7.020      162.406       63.300       49.286        0.028        0.014       14.249        6.608        0.215      335.104        5.516      865.718
10/17/2013  08:13:00      -20.888      -14.374       -0.664        3.773        4.517        4.694       14.237       20.404       22.029        0.035        0.003       25.356        2.784        0.012      335.113        5.532      865.722
10/17/2013  08:14:00      -25.956      -12.523       -5.128        9.373        6.798        6.827       87.850       46.212       46.605        0.052        0.009       28.819        5.250        0.033      335.119        5.541      865.731
10/17/2013  08:15:00      -27.912       -7.091       -3.880        7.771        6.520        4.044       60.386       42.513       16.352        0.048        0.006       28.799        3.794        0.017      335.096        5.504      865.741
10/17/2013  08:16:00      -25.202       -6.666       -4.276        7.852        5.624        5.241       61.661       31.632       27.472        0.041        0.006       26.069        3.232        0.015      335.121        5.545      865.750
10/17/2013  08:17:00      -29.818      -10.886       -3.832        8.398        6.120        4.227       70.523       37.449       17.865        0.057        0.006       31.743        3.900        0.015      335.149        5.590      865.768
10/17/2013  08:18:00      -31.648       -8.173       -7.142        9.253        8.655        7.695       85.618       74.917       59.220        0.067        0.011       32.686        5.227        0.026      335.194        5.665      865.782
10/17/2013  08:19:00      -19.411        2.291       -8.474       11.317        7.566        5.231      128.075       57.240       27.363        0.033        0.011       19.545        3.852        0.039      335.363        5.946      865.788
10/17/2013  08:20:00      -37.520        2.701       -3.017       10.157        7.792        4.588      103.159       60.721       21.049        0.080        0.009       37.617        3.731        0.010      335.176        5.635      865.797
10/17/2013  08:21:00      -36.348       -6.206       -1.540       14.450        7.788        8.131      208.813       60.652       66.112        0.085        0.017       36.874        8.209        0.050      335.232        5.726      865.801
10/17/2013  08:22:00      -28.520      -10.499       -1.832        6.441        7.729        4.210       41.490       59.742       17.722        0.052        0.006       30.391        2.708        0.008      335.258        5.770      865.797
10/17/2013  08:23:00      -16.131      -20.413       -1.385        8.563        5.810        3.361       73.331       33.761       11.294        0.040        0.006       26.017        2.857        0.012      335.254        5.765      865.800
10/17/2013  08:24:00       -6.589       -6.893       -3.972        7.451        5.858        6.263       55.520       34.319       39.228        0.012        0.006        9.535        5.914        0.385      335.503        6.179      865.813
10/17/2013  08:25:00      -16.648       -3.611       -3.500        4.648        4.910        3.560       21.608       24.107       12.675        0.018        0.003       17.035        1.760        0.011      335.430        6.058      865.824
10/17/2013  08:26:00      -19.288        3.315        1.996        9.541        7.994        6.304       91.034       63.902       39.741        0.029        0.010       19.571        2.074        0.011      335.493        6.162      865.837
10/17/2013  08:27:00      -21.940       -2.208       -6.973        6.404        6.052        5.787       41.015       36.623       33.487        0.032        0.006       22.051        3.263        0.022      335.495        6.166      865.845
10/17/2013  08:28:00      -30.156       -7.129       -5.835        8.488        7.894        5.377       72.041       62.320       28.910        0.058        0.008       30.987        3.897        0.016      335.448        6.087      865.846
10/17/2013  08:29:00      -40.445      -15.395       -3.288       12.114        9.602        6.717      146.739       92.199       45.123        0.108        0.014       43.276        4.444        0.011      335.451        6.093      865.844
10/17/2013  08:30:00      -29.981      -36.408       -0.210       23.394       29.774       17.730      547.284      886.470      314.338        0.199        0.087       47.163       16.537        0.123      335.497        6.170      865.842
10/17/2013  08:31:00      -30.793      -46.513        5.533       32.935       25.327       20.322     1084.730      641.475      412.964        0.264        0.107       55.782       19.247        0.119      335.502        6.178      865.844
10/17/2013  08:32:00      -74.155      -74.745       -5.506       34.951       23.264       13.224     1221.592      541.212      174.870        0.653        0.097      105.289       15.582        0.022      335.451        6.092      865.846
10/17/2013  08:33:00      -63.908      -57.626       -5.575       21.711       23.583       11.279      471.362      556.149      127.205        0.430        0.058       86.052       10.534        0.015      335.489        6.156      865.850
10/17/2013  08:34:00      -57.651      -55.027       -6.209       10.277       18.148        8.041      105.619      329.336       64.656        0.344        0.025       79.697        5.692        0.005      335.476        6.136      865.856
10/17/2013  08:35:00      -58.277      -83.216       -7.651       11.559       16.192       11.421      133.605      262.183      130.438        0.545        0.026      101.593        5.331        0.003      335.498        6.172      865.854
10/17/2013  08:36:00      -34.211      -56.768       -3.630       22.023       16.179        9.741      484.996      261.771       94.896        0.262        0.042       66.280        9.319        0.020      335.551        6.259      865.859
10/17/2013  08:37:00      -41.908      -70.178       -4.031       23.672       18.972       15.265      560.370      359.947      233.015        0.393        0.058       81.739        9.732        0.014      335.586        6.318      865.860
10/17/2013  08:38:00      -31.607      -61.709       -0.232       20.564       14.128       17.392      422.875      199.611      302.491        0.287        0.046       69.333       13.907        0.040      335.653        6.430      865.866
10/17/2013  08:39:00      -43.450      -81.236       -7.177       20.640       28.337       13.412      426.022      802.965      179.877        0.497        0.070       92.126        9.286        0.010      335.619        6.374      865.871
10/17/2013  08:40:00      -32.051      -78.290       -0.501       13.639       20.448       12.664      186.009      418.121      160.373        0.396        0.038       84.597        9.210        0.012      335.652        6.428      865.876
10/17/2013  08:41:00      -31.172      -70.397        0.560       12.423       17.561        8.763      154.327      308.400       76.791        0.323        0.027       76.990        7.129        0.009      335.686        6.487      865.870
10/17/2013  08:42:00      -53.552      -53.674       -9.861       13.715       19.924       12.348      188.090      396.953      152.466        0.329        0.037       75.820        2.911        0.001      335.769        6.625      865.879
10/17/2013  08:43:00      -22.924      -19.460       -8.224       22.903       20.726       20.144      524.568      429.578      405.769        0.117        0.068       30.070       15.257        0.257      336.047        7.088      865.884
10/17/2013  08:44:00      -57.598      -56.286       -1.614       24.792       39.823       13.422      614.637     1585.908      180.139        0.443        0.119       80.534       10.410        0.017      335.827        6.720      865.885
10/17/2013  08:45:00      -39.218      -57.763       -3.069       24.279       23.711       15.139      589.476      562.233      229.186        0.313        0.069       69.818       14.945        0.046      335.817        6.704      865.891
10/17/2013  08:46:00      -29.085      -54.791        2.008       10.353       12.558        8.085      107.176      157.692       65.372        0.209        0.017       62.032        5.633        0.008      335.782        6.646      865.883
10/17/2013  08:47:00      -42.851      -55.322       -6.849       14.551       14.317       17.330      211.729      204.965      300.322        0.283        0.036       69.976        7.497        0.011      335.865        6.783      865.872
10/17/2013  08:48:00      -55.544      -62.697       -9.142       18.199       12.027       15.275      331.213      144.652      233.321        0.390        0.035       83.762       11.725        0.020      335.894        6.830      865.871
10/17/2013  08:49:00      -43.409      -54.383       -7.034       13.254       10.623        7.891      175.679      112.858       62.269        0.262        0.018       69.583        4.920        0.005      335.861        6.777      865.866
10/17/2013  08:50:00      -33.216      -52.222       -6.371       11.928        9.533        6.081      142.283       90.880       36.975        0.207        0.014       61.891        5.202        0.007      335.856        6.768      865.876
10/17/2013  08:51:00       -6.482      -16.732       -4.805       15.761       11.617        8.472      248.419      134.965       71.776        0.040        0.023       17.944        3.941        0.048      336.043        7.080      865.884
10/17/2013  08:52:00        3.740       -7.637        1.686       17.061       17.441       19.259      291.075      304.188      370.911        0.052        0.048        8.504       18.684        4.828      336.487        7.822      865.882
10/17/2013  08:53:00      -12.286        6.931       19.157       11.998        7.135       12.941      143.951       50.909      167.458        0.046        0.018       14.106        9.057        0.412      336.595        8.002      865.878
10/17/2013  08:54:00      -14.252        8.184       19.395       20.054       11.093       13.099      402.144      123.049      171.595        0.067        0.035       16.435       11.210        0.465      336.710        8.196      865.871
10/17/2013  08:55:00      -32.744       -4.416       -8.369       16.883       12.371        8.278      285.019      153.040       68.532        0.083        0.025       33.040        7.637        0.053      336.197        7.338      865.870
10/17/2013  08:56:00      -52.461      -19.310       -1.903       12.469        9.385        9.193      155.479       88.085       84.502        0.173        0.016       55.902        4.536        0.007      336.172        7.295      865.860
10/17/2013  08:57:00      -43.415      -17.720       -8.083       12.880        6.698        6.885      165.893       44.860       47.403        0.126        0.013       46.892        7.052        0.023      336.272        7.463      865.846
10/17/2013  08:58:00      -33.561      -20.129       -3.437       13.521       11.098        6.513      182.813      123.163       42.419        0.095        0.017       39.134        5.692        0.021      336.305        7.518      865.839
10/17/2013  08:59:00      -45.005      -32.389       -5.223       21.173       19.801       11.007      448.316      392.083      121.150        0.203        0.048       55.448        7.889        0.020      336.310        7.525      865.833
10/17/2013  09:00:00      -50.172      -41.705       -6.251       10.462       18.231        7.317      109.452      332.352       53.546        0.240        0.025       65.242        5.724        0.008      336.293        7.497      865.830
10/17/2013  09:01:00      -43.118      -28.100       -4.218       24.712       16.864       12.742      610.665      284.403      162.354        0.186        0.053       51.466        8.918        0.030      336.396        7.670      865.820
10/17/2013  09:02:00      -43.163      -11.251        4.071       16.324       25.048       10.884      266.475      627.409      118.467        0.151        0.051       44.605        8.851        0.039      336.396        7.669      865.819
10/17/2013  09:03:00      -36.638      -20.488        5.178       26.976       21.347       13.397      727.720      455.696      179.478        0.158        0.068       41.977       13.929        0.110      336.543        7.915      865.815
10/17/2013  09:04:00      -38.673      -21.620        6.885       41.984       16.767       12.727     1762.616      281.130      161.975        0.211        0.110       44.306       13.773        0.097      336.625        8.053      865.816
10/17/2013  09:05:00      -59.717      -29.606        1.493       32.025       34.716       17.918     1025.597     1205.175      321.040        0.350        0.128       66.653       20.242        0.092      336.604        8.017      865.830
10/17/2013  09:06:00      -30.297      -38.521       11.973       41.244       32.779       16.123     1701.085     1074.451      259.942        0.279        0.152       49.008       25.050        0.261      336.843        8.418      865.836
10/17/2013  09:07:00      -49.392      -14.132        4.237       30.691       31.661       19.990      941.907     1002.446      399.607        0.250        0.117       51.374       15.490        0.091      336.631        8.063      865.843
10/17/2013  09:08:00      -32.925       14.499        9.925       31.404       25.461       19.287      986.211      648.250      372.005        0.170        0.100       35.976       13.880        0.149      336.897        8.507      865.852
10/17/2013  09:09:00       -4.816        4.946       17.291       18.743       16.034       16.505      351.297      257.091      272.409        0.061        0.044        6.903       10.163        2.167      337.319        9.214      865.858
10/17/2013  09:10:00      -28.432       27.190       44.340       17.116       20.111       20.938      292.946      404.469      438.403        0.232        0.057       39.341       13.671        0.121      337.214        9.037      865.852
10/17/2013  09:11:00      -10.556       25.008       30.017       15.978       20.822       14.563      255.284      433.566      212.092        0.127        0.045       27.144        5.718        0.044      337.556        9.610      865.857
10/17/2013  09:12:00      -38.425       15.937       20.450       20.460       18.543       16.863      418.609      343.827      284.352        0.160        0.052       41.599       15.864        0.145      337.157        8.942      865.856
10/17/2013  09:13:00       -8.548       17.380       46.221       10.096       22.298       21.366      101.936      497.220      456.526        0.178        0.053       19.368       17.633        0.829      337.692        9.838      865.861
10/17/2013  09:14:00       38.174       61.409       65.871       52.611       38.711       27.146     2767.968     1498.527      736.891        0.728        0.250       72.307       20.803        0.083      337.307        9.193      865.862
10/17/2013  09:15:00      104.131       79.105       12.031       33.476       22.004       40.827     1120.635      484.183     1666.814        1.026        0.164      130.770       17.600        0.018      336.871        8.464      865.866
10/17/2013  09:16:00       87.686       43.259       14.020       42.168       30.530       29.456     1778.158      932.086      867.634        0.667        0.179       97.776       18.522        0.036      337.248        9.093      865.857
10/17/2013  09:17:00       95.962       70.612        9.810       37.612       29.202       31.474     1414.639      852.750      990.583        0.877        0.163      119.141       20.119        0.029      337.018        8.709      865.865
10/17/2013  09:18:00      132.634       99.627       15.040       40.022       39.296       34.731     1601.751     1544.210     1206.219        1.605        0.218      165.883       17.709        0.011      336.866        8.454      865.861
10/17/2013  09:19:00       94.349       84.870       12.715       41.960       34.890       29.379     1760.646     1217.301      863.132        1.005        0.192      126.904       19.677        0.024      336.894        8.502      865.859
10/17/2013  09:20:00       66.207       44.596       20.442       44.182       36.197       28.335     1952.036     1310.248      802.855        0.543        0.203       79.826       28.914        0.131      337.382        9.320      865.868
10/17/2013  09:21:00       91.557       71.155       10.252       26.470       29.362       25.192      700.672      862.123      634.620        0.787        0.110      115.955        8.904        0.006      337.131        8.898      865.870
10/17/2013  09:22:00       92.154       65.113        9.272       45.026       35.185       31.550     2027.320     1237.950      995.401        0.854        0.213      112.837       16.705        0.022      337.134        8.903      865.866
10/17/2013  09:23:00       64.629       62.005        2.749       45.291       37.427       31.148     2051.278     1400.783      970.206        0.622        0.221       89.563       19.793        0.049      337.196        9.007      865.867
10/17/2013  09:24:00       48.318       30.027        7.996       35.944       36.924       23.475     1291.991     1363.368      551.057        0.325        0.160       56.888       12.695        0.050      337.271        9.133      865.858
10/17/2013  09:25:00       47.010       24.374        7.729       40.658       33.505       31.910     1653.078     1122.558     1018.267        0.333        0.190       52.953       16.266        0.094      337.380        9.316      865.861
10/17/2013  09:26:00       55.733       58.181       38.422       40.572       28.071       28.413     1646.075      788.001      807.319        0.560        0.162       80.569       14.763        0.034      337.535        9.576      865.854
10/17/2013  09:27:00       -2.911       39.048       66.562       20.541       31.560       24.307      421.950      996.017      590.816        0.399        0.100       39.156       20.629        0.278      338.120       10.555      865.844
10/17/2013  09:28:00       20.879       32.117       36.123       40.629       30.480       30.590     1650.744      929.024      935.740        0.314        0.176       38.307       23.482        0.376      337.797       10.015      865.844
10/17/2013  09:29:00       47.579       44.167       49.404       37.060       34.192       32.909     1373.407     1169.073     1083.019        0.514        0.181       64.919       17.245        0.071      337.646        9.760      865.846
10/17/2013  09:30:00       56.679       66.527       63.651       34.517       40.149       25.974     1191.394     1611.916      674.641        0.758        0.174       87.397       19.733        0.051      337.461        9.450      865.840
10/17/2013  09:31:00       66.988       61.517       35.965       54.186       38.789       36.257     2936.094     1504.599     1314.601        0.766        0.288       90.949       35.166        0.150      337.456        9.443      865.836
10/17/2013  09:32:00       80.617       50.969       13.048       41.261       25.314       31.304     1702.472      640.808      979.963        0.629        0.166       95.378       15.306        0.026      337.335        9.240      865.826
10/17/2013  09:33:00       56.056       43.746        7.749       36.418       28.976       26.897     1326.238      839.635      723.465        0.400        0.144       71.105       16.032        0.051      337.622        9.720      865.818
10/17/2013  09:34:00       76.290       57.890        8.133       24.173       27.268       27.517      584.337      743.523      757.205        0.566        0.104       95.767       15.407        0.026      337.488        9.496      865.818
10/17/2013  09:35:00      135.965       77.166       28.395       38.702       28.700       36.370     1497.868      823.697     1322.760        1.445        0.182      156.337       22.337        0.020      337.332        9.233      865.817
10/17/2013  09:36:00       55.805       59.256       53.789       56.277       51.016       20.735     3167.111     2602.585      429.950        0.786        0.310       81.397       14.728        0.033      337.724        9.891      865.811
10/17/2013  09:37:00       41.234       25.004       68.555       59.109       55.033       37.909     3493.832     3028.609     1437.123        0.749        0.398       48.223       40.355        0.700      337.805       10.028      865.805
10/17/2013  09:38:00      112.096       56.282       32.957       53.402       46.608       43.806     2851.796     2172.276     1918.947        1.188        0.347      125.432       31.819        0.064      337.472        9.469      865.811
10/17/2013  09:39:00      101.393       67.103       23.621       44.266       35.922       34.793     1959.446     1290.362     1210.544        0.990        0.223      121.587       17.515        0.021      337.393        9.337      865.816
10/17/2013  09:40:00       97.104       75.135        1.370       30.054       19.399       22.206      903.215      376.322      493.108        0.842        0.089      122.778       20.035        0.027      337.258        9.110      865.819
10/17/2013  09:41:00       80.427       61.805        0.941       35.457       31.169       33.336     1257.175      971.502     1111.260        0.681        0.167      101.432       12.302        0.015      337.730        9.901      865.817
10/17/2013  09:42:00       67.025       74.241        5.164       39.675       39.664       40.516     1574.123     1573.241     1641.581        0.741        0.239      100.020       29.855        0.089      337.676        9.811      865.811
10/17/2013  09:43:00       24.101       52.798        6.454       34.846       45.346       32.287     1214.226     2056.230     1042.437        0.386        0.216       58.039       31.303        0.291      337.964       10.294      865.825
10/17/2013  09:44:00       31.883       -2.670       -0.165       23.799       44.255       25.791      566.392     1958.470      665.151        0.211        0.160       31.994       14.734        0.212      337.781        9.988      865.833
10/17/2013  09:45:00       19.093      -28.296       19.784       28.858       32.632       23.636      832.805     1064.861      558.677        0.201        0.123       34.135       17.970        0.277      338.021       10.389      865.827
10/17/2013  09:46:00       24.117       46.720       56.112       36.136       32.958       37.375     1305.802     1086.216     1396.873        0.485        0.189       52.578       30.215        0.330      338.170       10.640      865.827
10/17/2013  09:47:00       34.941       85.736      116.304       68.309       42.976       37.805     4666.140     1846.967     1429.183        1.502        0.397       92.582       41.598        0.202      337.873       10.140      865.831
10/17/2013  09:48:00      114.753       33.074       31.563       55.858       55.878       44.277     3120.114     3122.387     1960.413        1.173        0.410      119.424       43.509        0.133      337.498        9.513      865.842
10/17/2013  09:49:00       77.991       45.513       19.470       37.746       52.390       37.203     1424.754     2744.743     1384.079        0.704        0.278       90.300       21.084        0.055      337.745        9.925      865.846
10/17/2013  09:50:00        4.812       46.879       61.573       35.405       46.999       50.387     1253.506     2208.881     2538.847        0.601        0.300       47.126       39.299        0.695      338.234       10.748      865.847
10/17/2013  09:51:00      106.643       81.712       51.322       45.658       27.138       39.461     2084.657      736.447     1557.135        1.253        0.219      134.349       23.137        0.030      337.652        9.771      865.858
10/17/2013  09:52:00       73.711       74.930       31.421       53.868       35.005       33.803     2901.749     1225.384     1142.619        0.865        0.263      105.109       26.664        0.064      337.983       10.325      865.863
10/17/2013  09:53:00       34.479       46.841       47.688       41.870       54.584       38.450     1753.073     2979.367     1478.414        0.593        0.311       58.163       35.964        0.382      338.245       10.765      865.879
10/17/2013  09:54:00       79.419       71.982       39.486       47.484       37.850       38.280     2254.710     1432.599     1465.368        0.910        0.258      107.186       35.234        0.108      337.988       10.333      865.886
10/17/2013  09:55:00       79.837       72.272       41.974       41.326       31.587       32.153     1707.804      997.728     1033.786        0.855        0.187      107.690       10.725        0.010      338.206       10.699      865.895
10/17/2013  09:56:00       53.658       52.401       41.828       50.134       35.144       28.007     2513.445     1235.105      784.419        0.595        0.227       75.000       21.774        0.084      338.583       11.334      865.899
10/17/2013  09:57:00       52.920       27.931       49.217       60.179       56.005       39.615     3621.484     3136.541     1569.329        0.716        0.416       59.839       41.272        0.476      338.373       10.980      865.890
10/17/2013  09:58:00       19.915       60.834       13.595       30.731       33.725       30.833      944.366     1137.366      950.686        0.366        0.152       64.011       22.157        0.120      338.580       11.328      865.885
10/17/2013  09:59:00       49.767       65.330       45.250       38.148       37.701       31.533     1455.248     1421.334      994.299        0.633        0.194       82.127       19.172        0.054      338.408       11.039      865.875
10/17/2013  10:00:00       65.099      106.630      101.090       40.535       36.876       33.623     1643.118     1359.868     1130.514        1.498        0.207      124.932       32.478        0.068      337.934       10.244      865.870
10/17/2013  10:01:00       85.214       30.508       52.737       37.608       39.981       33.773     1414.380     1598.494     1140.583        0.756        0.208       90.511       26.617        0.086      338.002       10.358      865.875
10/17/2013  10:02:00       60.315       24.613       18.423       26.935       23.465       30.200      725.472      550.630      912.060        0.339        0.109       65.144       13.675        0.044      337.913       10.208      865.878
10/17/2013  10:03:00       10.218       17.687       44.750       36.021       39.560       40.434     1297.529     1565.020     1634.910        0.346        0.225       20.426       39.925        3.820      338.707       11.542      865.864
10/17/2013  10:04:00       -9.518       64.878       80.935       30.149       65.692       40.744      908.975     4315.413     1660.089        0.887        0.344       65.572       36.440        0.309      338.769       11.646      865.861
10/17/2013  10:05:00       53.823       47.569       49.017       48.788       53.602       50.803     2380.261     2873.174     2580.978        0.770        0.392       71.831       37.179        0.268      338.299       10.856      865.859
10/17/2013  10:06:00       32.874       50.310       63.453       68.352       56.012       50.176     4671.987     3137.384     2517.586        0.898        0.516       60.098       44.697        0.553      338.689       11.510      865.862
10/17/2013  10:07:00      104.741       63.228       26.120       47.136       45.868       42.797     2221.797     2103.833     1831.544        1.090        0.308      122.345       32.906        0.072      338.235       10.750      865.861
10/17/2013  10:08:00       71.949       81.662       15.353       45.101       29.108       37.013     2034.071      847.292     1369.933        0.817        0.213      108.837       27.421        0.063      338.067       10.466      865.850
10/17/2013  10:09:00        4.556       39.902       17.836       29.266       35.391       28.457      856.504     1252.532      809.826        0.242        0.146       40.161       15.487        0.149      338.727       11.576      865.840
10/17/2013  10:10:00      -13.789       38.885       76.780       21.108       41.120       18.855      445.545     1690.836      355.512        0.504        0.125       41.257       19.860        0.232      338.765       11.640      865.824
10/17/2013  10:11:00       10.426       86.008       87.545       35.197       41.391       29.126     1238.804     1713.204      848.323        0.948        0.190       86.637       23.996        0.077      338.618       11.392      865.815
10/17/2013  10:12:00      106.188       83.303       24.470       61.688       39.807       44.202     3805.366     1584.623     1953.834        1.308        0.367      134.964       27.052        0.040      338.338       10.921      865.808
10/17/2013  10:13:00      112.118       58.227       -1.495       53.084       32.775       33.313     2817.931     1074.185     1109.772        1.048        0.250      126.336       20.756        0.027      338.404       11.033      865.800
10/17/2013  10:14:00       54.130       78.377       76.562       66.599       50.467       60.751     4435.408     2546.966     3690.688        1.280        0.534       95.253       54.202        0.324      338.803       11.703      865.789
10/17/2013  10:15:00       29.786       77.011       78.108       52.366       49.322       45.094     2742.163     2432.661     2033.424        1.006        0.360       82.571       39.020        0.223      338.575       11.320      865.792
10/17/2013  10:16:00       55.173       47.269       91.468       69.005       81.269       53.538     4761.655     6604.668     2866.361        1.394        0.712       72.653       56.272        0.600      338.559       11.293      865.784
10/17/2013  10:17:00       12.791       76.738       91.136       38.306       56.289       31.778     1467.359     3168.500     1009.831        1.000        0.282       77.797       29.295        0.142      338.780       11.664      865.767
10/17/2013  10:18:00       25.222       28.651       40.286       42.141       43.515       37.197     1775.839     1893.588     1383.584        0.407        0.253       38.171       33.741        0.781      338.877       11.827      865.765
10/17/2013  10:19:00       52.660       67.972       54.726       43.496       50.903       55.194     1891.859     2591.155     3046.387        0.896        0.376       85.984       49.876        0.336      338.730       11.579      865.743
10/17/2013  10:20:00       96.486      107.295       90.866       92.759       47.027       52.453     8604.315     2211.541     2751.330        2.132        0.678      144.297       54.905        0.145      338.516       11.217      865.733
10/17/2013  10:21:00      109.933       74.503       38.474       47.682       26.707       25.544     2273.559      713.273      652.473        1.138        0.182      132.800       24.885        0.035      338.201       10.692      865.742
10/17/2013  10:22:00        9.116       35.442       61.202       31.584       44.780       37.206      997.575     2005.215     1384.318        0.474        0.219       36.596       30.089        0.676      339.034       12.091      865.740
10/17/2013  10:23:00       83.982       63.829       36.495       58.303       39.302       50.056     3399.257     1544.685     2505.572        0.995        0.372      105.486       34.467        0.107      338.957       11.962      865.731
10/17/2013  10:24:00       20.826       12.435       27.667       40.844       82.545       51.169     1668.222     6813.749     2618.231        0.622        0.555       24.256       51.827        4.565      339.089       12.183      865.736
10/17/2013  10:25:00       26.474       24.792       33.333       34.752       74.576       33.911     1207.700     5561.515     1149.953        0.517        0.396       36.270       44.395        1.498      338.868       11.811      865.729
10/17/2013  10:26:00       41.597      -35.592       25.880       38.709       71.332       43.506     1498.371     5088.240     1892.770        0.607        0.424       54.745       49.887        0.830      339.263       12.478      865.730
10/17/2013  10:27:00       15.776       63.376       83.947       33.296       52.089       39.513     1108.633     2713.315     1561.264        0.835        0.269       65.310       39.411        0.364      339.474       12.831      865.723
10/17/2013  10:28:00       55.985      110.260       97.657       41.033       42.700       36.609     1683.671     1823.278     1340.199        1.484        0.242      123.659       33.019        0.071      338.735       11.589      865.733
10/17/2013  10:29:00       31.175       64.580       82.551       46.781       55.602       39.735     2188.436     3091.556     1578.849        0.941        0.343       71.711       44.221        0.380      339.122       12.239      865.730
10/17/2013  10:30:00       78.181      101.491       86.582       54.664       51.240       40.360     2988.151     2625.569     1628.915        1.557        0.362      128.112       34.978        0.075      338.856       11.792      865.739
10/17/2013  10:31:00       90.337       94.770       66.341       51.873       33.919       42.049     2690.759     1150.521     1768.114        1.358        0.280      130.928       26.909        0.042      338.805       11.707      865.726
10/17/2013  10:32:00       60.597       66.779       28.219       38.574       33.006       29.981     1487.964     1089.397      898.847        0.620        0.174       90.174       21.656        0.058      338.949       11.948      865.729
10/17/2013  10:33:00       84.253       35.369       11.466       57.999       32.554       31.014     3363.941     1059.749      961.851        0.693        0.269       91.375       24.482        0.072      339.200       12.369      865.714
10/17/2013  10:34:00       81.626       64.307       10.693       38.373       30.864       28.311     1472.495      952.605      801.498        0.707        0.161      103.914       18.196        0.031      338.869       11.814      865.718
10/17/2013  10:35:00       32.654       36.025       -4.830       39.679       43.513       24.382     1574.435     1893.344      594.477        0.322        0.203       48.622       11.197        0.053      339.221       12.405      865.700
10/17/2013  10:36:00      -32.210      -43.178        0.974       36.363       22.600       15.384     1322.286      510.749      236.664        0.249        0.103       53.869       12.504        0.054      339.190       12.354      865.698
10/17/2013  10:37:00      -16.136        5.303       24.922       28.360       18.307       17.908      804.265      335.137      320.701        0.118        0.073       16.985       18.412        1.175      339.906       13.560      865.679
10/17/2013  10:38:00      -22.818      -73.830       -5.120       35.053       38.111       21.411     1228.714     1452.416      458.423        0.457        0.157       77.275       19.589        0.064      339.304       12.546      865.665
10/17/2013  10:39:00      -10.642      -29.627       12.180       32.026       32.853       34.218     1025.681     1079.322     1170.874        0.221        0.164       31.480       28.327        0.810      339.812       13.403      865.641
10/17/2013  10:40:00        0.985      -19.960       21.023       44.042       64.910       39.020     1939.695     4213.350     1522.523        0.426        0.384       19.984       18.989        0.903      339.758       13.312      865.633
10/17/2013  10:41:00       23.974       13.064       55.938       44.442       69.156       49.664     1975.059     4782.485     2466.535        0.655        0.461       27.303       53.810        3.884      339.868       13.496      865.614
10/17/2013  10:42:00       58.069       78.345       69.008       60.091       56.322       36.023     3610.923     3172.214     1297.688        1.117        0.404       97.518       32.256        0.109      339.349       12.621      865.611
10/17/2013  10:43:00      -26.918       -6.198       24.580       30.349       30.318       20.617      921.088      919.167      425.048        0.182        0.113       27.623       20.832        0.569      339.738       13.277      865.612
10/17/2013  10:44:00      -25.368        6.050       24.102       29.722       24.438       32.469      883.378      597.193     1054.242        0.190        0.127       26.079       25.891        0.986      339.957       13.646      865.614
10/17/2013  10:45:00      -17.550       -9.069       -5.621       20.993       20.602       16.741      440.720      424.422      280.258        0.078        0.057       19.755       12.186        0.380      339.635       13.104      865.621
10/17/2013  10:46:00      -12.030        7.839       28.251       34.867       51.287       41.238     1215.739     2630.331     1700.584        0.327        0.277       14.359       38.802        7.303      340.055       13.814      865.629
10/17/2013  10:47:00       43.097       11.608       54.831       51.153       92.909       57.808     2616.659     8632.106     3341.759        0.979        0.730       44.633       63.033        1.994      339.730       13.264      865.617
10/17/2013  10:48:00       14.741       63.501       90.180       38.077       46.753       34.191     1449.828     2185.860     1169.041        0.859        0.240       65.189       30.588        0.220      339.592       13.031      865.624
10/17/2013  10:49:00       -2.631       -5.865       24.287       24.438       51.670       30.241      597.211     2669.832      914.525        0.241        0.209        6.428       22.266       11.998      339.659       13.144      865.616
10/17/2013  10:50:00       11.149        8.185       60.567       34.832       68.027       42.889     1213.240     4627.680     1839.504        0.577        0.384       13.831       49.673       12.897      339.815       13.408      865.611
10/17/2013  10:51:00       78.914       83.279       71.433       33.994       27.507       29.275     1155.575      756.648      857.041        1.052        0.138      114.730       16.606        0.021      339.316       12.565      865.600
10/17/2013  10:52:00       70.496      -54.746       20.737       58.092       59.650       41.154     3374.666     3558.091     1693.658        0.851        0.431       89.257       34.005        0.145      339.712       13.232      865.582
10/17/2013  10:53:00       55.828      -13.936       36.718       60.786       57.238       43.493     3694.954     3276.170     1891.629        0.676        0.443       57.541       43.601        0.574      339.814       13.405      865.586
10/17/2013  10:54:00       74.318       88.302       88.211       69.930       61.531       44.420     4890.271     3786.078     1973.151        1.587        0.532      115.414       38.870        0.113      339.689       13.195      865.561
10/17/2013  10:55:00       27.717       97.817       99.456       34.702       34.727       22.315     1204.219     1205.938      497.948        1.157        0.145      101.668       20.525        0.041      339.417       12.736      865.567
10/17/2013  10:56:00       52.418       38.859       54.178       40.969       45.988       27.685     1678.487     2114.870      766.468        0.588        0.228       65.251       23.277        0.127      339.775       13.339      865.558
10/17/2013  10:57:00       27.833       50.997       64.549       45.163       39.273       35.473     2039.653     1542.363     1258.355        0.619        0.242       58.098       31.643        0.297      339.874       13.506      865.543
10/17/2013  10:58:00      -14.346       32.580       88.982       31.884       56.944       38.946     1016.613     3242.565     1516.808        0.748        0.289       35.599       36.842        1.071      340.138       13.953      865.526
10/17/2013  10:59:00       59.574      -31.043       38.490       32.200       60.962       47.383     1036.840     3716.360     2245.165        0.649        0.350       67.177       44.519        0.439      339.632       13.100      865.530
10/17/2013  11:00:00       42.046      -15.054        5.756       49.235       66.504       32.546     2424.091     4422.800     1059.246        0.497        0.395       44.659       38.013        0.725      339.435       12.765      865.510
10/17/2013  11:01:00       93.657       80.896       47.868       76.052       40.350       33.725     5783.941     1628.086     1137.380        1.308        0.427      123.757       24.352        0.039      339.655       13.137      865.490
10/17/2013  11:02:00       64.399       61.264       63.733       59.681       51.803       45.565     3561.869     2683.545     2076.210        1.014        0.416       88.885       37.838        0.181      339.839       13.447      865.479
10/17/2013  11:03:00       74.486       31.651       53.811       63.102       43.477       36.941     3981.809     1890.256     1364.614        0.834        0.362       80.932       28.232        0.122      339.902       13.554      865.461
10/17/2013  11:04:00       -1.592       28.199       63.722       35.072       47.881       26.016     1230.065     2292.614      676.833        0.453        0.210       28.244       27.309        0.935      340.516       14.589      865.443
10/17/2013  11:05:00        4.455       21.408       79.657       44.125       78.863       52.816     1947.040     6219.335     2789.482        0.889        0.548       21.867       52.269        5.714      340.107       13.899      865.425
10/17/2013  11:06:00       24.339       58.100       84.910       44.991       66.651       49.141     2024.171     4442.364     2414.872        1.003        0.444       62.992       38.225        0.368      340.232       14.112      865.410
10/17/2013  11:07:00       26.543       -6.814       51.693       40.401       66.392       47.584     1632.271     4407.930     2264.216        0.586        0.415       27.403       42.465        2.401      340.261       14.159      865.395
10/17/2013  11:08:00       47.008      -90.495      -16.136       34.691       49.285       34.328     1203.459     2428.966     1178.403        0.773        0.241      101.976       24.136        0.056      339.576       13.003      865.389
10/17/2013  11:09:00       33.337       -6.073       20.372       27.219       64.509       53.602      740.854     4161.426     2873.220        0.467        0.389       33.886       52.359        2.388      340.049       13.802      865.380
10/17/2013  11:10:00      116.365      106.331       68.853       45.060       30.652       40.072     2030.405      939.523     1605.759        1.708        0.229      157.629       31.217        0.039      339.480       12.842      865.375
10/17/2013  11:11:00       51.160      -87.938        5.079       41.295      103.900       47.341     1705.283    10795.280     2241.166        1.256        0.737      101.737       60.398        0.352      339.639       13.110      865.374
10/17/2013  11:12:00       30.863      -88.491        6.321       31.782       38.905       31.823     1010.098     1513.562     1012.731        0.618        0.177       93.719       18.412        0.039      339.835       13.441      865.369
10/17/2013  11:13:00       31.507      -20.113       19.202       66.210       69.609       48.999     4383.726     4845.402     2400.898        0.670        0.582       37.380       51.013        1.862      339.893       13.538      865.373
10/17/2013  11:14:00      -31.833      -60.569       -4.853       66.989       38.090       32.355     4487.563     1450.857     1046.834        0.584        0.349       68.425       22.419        0.107      340.012       13.738      865.343
10/17/2013  11:15:00      -14.739      -70.069       -6.981       38.255       60.592       22.847     1463.426     3671.353      521.972        0.542        0.283       71.603       27.150        0.144      340.020       13.751      865.336
10/17/2013  11:16:00      -24.251      -70.173       10.377       36.552       50.647       33.989     1336.048     2565.105     1155.262        0.534        0.253       74.245       36.252        0.238      340.062       13.824      865.318
10/17/2013  11:17:00       48.620     -111.297        1.065       72.976       70.224       48.613     5325.496     4931.388     2363.193        1.368        0.631      121.453       47.911        0.156      340.186       14.032      865.313
10/17/2013  11:18:00       42.043     -129.764       21.781       24.891       50.335       31.640      619.571     2533.579     1001.104        1.162        0.208      136.405       24.272        0.032      339.830       13.433      865.313
10/17/2013  11:19:00       15.704      -84.929       12.628       35.616       50.261       39.810     1268.495     2526.166     1584.856        0.650        0.269       86.369       35.218        0.166      340.378       14.356      865.296
10/17/2013  11:20:00       22.312        8.839       32.537       28.217       52.409       36.885      796.198     2746.703     1360.470        0.327        0.245       24.000       39.701        2.736      340.174       14.012      865.302
10/17/2013  11:21:00        9.007       32.177       43.225       25.046       27.685       36.036      627.291      766.475     1298.576        0.284        0.135       33.414       27.429        0.674      340.337       14.289      865.290
10/17/2013  11:22:00       43.990      -91.103       11.791       62.272       71.576       34.776     3877.798     5123.130     1209.374        1.029        0.511      101.168       45.264        0.200      340.263       14.163      865.285
10/17/2013  11:23:00       29.240      -67.191        7.720       47.730       65.261       48.517     2278.153     4259.049     2353.877        0.716        0.445       73.277       37.232        0.258      340.373       14.350      865.265
10/17/2013  11:24:00       29.344       20.153       40.297       33.629       28.517       19.640     1130.918      813.221      385.718        0.261        0.116       35.598       14.327        0.162      340.477       14.524      865.264
10/17/2013  11:25:00       25.949       33.964       46.537       33.728       24.373       20.826     1137.607      594.054      433.703        0.308        0.108       42.742       14.549        0.116      340.467       14.508      865.233
10/17/2013  11:26:00       -2.087       39.810       76.891       26.856       39.083       27.849      721.264     1527.447      775.568        0.526        0.151       39.865       25.601        0.412      340.649       14.815      865.224
10/17/2013  11:27:00       17.376       70.248       83.355       64.700       50.689       41.714     4186.079     2569.382     1740.070        1.034        0.425       72.365       32.302        0.199      340.560       14.665      865.226
10/17/2013  11:28:00       61.306       23.717       47.596       62.340       49.724       40.720     3886.230     2472.459     1658.139        0.730        0.401       65.734       33.532        0.260      340.556       14.659      865.222
10/17/2013  11:29:00       -1.525       11.642       19.985       54.358       36.519       32.587     2954.817     1333.653     1061.896        0.294        0.268       11.741       30.039        6.546      340.363       14.331      865.225
10/17/2013  11:30:00       15.049      -54.184       -2.310       38.007       36.696       37.269     1444.532     1346.621     1389.013        0.367        0.209       56.235       22.245        0.156      340.602       14.736      865.209
10/17/2013  11:31:00       25.874      -97.952      -24.514       67.267       74.573       36.677     4524.806     5561.100     1345.226        1.115        0.572      101.312       24.402        0.058      340.365       14.335      865.207
10/17/2013  11:32:00       10.217      -33.646       11.605       29.454       41.872       37.877      867.521     1753.234     1434.686        0.271        0.203       35.163       20.528        0.341      340.622       14.770      865.199
10/17/2013  11:33:00      -12.080      -40.452       -4.534       52.380       33.406       28.158     2743.653     1115.943      792.870        0.323        0.233       42.217       14.476        0.118      340.576       14.692      865.189
10/17/2013  11:34:00        1.989      -83.702      -16.518       47.061       47.786       28.053     2214.742     2283.544      786.990        0.628        0.264       83.726       21.089        0.063      340.600       14.733      865.177
10/17/2013  11:35:00      -50.085      -60.342      -12.447       45.492       41.445       27.600     2069.479     1717.701      761.758        0.543        0.227       78.420       27.648        0.124      340.315       14.252      865.170
10/17/2013  11:36:00      -26.578      -24.149        5.361       34.635       35.235       27.285     1199.612     1241.534      744.456        0.225        0.159       35.911       12.086        0.113      340.470       14.512      865.163
10/17/2013  11:37:00      -22.411      -13.077       19.107       48.629       40.267       28.123     2364.773     1621.419      790.881        0.291        0.239       25.948       25.887        0.995      340.728       14.950      865.154
10/17/2013  11:38:00      -16.665       12.392       13.944       33.493       24.349       17.085     1121.762      592.882      291.886        0.132        0.100       20.768       12.277        0.349      340.644       14.808      865.151
10/17/2013  11:39:00      -39.193      -25.946      -13.190       27.614       41.647       20.040      762.524     1734.474      401.614        0.264        0.145       47.003       22.043        0.220      340.576       14.692      865.145
10/17/2013  11:40:00      -50.320      -47.964       -2.656       65.688       48.077       27.944     4314.906     2311.364      780.888        0.612        0.370       69.518       23.355        0.113      340.425       14.436      865.145
10/17/2013  11:41:00       -6.864      -30.387       24.995       31.723       31.432       22.316     1006.317      987.946      498.005        0.204        0.125       31.153       10.313        0.110      340.916       15.268      865.134
10/17/2013  11:42:00       -1.012       22.223       43.674       24.333       42.563       30.296      592.076     1811.574      917.854        0.286        0.166       22.246       17.896        0.647      341.065       15.519      865.136
10/17/2013  11:43:00      -38.882       -5.839       -4.138       33.841       37.347       24.112     1145.211     1394.822      581.380        0.234        0.156       39.318       19.250        0.240      340.715       14.927      865.121
10/17/2013  11:44:00       -8.979        4.082       29.629       19.346       37.456       37.096      374.259     1402.947     1376.109        0.206        0.158        9.864       31.931       10.479      341.137       15.640      865.119
10/17/2013  11:45:00       58.664       48.528        9.785       53.443       36.566       42.822     2856.180     1337.067     1833.704        0.596        0.301       76.135       22.960        0.091      340.755       14.996      865.116
10/17/2013  11:46:00       68.041       40.457       22.705       39.765       39.376       25.501     1581.216     1550.431      650.296        0.528        0.189       79.160       15.316        0.037      340.803       15.075      865.093
10/17/2013  11:47:00       -1.065        3.083       42.633       27.179       26.541       24.880      738.719      704.448      619.020        0.194        0.103        3.262       16.831       26.621      341.471       16.207      865.082
10/17/2013  11:48:00       55.581       29.810       65.814       59.767       73.650       60.529     3572.152     5424.303     3663.734        1.048        0.633       63.070       57.514        0.832      340.964       15.349      865.060
10/17/2013  11:49:00       63.544      -79.309       16.907       72.208       76.582       40.544     5214.018     5864.865     1643.831        1.167        0.636      101.625       46.995        0.214      340.851       15.157      865.048
10/17/2013  11:50:00       42.379      -11.383       41.570       49.962       69.367       42.617     2496.157     4811.757     1816.238        0.639        0.456       43.881       37.555        0.732      340.969       15.357      865.037
10/17/2013  11:51:00      111.155      -53.087       32.978       57.922       98.844       47.487     3354.972     9770.187     2255.018        1.582        0.769      123.181       55.107        0.200      340.773       15.023      865.032
10/17/2013  11:52:00       29.107       54.755       67.404       44.129       74.814       51.159     1947.382     5597.158     2617.207        0.927        0.508       62.010       49.062        0.626      340.945       15.317      865.011
10/17/2013  11:53:00       40.385       42.794       20.782       61.918       40.000       40.659     3833.854     1599.998     1653.149        0.549        0.354       58.841       30.370        0.266      341.067       15.523      865.009
10/17/2013  11:54:00       19.583       16.976        4.285       37.155       36.371       24.465     1380.512     1322.837      598.513        0.200        0.165       25.917       13.347        0.265      341.242       15.819      864.994
10/17/2013  11:55:00      -13.242      -52.513      -23.218       56.484       54.704       28.326     3190.460     2992.565      802.355        0.523        0.349       54.157       35.220        0.423      340.475       14.520      864.990
10/17/2013  11:56:00       11.608       31.092        3.969       32.943       57.445       23.339     1085.217     3299.958      544.725        0.302        0.246       33.189       21.883        0.435      341.061       15.513      864.964
10/17/2013  11:57:00       65.251       36.746       11.332       41.154       36.993       31.449     1693.692     1368.473      989.016        0.489        0.203       74.886       25.700        0.118      340.961       15.345      864.946
10/17/2013  11:58:00       55.645      -38.304        5.269       62.628       82.127       38.789     3922.319     6744.885     1504.570        0.838        0.609       67.554       26.137        0.150      340.947       15.320      864.933
10/17/2013  11:59:00       40.164       39.392       60.583       50.095       68.019       44.048     2509.474     4626.586     1940.187        0.795        0.454       56.257       37.265        0.439      341.309       15.932      864.918
10/17/2013  12:00:00       81.660      -88.178        1.526       66.541       87.706       52.466     4427.660     7692.282     2752.674        1.466        0.744      120.182       55.552        0.214      341.054       15.500      864.907
10/17/2013  12:01:00       19.420       -3.488       45.978       41.953       81.880       56.722     1760.071     6704.367     3217.369        0.709        0.584       19.730       61.659        9.766      341.270       15.866      864.901
10/17/2013  12:02:00       97.483       41.967       23.067       67.840       36.806       31.930     4602.243     1354.684     1019.507        0.938        0.349      106.132       20.045        0.036      340.970       15.357      864.893
10/17/2013  12:03:00       73.054       57.763       10.367       66.052       39.651       39.259     4362.900     1572.172     1541.247        0.813        0.374       93.132       29.488        0.100      340.762       15.006      864.882
10/17/2013  12:04:00      132.653       96.165        9.150       42.370       32.097       44.174     1795.205     1030.225     1951.361        1.585        0.239      163.843       25.188        0.024      340.942       15.311      864.871
10/17/2013  12:05:00       39.910       82.216        3.753       56.986       62.772       37.132     3247.359     3940.314     1378.770        0.846        0.428       91.391       31.549        0.119      341.029       15.459      864.868
10/17/2013  12:06:00       36.033      100.913       25.717       43.228       72.939       58.585     1868.687     5320.115     3432.245        1.138        0.531      107.153       51.957        0.235      341.020       15.443      864.867
10/17/2013  12:07:00        9.149       41.683        2.775       43.851       32.083       32.467     1922.876     1029.302     1054.076        0.292        0.200       42.675       22.179        0.270      340.991       15.394      864.858
10/17/2013  12:08:00       34.325       23.857       29.575       35.107       52.247       35.242     1232.498     2729.790     1241.981        0.391        0.260       41.802       25.931        0.385      341.373       16.040      864.861
10/17/2013  12:09:00       69.443     -129.902      -15.960       38.320       66.147       33.894     1468.427     4375.411     1148.777        1.447        0.350      147.298       33.953        0.053      340.855       15.164      864.847
10/17/2013  12:10:00       61.297      -35.349       38.726       58.385       98.124       60.132     3408.801     9628.240     3615.829        1.158        0.833       70.760       67.397        0.907      341.087       15.557      864.832
10/17/2013  12:11:00       73.126      -65.942        4.518       32.602       49.317       24.950     1062.909     2432.122      622.503        0.692        0.206       98.467       20.168        0.042      340.927       15.284      864.816
10/17/2013  12:12:00       69.182      -66.370       12.072       56.482       46.268       35.693     3190.198     2140.692     1273.974        0.797        0.330       95.870       31.615        0.109      341.226       15.791      864.797
10/17/2013  12:13:00       74.700      -38.328       26.459       60.665       80.827       48.060     3680.278     6532.958     2309.760        1.013        0.626       83.959       48.710        0.337      341.444       16.162      864.790
10/17/2013  12:14:00       16.325      -30.408       37.346       65.944       70.851       50.292     4348.595     5019.829     2529.291        0.724        0.595       34.514       46.979        1.853      341.480       16.222      864.762
10/17/2013  12:15:00       58.824       59.417       49.634       43.670       30.960       37.853     1907.030      958.512     1432.829        0.688        0.215       83.610       26.427        0.100      341.286       15.892      864.760
10/17/2013  12:16:00       33.001       53.907       67.582       49.587       45.047       34.044     2458.848     2029.257     1158.970        0.710        0.282       63.206       22.691        0.129      341.334       15.975      864.752
10/17/2013  12:17:00       30.418      -45.193       13.885       28.314       73.187       47.042      801.702     5356.333     2212.959        0.576        0.419       54.476       52.647        0.934      340.966       15.352      864.747
10/17/2013  12:18:00        3.985       -1.386       48.826       26.178       47.772       38.025      685.264     2282.200     1445.878        0.341        0.221        4.220       37.840       80.417      341.631       16.479      864.732
10/17/2013  12:19:00       20.524       39.323       41.072       31.719       45.053       34.886     1006.064     2029.811     1217.025        0.395        0.213       44.357       23.922        0.291      341.484       16.230      864.716
10/17/2013  12:20:00       11.236       -9.385        8.445       48.741       47.706       27.151     2375.692     2275.842      737.170        0.284        0.269       14.640       21.088        2.075      341.525       16.299      864.706
10/17/2013  12:21:00       58.362       62.563       48.647       49.082       30.739       36.973     2409.086      944.872     1367.000        0.720        0.236       85.559       30.110        0.124      341.362       16.022      864.696
10/17/2013  12:22:00       97.193       17.322       19.326       20.516       39.952       22.061      420.886     1596.131      486.670        0.631        0.125       98.725       16.561        0.028      340.853       15.159      864.678
10/17/2013  12:23:00       36.846        9.220      -20.129       22.797       45.040       27.256      519.711     2028.605      742.863        0.257        0.165       37.982        8.139        0.046      341.041       15.479      864.668
10/17/2013  12:24:00      -35.991      -43.155       27.069       38.987       56.512       29.821     1519.954     3193.595      889.276        0.475        0.280       56.194       32.022        0.325      341.757       16.692      864.629
10/17/2013  12:25:00       35.662      -84.950       -4.219       59.131       36.027       29.900     3496.485     1297.912      894.014        0.710        0.284       92.132       31.502        0.117      341.405       16.094      864.630
10/17/2013  12:26:00      -20.644       -4.859       17.101       30.410       42.070       29.108      924.795     1769.868      847.256        0.214        0.177       21.209       21.997        1.076      341.398       16.083      864.626
10/17/2013  12:27:00      -27.368       72.161      -20.096       30.411       18.440       18.722      924.822      340.023      350.517        0.399        0.081       77.177        9.882        0.016      341.205       15.757      864.604
10/17/2013  12:28:00       -4.033       24.317       47.799       21.543       24.803       25.982      464.111      615.184      675.047        0.232        0.088       24.650       12.549        0.259      342.180       17.409      864.602
10/17/2013  12:29:00      -18.709        6.568       68.169       30.250       60.610       38.972      915.033     3673.584     1518.820        0.557        0.305       19.828       39.005        3.870      342.169       17.391      864.579
10/17/2013  12:30:00       73.735        0.483       65.567       91.053       84.654       56.660     8290.644     7166.245     3210.369        1.420        0.933       73.736       68.687        0.868      341.787       16.743      864.567
10/17/2013  12:31:00       62.998      -21.612       61.686       83.020      105.480       58.111     6892.241    11125.928     3376.867        1.481        1.070       66.602       61.351        0.849      341.736       16.654      864.548
10/17/2013  12:32:00       68.565       47.490       79.726       82.263       75.128       51.605     6767.282     5644.290     2663.099        1.419        0.754       83.405       62.328        0.558      341.756       16.689      864.529
10/17/2013  12:33:00       -0.783       39.620       79.138       32.742       59.509       41.106     1072.049     3541.302     1689.674        0.707        0.315       39.628       39.817        1.010      342.222       17.481      864.525
10/17/2013  12:34:00       35.723        5.257       62.899       44.922       77.387       35.413     2017.988     5988.792     1254.081        0.726        0.463       36.108       32.272        0.799      342.034       17.162      864.519
10/17/2013  12:35:00      102.762      106.971       67.516       72.186       48.873       59.361     5210.880     2388.550     3523.722        1.884        0.556      148.333       59.815        0.163      341.286       15.893      864.513
10/17/2013  12:36:00       45.812       26.453       10.903       47.300       36.963       25.504     2237.337     1366.285      650.466        0.358        0.213       52.901       23.735        0.201      341.555       16.350      864.510
10/17/2013  12:37:00       21.596       21.500       27.053       22.580       26.513       16.883      509.870      702.949      285.036        0.158        0.075       30.474       12.937        0.180      341.836       16.826      864.491
10/17/2013  12:38:00       55.259        3.759        4.752       34.347       43.773       22.637     1179.695     1916.115      512.437        0.335        0.180       55.386       17.889        0.104      341.751       16.682      864.479
10/17/2013  12:39:00       21.962       18.662       11.744       30.531       26.316       25.586      932.167      692.522      654.644        0.162        0.114       28.820       13.727        0.227      342.071       17.226      864.467
10/17/2013  12:40:00       13.350       -2.165        5.385       18.751       25.359       20.768      351.582      643.099      431.316        0.082        0.071       13.525       14.539        1.156      342.224       17.484      864.458
10/17/2013  12:41:00      -14.550       18.307        6.806       52.376       26.077       19.077     2743.278      680.018      363.914        0.219        0.189       23.385       21.694        0.861      341.672       16.547      864.433
10/17/2013  12:42:00      -32.741      -22.665        1.070       25.059       25.205       18.974      627.935      635.293      360.027        0.160        0.081       39.820       11.045        0.077      342.182       17.411      864.419
10/17/2013  12:43:00       -7.398      -14.204       25.274       32.877       48.082       28.080     1080.911     2311.840      788.495        0.254        0.209       16.015       12.711        0.630      342.315       17.640      864.406
10/17/2013  12:44:00       31.583        6.927       49.637       44.226       70.433       47.596     1955.965     4960.767     2265.399        0.634        0.459       32.333       44.596        1.902      342.209       17.459      864.380
10/17/2013  12:45:00       -9.756      -91.018       21.948       91.364       64.847       50.115     8347.301     4205.094     2511.497        1.196        0.753       91.539       50.111        0.300      341.863       16.872      864.371
10/17/2013  12:46:00       24.163      -84.425       -7.072       53.396       50.490       34.327     2851.132     2549.270     1178.314        0.717        0.329       87.815       32.274        0.135      341.890       16.916      864.361
10/17/2013  12:47:00       16.197      -84.025       15.748       55.233       77.205       51.575     3050.731     5960.681     2659.995        0.962        0.584       85.572       54.330        0.403      342.183       17.415      864.343
10/17/2013  12:48:00       39.532       62.172       86.767       47.976       70.719       45.466     2301.738     5001.187     2067.159        1.116        0.469       73.676       47.443        0.415      342.308       17.627      864.339
10/17/2013  12:49:00       90.338      108.831       80.414       56.700       49.912       39.461     3214.937     2491.171     1557.196        1.687        0.363      141.440       31.550        0.050      341.731       16.647      864.316
10/17/2013  12:50:00       24.991       11.490       36.775       46.540       62.568       31.012     2165.952     3914.729      961.737        0.457        0.352       27.506       18.373        0.446      342.196       17.437      864.313
10/17/2013  12:51:00       92.015      -90.085       13.781       81.298       81.876       64.298     6609.352     6703.733     4134.232        1.711        0.872      128.771       57.150        0.197      342.057       17.199      864.280
10/17/2013  12:52:00       68.017      -14.163       49.116       67.989       64.375       39.180     4622.520     4144.131     1535.108        0.877        0.515       69.476       49.260        0.503      342.057       17.200      864.282
10/17/2013  12:53:00       69.573       -3.253       51.765       53.738       57.425       43.357     2887.786     3297.640     1879.796        0.780        0.403       69.649       36.364        0.273      341.945       17.010      864.260
10/17/2013  12:54:00       84.139       53.932       43.835       66.111       45.667       55.933     4370.688     2085.492     3128.505        1.075        0.479       99.940       45.722        0.209      341.726       16.639      864.252
10/17/2013  12:55:00       60.212       -4.120       25.269       56.709       78.122       47.434     3215.860     6103.090     2249.945        0.792        0.578       60.353       39.283        0.424      341.875       16.892      864.231
10/17/2013  12:56:00       52.837     -128.257       -4.187       42.277       61.778       33.500     1787.353     3816.497     1122.232        1.299        0.336      138.715       22.129        0.025      341.806       16.775      864.220
10/17/2013  12:57:00       22.387      -96.034       -9.479       17.542       41.404       19.411      307.729     1714.282      376.768        0.611        0.120       98.609        8.534        0.007      341.407       16.096      864.215
10/17/2013  12:58:00       50.561      -73.930       -6.721       41.673       54.581       33.749     1736.655     2979.107     1138.974        0.696        0.293       89.565       38.664        0.186      341.921       16.969      864.189
10/17/2013  12:59:00       38.188     -133.395      -27.908       57.580       54.534       33.593     3315.401     2973.905     1128.471        1.372        0.371      138.753       19.990        0.021      341.908       16.947      864.161
10/17/2013  13:00:00       50.834     -120.282       -6.553       60.424       59.016       53.864     3651.074     3482.901     2901.317        1.356        0.502      130.583       44.943        0.118      341.823       16.803      864.149
10/17/2013  13:01:00        5.719       35.587       58.720       27.742       42.678       29.319      769.639     1821.409      859.582        0.410        0.173       36.043       25.969        0.519      342.177       17.404      864.134
10/17/2013  13:02:00       25.165       -4.302       31.858       30.425       47.972       36.840      925.696     2301.306     1357.162        0.312        0.229       25.530       36.378        2.030      342.212       17.465      864.105
10/17/2013  13:03:00        3.236        7.724       23.173       27.545       49.860       30.896      758.703     2486.055      954.539        0.240        0.210        8.374       21.442        6.556      342.144       17.349      864.084
10/17/2013  13:04:00       22.819      -19.913       32.281       41.807       73.135       38.299     1747.792     5348.791     1466.784        0.526        0.428       30.286       41.250        1.855      342.475       17.912      864.055
10/17/2013  13:05:00       49.697      -71.558        1.572       45.933       47.205       39.685     2109.796     2228.274     1574.909        0.675        0.296       87.123       32.753        0.141      342.034       17.161      864.047
10/17/2013  13:06:00       52.849      -36.270       -5.685       49.333       45.925       24.228     2433.787     2109.076      586.994        0.463        0.256       64.098       22.693        0.125      341.915       16.959      864.040
10/17/2013  13:07:00       30.206      -10.925       33.982       61.869       51.859       31.537     3827.731     2689.312      994.583        0.485        0.376       32.121       42.139        1.721      342.446       17.863      864.007
10/17/2013  13:08:00        4.951       37.985       44.516       23.626       26.600       25.897      558.184      707.568      670.637        0.269        0.097       38.306       17.627        0.212      342.725       18.336      863.997
10/17/2013  13:09:00       70.043       72.283       30.880       44.434       42.030       42.993     1974.373     1766.517     1848.423        0.834        0.279      100.652       13.741        0.019      342.420       17.817      863.986
10/17/2013  13:10:00       49.279       35.995       34.020       57.243       43.319       45.257     3276.772     1876.504     2048.183        0.604        0.360       61.025       32.697        0.287      342.445       17.859      863.974
10/17/2013  13:11:00       22.920      -20.204       46.693       51.088       55.858       42.518     2609.982     3120.133     1807.818        0.532        0.377       30.554       40.369        1.746      342.589       18.105      863.943
10/17/2013  13:12:00      120.161       84.864       28.370       71.056       43.057       45.478     5049.022     1853.876     2068.272        1.571        0.449      147.107       26.142        0.032      342.174       17.398      863.938
10/17/2013  13:13:00       86.005      179.534      -21.038       74.909      124.341       49.809     5611.417    15460.564     2480.980        3.181        1.178      199.071       58.556        0.087      342.119       17.304      863.911
10/17/2013  13:14:00       -7.424      244.860      -25.987       56.280       72.242       45.705     3167.439     5218.956     2088.935        3.558        0.524      244.973       43.240        0.031      341.900       16.929      863.904
10/17/2013  13:15:00       45.265      100.147        4.226       65.526       80.705       52.467     4293.664     6513.223     2752.811        1.283        0.678      109.902       49.002        0.199      342.301       17.615      863.889
10/17/2013  13:16:00      134.079       50.762       12.452       64.867       60.977       39.549     4207.754     3718.228     1564.094        1.510        0.475      143.367       18.639        0.017      342.317       17.640      863.880
10/17/2013  13:17:00       25.591       -0.010       40.404       72.608      108.181       44.018     5271.948    11703.050     1937.581        1.060        0.946       25.591       35.600        1.935      342.618       18.154      863.852
10/17/2013  13:18:00       95.459      -41.915       50.198       69.115      130.601       67.998     4776.881    17056.688     4623.694        1.992        1.323      104.256       85.553        0.673      342.292       17.597      863.841
10/17/2013  13:19:00       62.593       39.597       78.225       60.863      122.466       79.579     3704.332    14997.889     6332.885        1.832        1.252       74.066       85.037        1.318      342.402       17.786      863.837
10/17/2013  13:20:00       68.566       27.212       46.925       56.509       51.287       43.956     3193.292     2630.333     1932.140        0.770        0.388       73.768       37.809        0.263      342.175       17.402      863.837
10/17/2013  13:21:00      135.969       85.387       22.954       55.984       57.857       44.612     3134.192     3347.415     1990.258        1.739        0.424      160.557       33.118        0.043      342.008       17.116      863.809
10/17/2013  13:22:00       62.271       62.891       52.089       39.487       43.857       48.841     1559.218     1923.464     2385.450        0.821        0.293       88.504       38.121        0.186      342.189       17.424      863.785
10/17/2013  13:23:00       99.994       60.454       60.091       65.900       60.706       57.524     4342.876     3685.164     3308.975        1.430        0.567      116.848       55.028        0.222      342.327       17.658      863.753
10/17/2013  13:24:00       76.642       66.442       67.580       71.477       59.672       56.380     5108.968     3560.750     3178.651        1.335        0.592      101.433       53.022        0.273      342.572       18.075      863.753
10/17/2013  13:25:00       89.598       70.117       60.952       74.105       58.547       63.912     5491.567     3427.752     4084.688        1.483        0.650      113.773       53.354        0.220      342.437       17.845      863.758
10/17/2013  13:26:00       91.168        7.205       24.694       80.488       40.585       41.604     6478.261     1647.143     1730.871        0.941        0.493       91.453       32.285        0.125      342.306       17.622      863.741
10/17/2013  13:27:00      150.600       79.512       50.865       79.860       47.311       60.059     6377.678     2238.355     3607.046        2.190        0.611      170.301       45.713        0.072      342.268       17.557      863.740
10/17/2013  13:28:00       31.842        0.265       39.333       37.526       53.391       28.364     1408.230     2850.613      804.541        0.381        0.253       31.843       35.190        1.221      342.615       18.149      863.733
10/17/2013  13:29:00       51.712       76.800       99.483       78.548      103.744       76.303     6169.785    10762.784     5822.108        2.061        1.138       92.587       78.594        0.721      342.516       17.977      863.700
10/17/2013  13:30:00       57.190       62.866       68.712       33.661       44.198       40.576     1133.086     1953.451     1646.373        0.834        0.237       84.988       30.877        0.132      342.342       17.683      863.703
10/17/2013  13:31:00       78.479        6.596       44.239       58.657       77.933       43.242     3440.587     6073.600     1869.866        0.977        0.569       78.756       31.919        0.164      342.489       17.936      863.691
10/17/2013  13:32:00       30.305       41.987       -4.723       55.553       29.308       19.265     3086.104      858.949      371.156        0.351        0.216       51.782       16.921        0.107      342.210       17.460      863.685
10/17/2013  13:33:00       -1.453       30.467        4.489       31.057       16.082       22.887      964.542      258.617      523.812        0.135        0.087       30.502       20.035        0.431      342.449       17.865      863.664
10/17/2013  13:34:00       14.243       15.196       -7.453       15.074       12.386       12.890      227.219      153.419      166.143        0.052        0.027       20.828        7.691        0.136      342.531       18.005      863.659
10/17/2013  13:35:00       12.482       -8.872        6.822       25.467       29.683       23.437      648.592      881.057      549.310        0.118        0.104       15.314        9.796        0.409      342.988       18.783      863.660
10/17/2013  13:36:00       25.810       58.990       94.411       47.086       82.515       66.161     2217.092     6808.689     4377.260        1.323        0.670       64.389       67.499        1.099      342.727       18.338      863.656
10/17/2013  13:37:00       76.900      119.923      103.927      111.161       62.629       64.000    12356.832     3922.422     4095.996        2.573        1.019      142.461       75.276        0.279      342.558       18.050      863.643
10/17/2013  13:38:00      118.790       90.830        3.998       73.414       44.080       42.241     5389.621     1943.059     1784.262        1.575        0.456      149.536        9.262        0.004      342.277       17.573      863.648
10/17/2013  13:39:00       49.405       77.818      -19.081       28.205       47.290       27.355      795.538     2236.317      748.293        0.632        0.189       92.177        9.188        0.010      342.193       17.430      863.642
10/17/2013  13:40:00       29.157       42.303        2.786       43.503       33.515       31.644     1892.485     1123.281     1001.321        0.333        0.201       51.377       20.037        0.152      342.451       17.871      863.621
10/17/2013  13:41:00       91.422       59.481        6.713       72.864       68.440       37.481     5309.143     4684.038     1404.854        1.167        0.570      109.068       20.843        0.037      342.682       18.263      863.601
10/17/2013  13:42:00       44.322       -8.721       -9.341       33.302       41.903       23.031     1109.040     1755.830      530.426        0.276        0.170       45.172       11.146        0.061      342.829       18.513      863.571
10/17/2013  13:43:00        3.590       15.643       50.203       30.211       53.959       39.466      912.681     2911.618     1557.540        0.408        0.269       16.049       22.640        1.990      343.321       19.350      863.552
10/17/2013  13:44:00      186.364     -113.424        4.751       89.434      214.528       81.804     7998.454    46022.349     6691.967        5.415        3.036      218.166      112.800        0.267      342.478       17.912      863.535
10/17/2013  13:45:00       89.646       61.208       66.908       67.147       63.374       44.876     4508.783     4016.276     2013.817        1.340        0.527      108.549       28.666        0.070      342.896       18.627      863.529
10/17/2013  13:46:00       48.411       80.662      109.959       81.364       74.173       56.004     6620.074     5501.625     3136.443        1.810        0.763       94.075       51.737        0.302      342.879       18.596      863.508
10/17/2013  13:47:00       23.504       56.558       74.279       63.866       44.595       40.455     4078.845     1988.701     1636.613        0.848        0.385       61.247       34.264        0.313      343.083       18.945      863.509
10/17/2013  13:48:00       -6.597      -25.164        5.696       27.094       28.903       17.597      734.068      835.407      309.648        0.129        0.094       26.014       14.346        0.304      343.234       19.203      863.508
10/17/2013  13:49:00       36.378       65.504       58.356       57.182       88.153       61.535     3269.745     7770.891     3786.587        1.192        0.741       74.927       62.142        0.688      343.046       18.882      863.492
10/17/2013  13:50:00      138.123      -52.045       35.588       90.269      120.089       64.634     8148.402    14421.326     4177.545        2.490        1.337      147.603       78.405        0.282      342.743       18.365      863.479
10/17/2013  13:51:00      110.502      -94.026       28.198       65.956      123.741       54.982     4350.223    15311.712     3023.063        2.226        1.134      145.092       70.495        0.236      342.679       18.255      863.484
10/17/2013  13:52:00       54.483      -80.739        6.899       95.832       73.265       55.343     9183.794     5367.824     3062.809        1.357        0.881       97.402       51.481        0.279      342.741       18.362      863.466
10/17/2013  13:53:00      137.812     -171.935       -2.728       79.300       92.976       51.602     6288.499     8644.614     2662.751        3.308        0.880      220.350       48.295        0.048      342.764       18.399      863.448
10/17/2013  13:54:00       99.263     -107.046       42.141      101.223      176.139       95.498    10246.104    31024.805     9119.937        3.673        2.520      145.986      107.688        0.544      343.000       18.801      863.411
10/17/2013  13:55:00       86.184     -114.525        5.621       70.320       96.824       55.684     4944.842     9374.908     3100.675        1.899        0.871      143.331       57.093        0.159      343.107       18.984      863.423
10/17/2013  13:56:00      108.691      -48.099       55.978       88.281      105.310       60.925     7793.577    11090.197     3711.873        1.992        1.130      118.858       69.755        0.344      342.952       18.721      863.422
10/17/2013  13:57:00      151.245     -121.106       28.365       94.078       86.440       75.417     8850.663     7471.871     5687.715        3.017        1.101      193.757       47.019        0.059      342.839       18.527      863.406
10/17/2013  13:58:00      146.428     -167.660       -2.058       76.778      109.796       59.157     5894.849    12055.249     3499.578        3.550        1.072      222.601       74.660        0.112      342.633       18.177      863.413
10/17/2013  13:59:00      135.417     -164.002      -23.964       83.600       98.074       61.530     6988.890     9618.435     3785.892        3.310        1.020      212.684       61.441        0.083      342.671       18.241      863.395
10/17/2013  14:00:00      213.218     -281.457      -74.206       53.879       66.318       34.561     2902.969     4398.029     1194.486        6.934        0.425      353.101       24.986        0.005      342.420       17.813      863.368
10/17/2013  14:01:00      178.952     -286.157      -31.588       89.679       84.642       38.497     8042.360     7164.304     1481.988        6.580        0.834      337.505       53.071        0.025      342.341       17.678      863.369
10/17/2013  14:02:00      123.386      -62.074       37.140       56.744       85.275       59.843     3219.932     7271.773     3581.232        1.726        0.704      138.121       59.572        0.186      342.549       18.036      863.379
10/17/2013  14:03:00       37.044        3.759       45.771       51.143       55.803       35.795     2615.622     3113.939     1281.287        0.524        0.351       37.235       36.697        0.971      342.891       18.617      863.385
10/17/2013  14:04:00       20.413      -36.657       22.381       28.684       60.568       41.554      822.766     3668.500     1726.740        0.424        0.311       41.957       34.418        0.673      342.883       18.605      863.394
10/17/2013  14:05:00       37.028      -35.913       -8.747       24.189       20.918       18.674      585.109      437.583      348.716        0.205        0.069       51.583        8.475        0.027      342.786       18.440      863.394
10/17/2013  14:06:00       -9.737       38.424        0.726       34.202       33.105       22.786     1169.785     1095.912      519.199        0.218        0.139       39.639       18.224        0.211      343.154       19.066      863.384
10/17/2013  14:07:00       40.896       60.011       -3.690       35.522       54.719       28.020     1261.816     2994.145      785.143        0.516        0.252       72.621       22.788        0.098      342.860       18.566      863.391
10/17/2013  14:08:00       42.992       36.573        8.422       21.770       17.909       25.578      473.942      320.729      654.246        0.235        0.072       56.444       15.088        0.071      342.772       18.415      863.400
10/17/2013  14:09:00       19.410       24.224       31.401       35.096       30.257       32.252     1231.751      915.481     1040.201        0.257        0.159       31.041       28.587        0.848      343.354       19.405      863.395
10/17/2013  14:10:00       73.515       35.756       10.782       96.802       65.395       38.846     9370.706     4276.537     1509.019        1.098        0.758       81.749       35.010        0.183      343.092       18.960      863.383
10/17/2013  14:11:00      109.444      105.234       98.953       71.236       65.920       58.971     5074.551     4345.444     3477.617        2.287        0.645      151.829       46.549        0.094      343.070       18.921      863.379
10/17/2013  14:12:00       89.466       60.899       31.300       62.763      104.433       52.251     3939.156    10906.274     2730.192        1.513        0.879      108.226       18.410        0.029      342.852       18.550      863.375
10/17/2013  14:13:00       39.878       13.231       24.547       52.193       69.937       33.023     2724.107     4891.155     1090.539        0.554        0.435       42.016       12.017        0.082      343.012       18.824      863.352
10/17/2013  14:14:00       63.508       97.421      125.036       73.184       70.377       45.862     5355.868     4952.953     2103.313        2.078        0.621      116.294       44.850        0.149      342.927       18.678      863.341
10/17/2013  14:15:00       46.408        9.498       47.515       67.101       69.834       41.598     4502.545     4876.759     1730.378        0.780        0.555       47.370       44.778        0.894      343.185       19.118      863.327
10/17/2013  14:16:00       57.363       51.566       23.849       49.760       42.464       32.530     2476.096     1803.154     1058.208        0.593        0.267       77.133       16.146        0.044      343.301       19.317      863.320
10/17/2013  14:17:00       76.793      -18.080       43.803       90.104       87.793       72.978     8118.685     7707.615     5325.784        1.464        1.058       78.892       59.714        0.573      343.353       19.405      863.305
10/17/2013  14:18:00      158.439     -179.002        1.509       88.673      111.740       57.369     7862.821    12485.754     3291.236        4.039        1.182      239.049       76.220        0.102      343.035       18.860      863.298
10/17/2013  14:19:00      215.626     -268.567      -44.457       75.397       65.568       46.225     5684.734     4299.165     2136.709        6.636        0.606      344.417       37.915        0.012      342.764       18.399      863.273
10/17/2013  14:20:00      140.286     -160.341        5.480       77.091      127.954       60.802     5943.053    16372.147     3696.925        3.571        1.301      213.048       81.176        0.145      343.005       18.810      863.265
10/17/2013  14:21:00       63.728      -65.177       69.013       93.168      176.676      108.710     8680.205    31214.247    11817.964        3.238        2.586       91.155      128.366        1.983      343.343       19.386      863.226
10/17/2013  14:22:00      115.981      103.637       88.614       89.269       68.319       74.115     7969.032     4667.465     5493.011        2.508        0.906      155.539       56.816        0.133      343.331       19.365      863.240
10/17/2013  14:23:00      146.566      177.513       -6.826       83.258      101.363       64.983     6931.934    10274.400     4222.846        3.723        1.071      230.201       55.990        0.059      343.092       18.958      863.275
10/17/2013  14:24:00      126.944       65.294       12.527       34.264       54.061       57.372     1174.046     2922.601     3291.537        1.396        0.369      142.752       33.147        0.054      342.693       18.281      863.303
10/17/2013  14:25:00      117.533       67.146       23.794       90.259       77.329       78.093     8146.753     5979.835     6098.497        1.955        1.011      135.361       53.842        0.158      342.752       18.379      863.278
10/17/2013  14:26:00      -33.091       -0.782        0.294       31.897       50.337       23.285     1017.389     2533.831      542.213        0.259        0.205       33.100       15.308        0.214      343.008       18.817      863.254
10/17/2013  14:27:00       28.557      -59.678       17.908       45.198       86.653       45.206     2042.851     7508.735     2043.602        0.814        0.580       66.159       58.949        0.794      342.951       18.720      863.237
10/17/2013  14:28:00       89.383       66.071       83.513       64.861       50.152       39.919     4206.949     2515.225     1593.545        1.382        0.416      111.151       39.404        0.126      342.955       18.727      863.244
10/17/2013  14:29:00       37.956       40.324       67.175       64.028       66.790       41.517     4099.565     4460.894     1723.691        0.893        0.514       55.378       37.053        0.448      343.356       19.410      863.227
10/17/2013  14:30:00       50.441      -93.962       15.272       46.963       87.605       39.547     2205.535     7674.569     1563.986        1.152        0.572      106.645       33.712        0.100      343.371       19.436      863.216
10/17/2013  14:31:00       31.260       19.954       51.559       37.110       46.861       26.429     1377.170     2195.975      698.467        0.415        0.214       37.086       25.818        0.485      343.602       19.830      863.208
10/17/2013  14:32:00      114.642       80.781       33.895       70.304       43.540       49.145     4942.588     1895.723     2415.257        1.503        0.463      140.244       40.591        0.084      343.336       19.376      863.220
10/17/2013  14:33:00       95.439       75.677        8.966       89.380       56.859       49.669     7988.718     3232.948     2466.976        1.430        0.684      121.802       22.705        0.035      343.225       19.186      863.224
10/17/2013  14:34:00       64.721       -7.690       17.811       46.659       59.231       30.861     2177.030     3508.281      952.380        0.560        0.332       65.176       22.422        0.118      343.290       19.297      863.222
10/17/2013  14:35:00      175.820       96.059       14.658       83.259       74.960       53.890     6932.057     5619.068     2904.138        2.790        0.773      200.350       25.004        0.016      343.223       19.180      863.214
10/17/2013  14:36:00       82.604       56.706       -6.688       41.975       59.710       43.149     1761.914     3565.231     1861.846        0.864        0.359      100.194       26.194        0.068      343.232       19.199      863.238
10/17/2013  14:37:00       27.987      200.866      -20.749       65.986      154.015       56.555     4354.128    23720.593     3198.482        3.641        1.564      202.806       71.436        0.124      343.231       19.196      863.245
10/17/2013  14:38:00       50.579      248.836      -41.557       64.938       75.403       39.894     4216.916     5685.555     1591.500        3.885        0.575      253.924       35.843        0.020      342.963       18.737      863.266
10/17/2013  14:39:00       24.211       90.006       15.363       57.549       61.414       39.442     3311.858     3771.640     1555.709        0.878        0.432       93.205       21.035        0.051      343.254       19.237      863.260
10/17/2013  14:40:00      107.557      105.067        1.669       77.172       53.060       44.598     5955.549     2815.340     1988.950        1.668        0.538      150.358       31.341        0.043      342.950       18.718      863.262
10/17/2013  14:41:00       -9.870       -6.973        9.046       21.094       24.332       25.538      444.976      592.048      652.185        0.096        0.084       12.085       18.807        2.422      343.190       19.127      863.235
10/17/2013  14:42:00       29.444       45.613        6.073       54.754       35.436       34.024     2998.027     1255.688     1157.609        0.420        0.271       54.290       21.896        0.163      343.140       19.042      863.213
10/17/2013  14:43:00       83.407       59.386       26.652       83.266       56.152       46.767     6933.237     3153.036     2187.118        1.173        0.614      102.388       21.467        0.044      343.460       19.587      863.193
10/17/2013  14:44:00      128.559      118.795       54.721       94.617       59.604       67.774     8952.436     3552.651     4593.271        2.536        0.855      175.042       39.032        0.050      343.419       19.515      863.182
10/17/2013  14:45:00      134.507       85.621       94.566      119.674      107.174       68.721    14321.929    11486.235     4722.599        3.244        1.527      159.446       75.897        0.227      343.266       19.253      863.198
10/17/2013  14:46:00       97.914       82.606      102.938       96.601       78.654       66.050     9331.736     6186.524     4362.655        2.344        0.994      128.105       54.298        0.180      343.146       19.051      863.199
10/17/2013  14:47:00       96.710      130.678       86.810       68.215       50.603       55.880     4653.308     2560.637     3122.563        2.215        0.517      162.572       44.338        0.074      343.256       19.239      863.206
10/17/2013  14:48:00      101.054       75.251       17.346       89.820       62.197       47.628     8067.550     3868.467     2268.389        1.519        0.710      125.994       18.616        0.022      343.165       19.083      863.209
10/17/2013  14:49:00       71.463       95.006       23.323       41.007       45.799       46.626     1681.541     2097.554     2173.987        1.031        0.298      118.883       32.202        0.073      343.267       19.258      863.217
10/17/2013  14:50:00       40.284       63.471        8.615       38.339       45.442       38.469     1469.875     2064.987     1479.900        0.537        0.251       75.175       31.936        0.180      343.076       18.932      863.212
10/17/2013  14:51:00       33.652       40.875       29.092       25.304       25.737       30.407      640.294      662.398      924.595        0.294        0.111       52.945       19.139        0.131      343.153       19.064      863.199
10/17/2013  14:52:00       71.372       56.398       36.768       48.483       36.278       33.007     2350.581     1316.129     1089.493        0.719        0.238       90.965       33.155        0.133      343.321       19.350      863.183
10/17/2013  14:53:00       16.658       17.976       47.856       52.680       58.846       45.026     2775.208     3462.871     2027.302        0.558        0.413       24.508       40.311        2.705      343.800       20.168      863.176
10/17/2013  14:54:00       13.674       -4.846       48.084       39.658       59.082       40.120     1572.770     3490.704     1609.584        0.460        0.334       14.507       43.755        9.097      343.771       20.117      863.170
10/17/2013  14:55:00       54.715      -17.280       61.034       67.035       83.982       64.032     4493.646     7052.916     4100.063        1.133        0.782       57.379       63.817        1.237      343.709       20.011      863.158
10/17/2013  14:56:00      180.725       35.165       94.302      138.978      115.316       71.910    19314.928    13297.782     5171.053        4.028        1.889      184.115       68.186        0.137      343.329       19.361      863.132
10/17/2013  14:57:00      168.445      141.706      168.535      105.386      104.341       68.310    11106.236    10886.988     4666.288        5.175        1.333      220.123       69.612        0.100      343.129       19.018      863.127
10/17/2013  14:58:00      187.396      157.471      111.348      107.858       90.046       80.918    11633.435     8108.325     6547.713        4.930        1.314      244.774       64.634        0.070      343.030       18.850      863.137
10/17/2013  14:59:00      128.954       72.708       89.414       73.463       55.553       56.713     5396.809     3086.179     3216.324        2.080        0.585      148.039       38.644        0.068      343.080       18.938      863.166
10/17/2013  15:00:00       35.632       -2.670       22.272       58.142       69.679       52.013     3380.508     4855.104     2705.385        0.636        0.547       35.732       55.525        2.415      343.161       19.077      863.168
10/17/2013  15:01:00       -7.021        8.574       -6.702       30.033       32.187       18.932      901.998     1035.992      358.429        0.123        0.115       11.082        9.673        0.762      343.061       18.908      863.137
10/17/2013  15:02:00      -39.552       58.272       -1.918       26.883       26.383       18.866      722.682      696.086      355.924        0.337        0.089       70.427        8.718        0.015      343.227       19.191      863.119
10/17/2013  15:03:00        3.822       24.735       17.482       37.039       21.902       46.060     1371.874      479.715     2121.507        0.245        0.199       25.028       18.418        0.542      343.408       19.500      863.128
10/17/2013  15:04:00       47.553      -95.085        5.660       64.539      104.357       55.907     4165.304    10890.314     3125.538        1.475        0.909      106.312       71.724        0.455      343.546       19.732      863.132
10/17/2013  15:05:00       88.918     -144.338      -14.454       79.911       71.320       47.496     6385.827     5086.506     2255.904        2.134        0.686      169.528       49.985        0.087      343.022       18.839      863.122
10/17/2013  15:06:00       45.885     -117.561      -15.252       59.279       41.576       34.392     3513.996     1728.558     1182.784        1.129        0.321      126.199       32.443        0.066      343.220       19.179      863.119
10/17/2013  15:07:00       49.538     -101.779      -10.502       63.723       67.885       38.671     4060.683     4608.419     1495.450        1.154        0.508      113.195       44.991        0.158      343.218       19.175      863.113
10/17/2013  15:08:00       -7.911       31.020       43.066       21.878       38.453       31.185      478.654     1478.622      972.534        0.290        0.146       32.013       30.517        0.909      343.580       19.791      863.098
10/17/2013  15:09:00       19.102        5.610       30.286       23.703       27.076       28.349      561.821      733.130      803.649        0.171        0.105       19.909       18.908        0.902      343.802       20.170      863.103
10/17/2013  15:10:00       91.536      103.730      120.088       99.560       89.915       76.956     9912.196     8084.747     5922.265        2.874        1.196      138.343       72.801        0.277      343.288       19.291      863.094
10/17/2013  15:11:00      243.059      196.351       95.324      144.659       77.403      103.061    20926.176     5991.233    10621.625        7.212        1.877      312.460       92.842        0.088      343.157       19.066      863.034
10/17/2013  15:12:00      151.284      103.933       26.580       86.685       75.044       62.781     7514.262     5631.651     3941.458        2.574        0.854      183.545       28.280        0.024      343.416       19.509      863.063
10/17/2013  15:13:00      125.076       64.359       61.651       97.925       67.600       65.403     9589.222     4569.721     4277.521        2.101        0.922      140.663       49.848        0.126      343.439       19.550      863.052
10/17/2013  15:14:00       85.428       32.888       82.897       86.776       87.178       51.592     7530.080     7600.036     2661.772        1.652        0.890       91.540       60.583        0.438      343.138       19.037      863.050
10/17/2013  15:15:00       78.840       53.567       59.185       76.340       62.055       48.857     5827.796     3850.777     2386.961        1.232        0.603       95.316       38.799        0.166      343.269       19.261      863.054
10/17/2013  15:16:00       53.512       52.344       72.908       67.957       62.458       47.632     4618.148     3901.001     2268.795        1.085        0.539       74.856       54.009        0.521      343.450       19.568      863.067
10/17/2013  15:17:00       52.145       28.977       20.503       70.636       45.272       25.814     4989.397     2049.515      666.353        0.584        0.385       59.655       11.055        0.034      343.584       19.797      863.076
10/17/2013  15:18:00      109.361       69.371       40.084       75.685       58.452       62.009     5728.168     3416.609     3845.110        1.568        0.649      129.507       33.719        0.068      343.576       19.785      863.074
10/17/2013  15:19:00      159.860      119.467       26.350      115.799       88.145       63.341    13409.336     7769.577     4012.036        3.285        1.260      199.569       53.869        0.073      343.458       19.581      863.088
10/17/2013  15:20:00       82.939      145.670       12.361      123.259       78.044       64.239    15192.867     6090.932     4126.586        2.683        1.271      167.626       73.852        0.194      343.413       19.504      863.088
10/17/2013  15:21:00        3.558      105.036      -11.904       59.835       77.615       42.065     3580.283     6024.128     1769.504        1.128        0.569      105.096       48.245        0.211      343.529       19.704      863.088
10/17/2013  15:22:00       -3.907      119.650      -11.889       56.131       48.861       40.484     3150.735     2387.355     1638.990        1.082        0.359      119.714       40.143        0.112      343.345       19.391      863.078
10/17/2013  15:23:00      213.364      123.334       27.611       72.707       55.544       45.432     5286.354     3085.165     2064.042        3.596        0.522      246.445       17.836        0.005      343.462       19.588      863.067
10/17/2013  15:24:00      143.190      104.455        6.237      106.379       70.286       51.397    11316.558     4940.100     2641.605        2.517        0.945      177.241       23.524        0.018      343.546       19.733      863.074
10/17/2013  15:25:00      156.471      124.497       19.923       85.290       58.490       55.539     7274.350     3421.111     3084.538        2.708        0.689      199.957       35.674        0.032      343.415       19.508      863.061
10/17/2013  15:26:00      130.652      125.142        7.036       91.208       69.022       60.917     8318.855     4763.998     3710.855        2.478        0.840      180.916       39.267        0.047      343.381       19.450      863.058
10/17/2013  15:27:00      163.190      125.296       16.388       81.097       63.303       49.727     6576.664     4007.318     2472.725        2.783        0.653      205.743       35.958        0.031      343.423       19.522      863.059
10/17/2013  15:28:00      203.039      167.980       22.313       83.735       58.241       68.073     7011.506     3392.000     4633.901        4.249        0.752      263.518       39.320        0.022      343.333       19.365      863.057
10/17/2013  15:29:00      168.752      115.010       57.907       85.395       55.574       65.429     7292.344     3088.457     4281.001        2.986        0.733      204.216       20.180        0.010      343.520       19.686      863.037
10/17/2013  15:30:00      102.199       67.432       25.842       69.462       67.415       43.112     4824.978     4544.752     1858.618        1.344        0.561      122.440       28.766        0.055      343.633       19.880      863.052
10/17/2013  15:31:00      139.081       77.800       25.688       84.987       63.376       50.463     7222.737     4016.493     2546.531        1.992        0.689      159.363       11.623        0.005      343.506       19.664      863.060
10/17/2013  15:32:00      227.170      175.982       26.251      114.470       87.503       64.279    13103.479     7656.721     4131.794        5.407        1.245      287.360       43.642        0.023      343.226       19.186      863.067
10/17/2013  15:33:00      218.964      111.243       62.245       75.481       78.846       62.817     5697.444     6216.744     3945.976        4.002        0.793      245.602       35.767        0.021      343.342       19.383      863.053
10/17/2013  15:34:00      112.858       55.406      102.238      115.283       82.301       66.871    13290.240     6773.529     4471.759        2.539        1.227      125.725       70.063        0.311      343.386       19.460      863.015
10/17/2013  15:35:00      118.334       99.327       79.478       67.706       63.872       69.683     4584.106     4079.646     4855.761        2.185        0.676      154.496       46.042        0.089      343.609       19.839      863.032
10/17/2013  15:36:00      147.453      100.903       84.893      130.316       89.437       73.642    16982.240     7998.932     5423.071        3.476        1.520      178.672       62.673        0.123      343.629       19.873      863.033
10/17/2013  15:37:00      107.557      137.476       12.109       84.705       65.448       50.868     7174.985     4283.436     2587.588        2.233        0.702      174.551       35.531        0.041      343.463       19.591      863.066
10/17/2013  15:38:00       60.495      190.959      -17.255       86.470      116.635       60.271     7477.147    13603.633     3632.591        3.256        1.236      200.312       63.794        0.101      343.363       19.421      863.065
10/17/2013  15:39:00     -109.889      332.449      -53.165       64.756       96.630       42.866     4193.394     9337.413     1837.491        7.039        0.768      350.139       39.255        0.013      343.255       19.234      863.068
10/17/2013  15:40:00      -26.694      240.438      -39.423       78.861      103.416       44.425     6219.026    10694.767     1973.594        3.948        0.944      241.915       49.350        0.042      343.387       19.460      863.067
10/17/2013  15:41:00      103.634       85.021       28.807      100.328       85.838       53.719    10065.717     7368.170     2885.686        1.956        1.016      134.047       43.396        0.105      343.568       19.771      863.067
10/17/2013  15:42:00       93.542      142.294       -3.274       87.396      124.483       64.787     7638.067    15496.002     4197.345        2.817        1.367      170.287       63.126        0.137      343.475       19.612      863.073
10/17/2013  15:43:00      102.392      238.162      -23.994      101.575      113.157       80.582    10317.419    12804.610     6493.498        4.869        1.481      259.239       74.541        0.083      343.182       19.110      863.081
10/17/2013  15:44:00       54.634      199.606      -29.907       92.714       84.155       55.343     8595.978     7082.034     3062.801        3.123        0.937      206.948       49.853        0.058      343.164       19.080      863.091
10/17/2013  15:45:00      -78.030      271.801      -49.040      104.653      102.449       42.264    10952.321    10495.788     1786.270        5.280        1.162      282.779       40.009        0.020      343.289       19.292      863.102
10/17/2013  15:46:00       -8.169      195.840      -36.977       60.173       51.263       26.331     3620.785     2627.931      693.331        2.336        0.347      196.010       22.344        0.013      343.188       19.123      863.102
10/17/2013  15:47:00     -148.980       94.469      -34.066       52.202       55.615       32.823     2725.096     3092.986     1077.326        1.959        0.345      176.407       32.698        0.034      343.324       19.353      863.066
10/17/2013  15:48:00      -54.207       91.771      -22.419       89.842       58.193       19.563     8071.519     3386.410      382.719        1.185        0.592      106.585       14.530        0.019      343.208       19.158      863.061
10/17/2013  15:49:00      141.394      133.703       17.555      102.840       66.011       50.107    10575.983     4357.512     2510.673        2.781        0.872      194.599       16.479        0.007      343.281       19.280      863.073
10/17/2013  15:50:00      141.453      115.234       28.251       79.485       56.162       47.903     6317.891     3154.170     2294.687        2.292        0.588      182.450       43.120        0.056      343.164       19.080      863.071
10/17/2013  15:51:00      131.282       96.227       29.505       54.493       49.534       35.509     2969.527     2453.637     1260.906        1.702        0.334      162.772       24.275        0.022      343.173       19.097      863.063
10/17/2013  15:52:00       85.605       54.499       30.750       80.207       56.877       45.115     6433.224     3235.048     2035.350        1.147        0.585      101.481       31.071        0.094      343.385       19.459      863.054
10/17/2013  15:53:00       83.785       95.541       53.135       77.630       45.514       55.015     6026.420     2071.539     3026.690        1.505        0.556      127.075       50.247        0.156      343.394       19.474      863.051
10/17/2013  15:54:00      167.378      127.636        9.860      110.114       67.416       51.152    12125.161     4544.967     2616.528        3.184        0.964      210.490       37.802        0.032      343.476       19.611      863.057
10/17/2013  15:55:00      123.960      111.740        7.670       95.257       61.307       53.839     9073.990     3758.523     2898.633        2.182        0.787      166.889       46.047        0.076      343.363       19.420      863.062
10/17/2013  15:56:00      187.263       82.748       28.878      115.350       97.184       79.410    13305.648     9444.720     6305.958        3.590        1.453      204.730       54.257        0.070      343.323       19.352      863.053
10/17/2013  15:57:00      157.339      107.553       41.887      144.216       96.756       50.025    20798.191     9361.757     2502.493        3.536        1.633      190.586       25.615        0.018      343.444       19.557      863.054
10/17/2013  15:58:00      253.248      152.877        6.990      141.183       99.192       72.381    19932.512     9838.979     5238.969        6.128        1.751      295.814       36.304        0.015      343.306       19.321      863.045
10/17/2013  15:59:00       85.661       68.736        6.059       85.734       76.989       33.949     7350.386     5927.255     1152.545        1.326        0.722      109.829       13.933        0.016      343.198       19.140      863.061
10/17/2013  16:00:00       83.880       60.877       11.236       72.594       50.984       41.054     5269.941     2599.413     1685.399        1.021        0.478      103.643       28.484        0.076      343.222       19.180      863.049
10/17/2013  16:01:00      105.552      129.407       -2.824       84.203       86.961       52.589     7090.222     7562.158     2765.620        2.265        0.871      166.995       50.292        0.091      343.203       19.147      863.053
10/17/2013  16:02:00       48.329       27.004       18.086       47.861       36.426       30.470     2290.629     1326.886      928.414        0.397        0.227       55.362       19.993        0.130      343.396       19.479      863.045
10/17/2013  16:03:00      249.176      123.652       30.622      103.494      110.967       70.675    10711.044    12313.643     4994.939        5.316        1.401      278.170       52.432        0.036      343.205       19.149      863.048
10/17/2013  16:04:00      286.813      199.396       31.008       51.989       41.597       45.930     2702.833     1730.329     2109.529        6.476        0.327      349.314       13.092        0.001      343.096       18.962      863.056
10/17/2013  16:05:00       97.686       57.066       47.269       95.430       67.285       35.526     9106.835     4527.306     1262.101        1.496        0.745      113.133       37.028        0.107      343.439       19.550      863.046
10/17/2013  16:06:00      197.666      114.686       38.379       92.584       97.170       58.088     8571.856     9442.072     3374.243        3.754        1.069      228.527       32.877        0.021      343.431       19.535      863.033
10/17/2013  16:07:00       68.605       69.731       45.658       57.269       63.153       48.581     3279.687     3988.289     2360.150        1.064        0.481       97.822       25.565        0.068      343.462       19.588      863.040
10/17/2013  16:08:00      108.273      108.673       82.926      105.289       66.954       65.439    11085.855     4482.879     4282.255        2.513        0.993      153.404       57.784        0.142      343.412       19.503      863.030
10/17/2013  16:09:00       98.678       70.138       49.480       72.720       62.559       63.334     5288.270     3913.580     4011.202        1.516        0.661      121.065       45.335        0.140      343.336       19.375      863.029
10/17/2013  16:10:00        7.093       32.205       63.793       42.064       37.123       34.632     1769.392     1378.129     1199.346        0.475        0.217       32.976       27.383        0.690      343.714       20.020      863.026
10/17/2013  16:11:00        8.732       20.191       44.377       27.851       28.182       22.490      775.699      794.241      505.787        0.226        0.104       21.998       15.244        0.480      343.646       19.904      863.012
10/17/2013  16:12:00       49.824       -9.178       14.407       39.688       42.938       26.740     1575.131     1843.634      715.033        0.345        0.207       50.663       28.530        0.317      343.532       19.709      862.998
10/17/2013  16:13:00       21.585        1.021       22.038       28.844       40.384       25.404      831.997     1630.894      645.360        0.203        0.155       21.609       23.501        1.183      343.560       19.758      862.987
10/17/2013  16:14:00       35.381       12.397       28.790       40.341       71.879       51.321     1627.368     5166.635     2633.888        0.583        0.471       37.490       52.790        1.983      343.439       19.551      862.988
10/17/2013  16:15:00       51.506       21.294       19.542       33.249       49.307       32.548     1105.492     2431.185     1059.356        0.404        0.230       55.734       22.751        0.167      343.536       19.717      862.982
10/17/2013  16:16:00       47.956       42.522        7.065       71.868       52.833       34.927     5164.966     2791.306     1219.886        0.667        0.459       64.093       35.343        0.304      343.583       19.797      862.985
10/17/2013  16:17:00      145.920      128.906       27.271       90.422       72.126       66.579     8176.188     5202.186     4432.746        2.823        0.891      194.703       47.114        0.059      343.413       19.504      862.981
10/17/2013  16:18:00      165.102      111.735       19.307       62.472       52.191       47.597     3902.812     2723.927     2265.439        2.450        0.445      199.357       35.487        0.032      343.286       19.289      862.983
10/17/2013  16:19:00      105.297       31.652       29.914       89.860       54.507       43.912     8074.795     2971.063     1928.271        1.298        0.649      109.952       38.472        0.122      343.416       19.512      862.978
10/17/2013  16:20:00       94.914       77.469       67.026       60.066       53.644       46.081     3607.964     2877.693     2123.456        1.405        0.430      122.516       37.667        0.095      343.404       19.492      862.978
10/17/2013  16:21:00      122.515       70.367       -5.425       44.429       48.066       28.032     1973.980     2310.359      785.819        1.253        0.254      141.285       10.059        0.005      343.284       19.288      862.984
10/17/2013  16:22:00       -0.977        8.451       42.918       26.765       46.890       44.780      716.347     2198.663     2005.253        0.342        0.246        8.507       40.597       22.772      343.596       19.818      862.972
10/17/2013  16:23:00       25.919       23.463       28.394       32.820       27.579       26.314     1077.150      760.617      692.417        0.228        0.127       34.961       15.901        0.207      343.450       19.571      862.971
10/17/2013  16:24:00       62.538       89.631      -11.555       36.405       37.416       23.303     1325.352     1399.978      543.027        0.767        0.163      109.292       21.142        0.037      343.310       19.330      862.981
10/17/2013  16:25:00       28.437       23.528        2.147       26.101       29.858       22.154      681.286      891.516      490.788        0.171        0.103       36.909       15.100        0.167      343.417       19.513      862.986
10/17/2013  16:26:00       42.306       27.735       31.977       63.189       42.454       38.678     3992.787     1802.375     1495.959        0.544        0.365       50.587       23.924        0.224      343.495       19.647      862.979
10/17/2013  16:27:00      109.601       58.669       41.965       51.836       47.711       41.443     2686.952     2276.342     1717.554        1.195        0.334      124.316       23.627        0.036      343.582       19.796      862.969
10/17/2013  16:28:00      108.071       19.240       19.766       82.540       50.164       26.494     6812.905     2516.396      701.925        1.123        0.502      109.770       22.260        0.041      343.508       19.669      862.969
10/17/2013  16:29:00       -3.463       -6.038       17.037       22.317       14.240       13.599      498.047      202.784      184.926        0.061        0.044        6.961       10.676        2.352      343.652       19.913      862.961
10/17/2013  16:30:00       16.059       20.005        0.383       26.194       20.113       13.373      686.117      404.551      178.850        0.096        0.063       25.653       12.940        0.254      343.441       19.554      862.952
10/17/2013  16:31:00       57.346       48.520       50.069       49.561       34.275       34.586     2456.287     1174.749     1196.221        0.649        0.241       75.118       35.924        0.229      343.496       19.647      862.961
10/17/2013  16:32:00       57.952       36.440       27.031       53.984       42.316       27.877     2914.262     1790.673      777.118        0.545        0.274       68.457       25.664        0.141      343.501       19.654      862.972
10/17/2013  16:33:00       73.642      136.315      -22.353       66.020       67.601       25.646     4358.682     4569.933      657.715        1.704        0.479      154.935       28.290        0.033      343.485       19.630      862.974
10/17/2013  16:34:00       53.389      121.157       -9.443       69.620       95.371       48.772     4847.004     9095.621     2378.756        1.697        0.816      132.399       45.856        0.120      343.557       19.750      862.967
10/17/2013  16:35:00       43.829       44.510       -9.001       50.544       66.418       38.985     2554.698     4411.376     1519.801        0.623        0.424       62.467       35.284        0.319      343.584       19.797      862.955
10/17/2013  16:36:00       32.370       21.484       -2.714       39.219       44.322       25.784     1538.141     1964.453      664.811        0.284        0.208       38.850       25.433        0.429      343.529       19.703      862.948
10/17/2013  16:37:00       68.910       46.163       11.477       62.247       49.287       24.019     3874.637     2429.178      576.892        0.694        0.344       82.944       20.074        0.059      343.421       19.519      862.949
10/17/2013  16:38:00       53.336       92.313       -8.029       38.823       39.888       28.379     1507.256     1591.019      805.379        0.767        0.195      106.613       17.837        0.028      343.316       19.341      862.955
10/17/2013  16:39:00       28.952       42.026        4.327       37.624       32.806       21.614     1415.598     1076.227      467.186        0.279        0.148       51.033       16.523        0.105      343.523       19.694      862.951
10/17/2013  16:40:00       49.965       44.835        9.910       37.297       31.629       29.890     1391.072     1000.418      893.418        0.394        0.164       67.131       18.882        0.079      343.415       19.511      862.957
10/17/2013  16:41:00      166.389      118.382       17.068       80.560       72.095       48.239     6489.968     5197.648     2326.975        2.800        0.701      204.204       27.264        0.018      343.365       19.422      862.960
10/17/2013  16:42:00      146.365      117.608       11.389       83.713       63.080       54.551     7007.935     3979.062     2975.834        2.467        0.698      187.762       42.618        0.052      343.388       19.462      862.950
10/17/2013  16:43:00      140.080       84.858       21.992       56.124       57.390       45.607     3149.915     3293.603     2079.958        1.791        0.426      163.778       26.675        0.027      343.374       19.439      862.955
10/17/2013  16:44:00      138.651       83.855        7.226       83.249       58.594       46.355     6930.358     3433.264     2148.783        1.941        0.626      162.036       26.105        0.026      343.256       19.238      862.952
10/17/2013  16:45:00       96.170       90.790       29.401       44.988       46.093       49.160     2023.962     2124.536     2416.745        1.246        0.328      132.255       34.737        0.069      343.369       19.432      862.940
10/17/2013  16:46:00       31.903       76.168       88.864       43.935       36.017       24.474     1930.271     1297.235      598.970        0.927        0.191       82.579       22.109        0.072      343.441       19.555      862.934
10/17/2013  16:47:00       50.832       80.395       62.119       58.040       43.836       48.144     3368.669     1921.631     2317.799        1.026        0.380       95.117       36.762        0.149      343.387       19.463      862.924
10/17/2013  16:48:00       14.712       46.862       77.930       44.534       74.688       49.730     1983.264     5578.366     2473.097        0.926        0.502       49.117       47.868        0.950      343.542       19.726      862.910
10/17/2013  16:49:00       10.314       14.103       50.890       39.675       57.338       37.394     1574.094     3287.614     1398.306        0.458        0.313       17.472       29.336        2.819      343.476       19.615      862.894
10/17/2013  16:50:00       50.145        4.562       12.450       50.857       46.758       35.059     2586.405     2186.268     1229.105        0.435        0.300       50.352       24.964        0.246      343.474       19.611      862.902
10/17/2013  16:51:00      180.737      104.084       19.156       94.296       77.986       60.732     8891.803     6081.745     3688.407        3.126        0.933      208.565       33.087        0.025      343.459       19.582      862.897
10/17/2013  16:52:00      186.101       98.509       19.765       68.530       71.188       42.276     4696.301     5067.785     1787.270        2.814        0.578      210.565       18.210        0.007      343.472       19.605      862.904
10/17/2013  16:53:00      166.829       91.178       38.204       73.776       60.799       45.417     5442.887     3696.530     2062.701        2.440        0.560      190.119       28.138        0.022      343.340       19.381      862.892
10/17/2013  16:54:00      156.256      117.524       44.235       89.457       84.050       69.456     8002.507     7064.445     4824.151        3.003        0.995      195.520       39.391        0.041      343.369       19.428      862.876
10/17/2013  16:55:00      100.555      100.785       59.551      113.711       86.059       87.001    12930.111     7406.078     7569.258        2.586        1.395      142.369       78.334        0.303      343.491       19.638      862.870
10/17/2013  16:56:00      180.649      134.782       24.953      141.017       67.247       65.260    19885.800     4522.159     4258.881        4.004        1.433      225.389       41.164        0.033      343.368       19.428      862.891
10/17/2013  16:57:00      150.193      175.876        1.100      113.201       97.920       66.161    12814.547     9588.413     4377.220        4.013        1.339      231.280       53.249        0.053      343.351       19.398      862.889
10/17/2013  16:58:00      154.429       87.627       39.709      123.076       61.877       46.462    15147.794     3828.760     2158.703        2.712        1.057      177.558       38.041        0.046      343.411       19.500      862.871
10/17/2013  16:59:00       32.109       37.415       32.997       91.206       52.755       53.612     8318.556     2783.112     2874.269        0.875        0.699       49.304       28.203        0.327      343.476       19.614      862.874
10/17/2013  17:00:00      137.477      118.276       16.868       70.410       65.569       61.106     4957.582     4299.273     3733.944        2.308        0.650      181.353       38.329        0.045      343.428       19.530      862.887
10/17/2013  17:01:00      117.579       81.667       61.577      109.096       66.632       70.216    11901.944     4439.774     4930.340        2.278        1.064      143.158       63.785        0.199      343.346       19.390      862.861
10/17/2013  17:02:00      186.781      104.120       31.205       64.964       65.543       47.852     4220.332     4295.880     2289.804        2.875        0.540      213.842       18.700        0.008      343.363       19.419      862.860
10/17/2013  17:03:00      210.036      141.650       29.174       66.613       71.103       46.956     4437.296     5055.612     2204.821        3.836        0.585      253.337       20.744        0.007      343.324       19.351      862.847
10/17/2013  17:04:00      161.448      108.472       17.981       81.254       54.107       55.205     6602.241     2927.610     3047.551        2.536        0.629      194.503       45.337        0.054      343.238       19.207      862.833
10/17/2013  17:05:00      143.543       98.957       20.066       72.351       49.514       44.582     5234.699     2451.669     1987.543        2.024        0.484      174.347       34.975        0.040      343.345       19.390      862.822
10/17/2013  17:06:00      137.164       78.103       28.252       87.979       55.414       37.772     7740.223     3070.760     1426.704        1.897        0.612      157.841       27.105        0.029      343.448       19.565      862.819
10/17/2013  17:07:00      168.081      101.158       37.561      111.483       86.835       51.971    12428.382     7540.314     2701.033        3.128        1.133      196.174       41.149        0.044      343.409       19.499      862.815
10/17/2013  17:08:00      174.563      125.350       23.669      103.602       76.710       60.330    10733.402     5884.466     3639.729        3.350        1.013      214.907       38.179        0.032      343.351       19.400      862.825
10/17/2013  17:09:00      109.387      125.923        0.440       87.581       88.189       55.561     7670.505     7777.226     3086.990        2.318        0.927      166.800       50.873        0.093      343.312       19.332      862.839
10/17/2013  17:10:00       87.679      120.145      -16.681       81.644       65.144       42.677     6665.708     4243.681     1821.287        1.756        0.637      148.737       37.264        0.063      343.282       19.282      862.835
10/17/2013  17:11:00       56.404      172.958      -19.020       69.488      118.930       45.114     4828.633    14144.433     2035.240        2.723        1.050      181.923       56.630        0.097      343.333       19.368      862.831
10/17/2013  17:12:00       49.858      193.232      -37.155       56.920       94.706       42.182     3239.924     8969.210     1779.340        2.759        0.699      199.561       42.020        0.044      343.330       19.363      862.827
10/17/2013  17:13:00       74.374       78.890        8.165       60.497       52.826       37.372     3659.947     2790.587     1396.644        0.983        0.392      108.421       33.044        0.093      343.334       19.371      862.832
10/17/2013  17:14:00       58.944      180.952      -24.992       51.472       92.358       48.274     2649.380     8529.914     2330.367        2.517        0.675      190.310       47.217        0.062      343.242       19.215      862.830
10/17/2013  17:15:00      162.509      126.851       12.626       94.450       71.316       47.619     8920.802     5086.004     2267.612        2.946        0.814      206.156       17.050        0.007      343.225       19.186      862.836
10/17/2013  17:16:00       95.139       74.777       12.090       71.179       42.918       41.414     5066.434     1841.949     1715.078        1.170        0.431      121.009       26.097        0.047      343.222       19.180      862.841
10/17/2013  17:17:00      117.909       77.440       11.923       64.740       46.283       46.151     4191.328     2142.141     2129.933        1.425        0.423      141.065       21.747        0.024      343.232       19.198      862.841
10/17/2013  17:18:00       63.981       27.633       25.754       78.778       51.465       42.096     6205.988     2648.649     1772.062        0.807        0.531       69.693       32.789        0.221      343.240       19.212      862.832
10/17/2013  17:19:00      187.815      126.936       26.546      111.417       81.704       66.524    12413.852     6675.515     4425.476        3.780        1.176      226.687       26.827        0.014      343.212       19.162      862.822
10/17/2013  17:20:00      194.183      123.966       39.957      103.289       82.517       65.110    10668.720     6809.126     4239.339        3.819        1.086      230.379       36.506        0.025      343.173       19.096      862.814
10/17/2013  17:21:00      181.906      132.599       26.083       95.409       71.230       58.902     9102.829     5073.766     3469.437        3.450        0.882      225.105       30.174        0.018      343.158       19.070      862.824
10/17/2013  17:22:00      148.401      114.858       32.356       80.535       60.114       53.338     6485.890     3613.709     2844.926        2.460        0.647      187.657       23.528        0.016      343.181       19.110      862.820
10/17/2013  17:23:00      104.570       77.177       22.736       72.789       66.174       49.221     5298.282     4378.977     2422.703        1.475        0.605      129.966       40.353        0.096      343.176       19.102      862.822
10/17/2013  17:24:00      172.923      116.204       26.229       85.140       71.904       47.122     7248.778     5170.161     2220.519        2.936        0.732      208.340       19.683        0.009      343.134       19.030      862.816
10/17/2013  17:25:00      134.429      102.400       14.465       88.978       57.933       50.606     7917.128     3356.218     2560.985        2.130        0.692      168.988       26.821        0.025      343.112       18.992      862.824
10/17/2013  17:26:00      147.129      102.166       14.595       67.333       47.682       40.096     4533.707     2273.586     1607.664        2.035        0.421      179.122       10.071        0.003      343.111       18.990      862.832
10/17/2013  17:27:00      118.809       67.929        7.558       51.897       56.003       41.905     2693.306     3136.351     1756.046        1.319        0.379      136.858       33.118        0.059      343.145       19.049      862.837
10/17/2013  17:28:00       92.705      136.702       10.179       65.603       86.379       65.637     4303.772     7461.381     4308.254        2.173        0.804      165.172       57.370        0.121      343.137       19.036      862.840
10/17/2013  17:29:00      108.860      103.903       17.339       69.355       59.626       50.979     4810.169     3555.203     2598.903        1.695        0.548      150.487       39.078        0.067      343.116       19.000      862.840
10/17/2013  17:30:00      116.067       79.580       19.691       84.651       54.430       41.736     7165.782     2962.679     1741.874        1.603        0.594      140.729       14.091        0.010      343.126       19.017      862.827
10/17/2013  17:31:00       65.123       63.747       -3.447       46.665       48.198       33.439     2177.654     2323.055     1118.134        0.697        0.281       91.130       18.916        0.043      343.132       19.029      862.832
10/17/2013  17:32:00      101.317       68.057       17.880       51.049       53.040       46.729     2606.041     2813.218     2183.563        1.141        0.380      122.053       33.703        0.076      343.147       19.054      862.833
10/17/2013  17:33:00       56.942       36.876       16.853       52.498       30.352       30.883     2756.041      921.232      953.766        0.476        0.232       67.840       15.961        0.055      343.141       19.043      862.834
10/17/2013  17:34:00       45.221       70.317       -0.031       53.583       51.712       32.006     2871.086     2674.156     1024.388        0.678        0.328       83.603       23.098        0.076      343.099       18.973      862.836
10/17/2013  17:35:00       45.743       74.640       -4.193       64.218       57.648       43.857     4123.998     3323.278     1923.403        0.852        0.469       87.542       22.394        0.065      343.090       18.957      862.835
10/17/2013  17:36:00       95.527      171.617      -19.216       74.107       87.386       43.335     5491.915     7636.274     1877.885        2.697        0.750      196.412       41.174        0.044      343.078       18.935      862.835
10/17/2013  17:37:00      133.326      129.898       11.551       81.126       68.165       66.329     6581.427     4646.406     4399.561        2.520        0.781      186.143       48.638        0.068      343.003       18.808      862.832
10/17/2013  17:38:00      128.766       98.903       15.635      108.702       83.502       53.487    11816.142     6972.536     2860.860        2.412        1.082      162.365       29.238        0.032      342.976       18.761      862.831
10/17/2013  17:39:00       86.972       82.922       11.434       64.988       49.356       43.231     4223.431     2436.057     1868.887        1.155        0.426      120.167       34.905        0.084      342.959       18.734      862.842
10/17/2013  17:40:00       70.481       96.156        3.146       62.563       74.421       47.047     3914.180     5538.558     2213.411        1.294        0.583      119.221       41.814        0.123      342.984       18.775      862.845
10/17/2013  17:41:00       72.922      209.929      -38.499       46.290       58.525       29.824     2142.719     3425.191      889.442        2.866        0.323      222.233       28.641        0.017      343.024       18.843      862.860
10/17/2013  17:42:00       93.149      129.819        0.986       78.029       87.992       51.106     6088.587     7742.674     2611.846        2.098        0.822      159.780       48.984        0.094      342.982       18.772      862.873
10/17/2013  17:43:00       64.299      134.339      -13.026       62.710       60.937       43.718     3932.547     3713.290     1911.240        1.595        0.478      148.934       34.648        0.054      342.999       18.801      862.881
10/17/2013  17:44:00       49.893      109.344        4.334       74.172       69.094       45.782     5501.504     4773.974     2095.971        1.342        0.619      120.189       40.440        0.113      342.971       18.753      862.886
10/17/2013  17:45:00       44.814       71.058      -13.549       68.869       71.632       33.461     4742.905     5131.092     1119.648        0.912        0.550       84.009       35.923        0.183      342.960       18.735      862.892
10/17/2013  17:46:00       35.450       69.860      -11.038       54.451       64.572       35.587     2964.943     4169.584     1266.406        0.733        0.420       78.339       28.952        0.137      342.915       18.659      862.887
10/17/2013  17:47:00       52.377       98.570      -12.103       49.273       68.469       31.968     2427.804     4687.970     1021.943        1.037        0.407      111.622       35.250        0.100      342.909       18.646      862.900
10/17/2013  17:48:00       60.576      105.534       -3.189       54.282       79.732       44.921     2946.487     6357.185     2017.910        1.307        0.566      121.684       36.629        0.091      342.913       18.656      862.908
10/17/2013  17:49:00       85.292       90.849        5.902       65.738       65.466       45.401     4321.506     4285.804     2061.247        1.311        0.533      124.613       41.966        0.113      342.898       18.630      862.907
10/17/2013  17:50:00      102.103      101.609       15.609       68.321       60.625       53.139     4667.764     3675.364     2823.753        1.608        0.558      144.046       43.576        0.092      342.840       18.529      862.903
10/17/2013  17:51:00       75.303      115.847       -2.216       54.420       80.120       48.955     2961.541     6419.235     2396.625        1.543        0.589      138.170       41.472        0.090      342.809       18.478      862.907
10/17/2013  17:52:00       56.939      119.538      -13.383       36.533       52.214       32.895     1334.636     2726.331     1082.066        1.143        0.257      132.406       28.453        0.046      342.779       18.426      862.905
10/17/2013  17:53:00       96.724       83.655       14.196       54.264       49.234       37.004     2944.633     2424.017     1369.315        1.165        0.337      127.882       21.840        0.029      342.750       18.379      862.907
10/17/2013  17:54:00      103.634       78.560       -3.226       56.019       54.646       41.247     3138.074     2986.224     1701.339        1.237        0.391      130.045       32.875        0.064      342.747       18.373      862.912
10/17/2013  17:55:00       99.908       91.813       11.220       75.547       62.912       53.195     5707.275     3957.929     2829.665        1.551        0.625      135.688       40.858        0.091      342.768       18.408      862.920
10/17/2013  17:56:00       50.770       53.715        7.595       51.997       41.615       32.992     2703.721     1731.796     1088.458        0.552        0.276       73.911       16.315        0.049      342.644       18.198      862.927
10/17/2013  17:57:00      114.125       61.269       12.486       50.998       48.896       39.107     2600.821     2390.834     1529.356        1.173        0.326      129.532        7.083        0.003      342.585       18.097      862.930
10/17/2013  17:58:00       32.762      105.384      -22.078       49.924       83.145       34.064     2492.390     6913.167     1160.343        1.161        0.528      110.359       38.334        0.121      342.602       18.126      862.935
10/17/2013  17:59:00       71.335       64.535        3.108       52.647       35.179       32.760     2771.700     1237.558     1073.213        0.717        0.254       96.195       17.222        0.032      342.519       17.987      862.935
10/17/2013  18:00:00       98.577      130.344        3.822       51.812       88.503       50.874     2684.472     7832.741     2588.122        1.991        0.655      163.423       47.642        0.085      342.615       18.146      862.939
10/17/2013  18:01:00       76.518      161.119      -24.672       71.517       78.332       46.587     5114.666     6135.934     2170.340        2.292        0.671      178.366       40.108        0.051      342.594       18.111      862.940
10/17/2013  18:02:00       68.855       79.926      -10.857       40.811       56.483       32.474     1665.571     3190.290     1054.533        0.858        0.296      105.495       31.953        0.092      342.515       17.978      862.940
10/17/2013  18:03:00       41.758      124.853      -12.665       41.466       74.254       33.630     1719.435     5513.695     1130.960        1.293        0.418      131.651       41.536        0.100      342.508       17.967      862.936
10/17/2013  18:04:00       58.986      153.674      -28.000       47.619       61.312       32.154     2267.533     3759.118     1033.856        1.747        0.353      164.605       30.710        0.035      342.501       17.954      862.943
10/17/2013  18:05:00       25.572       96.036       -8.335       36.626       57.660       30.331     1341.482     3324.670      919.984        0.777        0.279       99.382       30.302        0.093      342.446       17.863      862.943
10/17/2013  18:06:00       57.417      143.951       -3.904       69.525       72.184       50.371     4833.733     5210.489     2537.230        1.831        0.629      154.980       43.408        0.078      342.423       17.822      862.955
10/17/2013  18:07:00       44.672      173.177      -21.252       63.763       77.708       42.800     4065.711     6038.529     1831.813        2.218        0.597      178.846       44.579        0.062      342.390       17.763      862.954
10/17/2013  18:08:00       77.154      191.066      -17.537       64.566      112.209       59.425     4168.799    12590.762     3531.331        3.153        1.015      206.055       62.512        0.092      342.408       17.796      862.958
10/17/2013  18:09:00       42.491      151.161      -26.706       36.274       79.907       32.922     1315.832     6385.170     1083.839        1.708        0.439      157.020       35.341        0.051      342.375       17.738      862.963
10/17/2013  18:10:00       45.265       96.115      -14.430       39.529       69.699       31.329     1562.569     4857.889      981.493        0.945        0.370      106.240       34.124        0.103      342.323       17.650      862.970
10/17/2013  18:11:00       42.989      137.421       -6.588       56.618       82.916       43.795     3205.638     6875.048     1918.010        1.639        0.600      143.988       50.150        0.121      342.318       17.642      862.989
10/17/2013  18:12:00       37.161      209.613      -33.720       57.992       76.979       36.097     3363.114     5925.794     1302.966        2.852        0.530      212.881       40.073        0.035      342.332       17.665      862.999
10/17/2013  18:13:00       65.535      158.992      -17.141       53.141       95.993       43.395     2823.963     9214.598     1883.155        2.189        0.696      171.969       51.851        0.091      342.245       17.518      863.006
10/17/2013  18:14:00       54.154      125.432       -7.280       50.566       51.513       41.253     2556.879     2653.638     1701.812        1.281        0.346      136.623       30.778        0.051      342.187       17.422      863.023
10/17/2013  18:15:00       52.991      134.964       -8.280       42.679       68.791       46.936     1821.511     4732.250     2203.021        1.492        0.438      144.994       47.721        0.108      342.188       17.423      863.039
10/17/2013  18:16:00       34.449       84.536        3.852       41.613       47.602       34.938     1731.662     2265.992     1220.643        0.678        0.261       91.286       31.017        0.115      342.127       17.319      863.045
10/17/2013  18:17:00       12.780      113.267      -10.394       45.726       62.722       37.687     2090.875     3934.085     1420.300        1.027        0.372      113.986       34.503        0.092      342.122       17.309      863.067
10/17/2013  18:18:00       10.835      160.310      -26.589       39.208       60.616       25.931     1537.267     3674.249      672.442        1.620        0.294      160.676       32.919        0.042      342.164       17.381      863.067
10/17/2013  18:19:00        4.895      206.393      -38.617       51.236       52.771       22.960     2625.114     2784.807      527.158        2.502        0.297      206.451       19.006        0.008      342.202       17.444      863.071
10/17/2013  18:20:00       24.665      241.381      -41.324       40.894       57.818       33.139     1672.349     3342.944     1098.174        3.335        0.306      242.637       36.172        0.022      342.223       17.480      863.068
10/17/2013  18:21:00      -18.684      191.714      -35.390       55.565       50.368       26.369     3087.468     2536.902      695.336        2.234        0.316      192.622       25.772        0.018      342.254       17.533      863.070
10/17/2013  18:22:00       -6.945      184.958      -38.876       47.727       71.921       24.618     2277.876     5172.631      606.022        2.191        0.403      185.088       30.692        0.027      342.224       17.482      863.072
10/17/2013  18:23:00      -20.176      168.779      -27.286       48.873       41.113       29.421     2388.601     1690.247      865.601        1.729        0.247      169.980       23.478        0.019      342.181       17.410      863.069
10/17/2013  18:24:00      -68.300      153.035      -26.817       45.857       69.378       33.872     2102.847     4813.280     1147.311        1.843        0.403      167.584       38.640        0.053      342.201       17.444      863.076
10/17/2013  18:25:00      -32.638      185.175      -33.839       47.035       40.306       22.173     2212.255     1624.558      491.659        2.041        0.216      188.029       19.465        0.011      342.170       17.390      863.076
10/17/2013  18:26:00      -55.883      227.829      -35.568       40.340       60.709       30.229     1627.325     3685.634      913.767        3.126        0.311      234.582       32.161        0.019      342.171       17.389      863.089
10/17/2013  18:27:00       -9.161      183.095      -40.093       52.037       40.595       22.167     2707.851     1647.968      491.359        2.003        0.242      183.324       12.714        0.005      342.134       17.330      863.095
10/17/2013  18:28:00      -60.863      145.606      -26.797       52.265       61.524       27.631     2731.614     3785.174      763.459        1.645        0.364      157.814       32.648        0.043      342.131       17.326      863.113
10/17/2013  18:29:00      -60.006      164.110      -29.888       38.521       39.627       26.356     1483.876     1570.276      694.661        1.759        0.187      174.736       23.504        0.018      342.083       17.244      863.120
10/17/2013  18:30:00      -82.695      144.289      -29.342       54.493       56.301       35.976     2969.460     3169.807     1294.254        1.797        0.372      166.306       31.541        0.036      342.082       17.243      863.122
10/17/2013  18:31:00      -57.124       99.676      -17.352       46.446       47.723       27.894     2157.190     2277.468      778.102        0.936        0.261      114.884       21.022        0.033      342.092       17.259      863.125
10/17/2013  18:32:00      -78.033      125.358      -21.790       37.909       56.180       25.208     1437.128     3156.182      635.445        1.375        0.261      147.661       28.226        0.037      342.120       17.307      863.137
10/17/2013  18:33:00      -70.421      132.685      -22.599       55.265       63.457       32.911     3054.274     4026.741     1083.134        1.562        0.408      150.215       37.419        0.062      342.104       17.279      863.152
10/17/2013  18:34:00      -50.927       99.803      -21.980       51.980       43.863       24.529     2701.915     1923.966      601.683        0.913        0.261      112.045       20.547        0.034      342.127       17.318      863.173
10/17/2013  18:35:00      -97.003      102.831      -28.473       50.772       38.621       24.149     2577.783     1491.554      583.151        1.272        0.233      141.364       22.064        0.024      342.098       17.270      863.182
10/17/2013  18:36:00     -114.350       65.454      -27.129       38.201       38.833       25.748     1459.301     1507.965      662.940        1.086        0.182      131.758       24.167        0.034      342.161       17.376      863.199
10/17/2013  18:37:00      -66.527       44.134      -12.796       37.618       52.451       20.927     1415.111     2751.108      437.944        0.557        0.230       79.835       25.140        0.099      342.167       17.387      863.209
10/17/2013  18:38:00     -129.162       88.286      -27.697       39.056       36.240       22.049     1525.351     1313.302      486.167        1.428        0.166      156.452       10.982        0.005      341.992       17.089      863.221
10/17/2013  18:39:00     -137.550       87.682      -38.003       33.173       42.218       23.994     1100.454     1782.353      575.723        1.575        0.173      163.120       17.484        0.011      341.987       17.083      863.231
10/17/2013  18:40:00     -122.579       67.715      -26.306       32.493       34.859       27.092     1055.773     1215.126      733.955        1.165        0.150      140.039       18.464        0.017      342.003       17.109      863.244
10/17/2013  18:41:00     -143.671       78.110      -17.703       51.162       51.639       36.196     2617.524     2666.578     1310.173        1.682        0.330      163.531       33.581        0.042      341.992       17.088      863.252
10/17/2013  18:42:00     -136.625       73.167      -28.869       38.673       52.290       23.834     1495.563     2734.233      568.069        1.482        0.240      154.983       22.032        0.020      341.846       16.842      863.261
10/17/2013  18:43:00     -108.395       50.174       -9.198       42.925       34.037       29.026     1842.537     1158.536      842.505        0.910        0.192      119.445       27.358        0.052      341.973       17.059      863.273
10/17/2013  18:44:00     -118.420       77.252      -11.584       48.288       40.345       31.748     2331.713     1627.679     1007.937        1.255        0.248      141.391       20.264        0.021      341.827       16.810      863.280
10/17/2013  18:45:00      -92.589       44.696      -13.895       44.658       45.362       27.219     1994.366     2057.678      740.886        0.778        0.240      102.813       22.615        0.048      341.878       16.897      863.285
10/17/2013  18:46:00     -107.454       37.279      -30.876       43.350       62.591       32.590     1879.189     3917.618     1062.114        1.037        0.343      113.737       35.125        0.095      341.835       16.824      863.293
10/17/2013  18:47:00     -159.572       71.471      -31.421       44.545       70.637       30.759     1984.294     4989.611      946.088        1.974        0.396      174.847       33.408        0.037      341.783       16.734      863.301
10/17/2013  18:48:00     -110.499       51.539      -15.284       42.895       51.672       28.121     1839.941     2670.044      790.792        1.020        0.265      121.927       20.376        0.028      341.646       16.502      863.314
10/17/2013  18:49:00     -156.495       64.480      -21.692       40.497       58.078       29.531     1639.968     3373.103      872.088        1.750        0.294      169.258       16.625        0.010      341.559       16.355      863.333
10/17/2013  18:50:00     -127.223       47.572       -7.817       52.367       53.480       34.635     2742.253     2860.114     1199.575        1.265        0.340      135.827       26.507        0.038      341.577       16.387      863.341
10/17/2013  18:51:00     -141.040       16.351       -1.475       51.381       50.721       37.640     2639.958     2572.585     1416.791        1.339        0.331      141.984       31.074        0.048      341.644       16.499      863.349
10/17/2013  18:52:00     -198.560       78.763      -38.634       68.955       68.290       36.830     4754.744     4663.497     1356.465        2.895        0.539      213.611       38.054        0.032      341.422       16.122      863.365
10/17/2013  18:53:00     -193.847       56.448      -13.690       71.765       72.005       46.003     5150.256     5184.700     2116.271        2.670        0.623      201.899       38.966        0.037      341.430       16.135      863.374
10/17/2013  18:54:00     -172.476       64.330      -22.138       68.564       68.165       42.525     4701.070     4646.526     1808.376        2.276        0.558      184.083       42.129        0.052      341.372       16.036      863.380
10/17/2013  18:55:00     -155.602       93.906      -18.237       82.186       69.936       52.899     6754.565     4891.020     2798.322        2.390        0.722      181.742       47.372        0.068      341.281       15.883      863.391
10/17/2013  18:56:00     -178.008      104.562      -23.340       69.202       64.856       44.210     4788.906     4206.324     1954.561        2.706        0.547      206.446       30.383        0.022      341.281       15.883      863.385
10/17/2013  18:57:00     -206.286      129.815      -32.060       72.017       91.688       47.195     5186.443     8406.736     2227.365        3.812        0.791      243.733       44.465        0.033      341.307       15.924      863.381
10/17/2013  18:58:00     -146.672      129.499      -36.045       52.244       58.831       39.430     2729.477     3461.089     1554.688        2.366        0.387      195.660       33.412        0.029      341.347       15.994      863.385
10/17/2013  18:59:00     -142.034      127.203      -23.706       61.120       97.780       44.858     3735.708     9560.845     2012.219        2.611        0.765      190.669       48.542        0.065      341.344       15.990      863.386
10/17/2013  19:00:00     -222.525      176.430      -50.422       63.545       70.230       45.469     4037.945     4932.271     2067.418        4.711        0.552      283.980       26.482        0.009      341.363       16.020      863.392
10/17/2013  19:01:00     -241.347      197.265      -52.697       72.503      103.148       51.901     5256.621    10639.458     2693.686        5.926        0.929      311.708       51.126        0.027      341.348       15.993      863.394
10/17/2013  19:02:00     -199.700      142.600      -39.657       69.866      110.117       49.690     4881.273    12125.700     2469.083        4.063        0.974      245.387       55.724        0.052      341.387       16.061      863.404
10/17/2013  19:03:00     -186.969      119.354      -34.457       90.371       91.699       49.139     8166.838     8408.734     2414.624        3.469        0.950      221.817       46.221        0.043      341.339       15.980      863.397
10/17/2013  19:04:00     -173.181      162.338      -36.736       71.021       72.644       46.089     5043.937     5277.142     2124.197        3.507        0.622      237.372       29.451        0.015      341.298       15.911      863.403
10/17/2013  19:05:00     -170.515      215.597      -42.250       69.834       84.535       46.529     4876.795     7146.082     2164.945        4.576        0.709      274.877       46.802        0.029      341.259       15.846      863.412
10/17/2013  19:06:00     -170.555      152.608      -28.379       75.257      100.195       52.780     5663.596    10039.048     2785.694        3.583        0.924      228.863       56.420        0.061      341.286       15.889      863.429
10/17/2013  19:07:00     -187.216      171.852      -25.862       81.119       82.219       52.404     6580.213     6759.965     2746.142        4.067        0.804      254.132       41.157        0.026      341.232       15.798      863.436
10/17/2013  19:08:00     -202.471      217.362      -44.083       92.720       79.606       58.210     8596.924     6337.053     3388.426        5.425        0.916      297.053       62.198        0.044      341.205       15.753      863.441
10/17/2013  19:09:00     -235.108      221.943      -51.245       90.300       82.259       52.834     8154.170     6766.479     2791.428        6.243        0.886      323.318       49.577        0.024      341.216       15.769      863.461
10/17/2013  19:10:00     -191.426      226.905      -40.757       72.961       93.411       54.586     5323.284     8725.622     2979.595        5.341        0.851      296.867       50.354        0.029      341.162       15.680      863.469
10/17/2013  19:11:00     -204.562      186.848      -48.325       84.465       86.992       42.580     7134.330     7567.639     1813.026        4.780        0.826      277.052       34.235        0.015      341.225       15.786      863.481
10/17/2013  19:12:00     -182.296      156.674      -31.312       68.131       91.241       45.733     4641.853     8324.841     2091.538        3.691        0.753      240.371       36.498        0.023      341.198       15.741      863.484
10/17/2013  19:13:00     -218.475      264.507      -58.927      100.407       90.745       52.011    10081.505     8234.586     2705.139        7.109        1.051      343.068       55.516        0.026      341.176       15.705      863.500
10/17/2013  19:14:00     -189.738      230.598      -51.096       60.726       78.117       52.778     3687.653     6102.330     2785.553        5.218        0.629      298.623       44.075        0.022      341.158       15.673      863.512
10/17/2013  19:15:00     -174.068      137.697      -35.287       77.277       64.351       35.874     5971.665     4140.988     1286.930        3.095        0.570      221.946       39.950        0.032      341.146       15.654      863.521
10/17/2013  19:16:00     -184.158      252.482      -49.990       67.623       87.138       43.151     4572.931     7592.968     1862.030        5.709        0.701      312.508       41.598        0.018      341.129       15.622      863.536
10/17/2013  19:17:00     -184.142      229.043      -48.556       84.451      123.190       49.843     7132.042    15175.871     2484.335        5.676        1.240      293.886       63.347        0.046      341.102       15.578      863.559
10/17/2013  19:18:00     -185.744      220.193      -53.547       70.998       85.753       43.709     5040.781     7353.650     1910.461        5.008        0.715      288.073       46.214        0.026      341.062       15.511      863.568
10/17/2013  19:19:00     -201.777      192.449      -28.220       90.619       85.530       52.957     8211.857     7315.379     2804.486        4.844        0.917      278.838       47.090        0.029      341.056       15.500      863.586
10/17/2013  19:20:00     -170.768      196.504      -31.950       90.190       93.197       49.658     8134.182     8685.737     2465.926        4.404        0.964      260.337       55.611        0.046      341.045       15.482      863.604
10/17/2013  19:21:00     -183.526      202.943      -41.420       85.756       99.749       45.235     7354.081     9949.884     2046.222        4.796        0.968      273.620       49.570        0.033      341.039       15.472      863.624
10/17/2013  19:22:00     -111.466      137.870       -4.974       59.237       87.771       43.908     3508.997     7703.825     1927.909        2.230        0.657      177.293       34.787        0.038      340.997       15.403      863.637
10/17/2013  19:23:00     -121.922      211.309      -22.942       62.530       96.303       61.015     3910.033     9274.283     3722.820        3.847        0.845      243.960       52.436        0.046      340.966       15.347      863.652
10/17/2013  19:24:00     -145.110      153.666      -20.720       68.808       74.104       49.427     4734.488     5491.462     2443.007        2.888        0.633      211.353       50.269        0.057      340.948       15.318      863.659
10/17/2013  19:25:00     -144.649      174.141      -34.378       66.219       65.000       44.617     4384.919     4224.946     1990.660        3.151        0.530      226.381       40.339        0.032      340.921       15.272      863.674
10/17/2013  19:26:00     -134.381      149.727      -22.728       53.984       58.201       40.465     2914.219     3387.413     1637.385        2.446        0.397      201.187       37.377        0.035      340.920       15.271      863.683
10/17/2013  19:27:00     -132.028      161.679      -20.823       65.955       88.872       41.251     4350.031     7898.154     1701.674        2.898        0.697      208.738       42.081        0.041      340.906       15.248      863.698
10/17/2013  19:28:00     -160.284      181.447      -37.709       95.576      100.251       49.760     9134.839    10050.257     2476.009        4.084        1.083      242.103       56.809        0.055      340.901       15.238      863.712
10/17/2013  19:29:00     -179.779      144.782      -36.996       78.174       75.091       42.460     6111.116     5638.654     1802.813        3.410        0.678      230.830       43.085        0.035      340.930       15.289      863.712
10/17/2013  19:30:00     -118.238      164.102      -24.791       85.422       73.965       57.004     7296.933     5470.754     3249.452        2.877        0.801      202.261       52.853        0.068      340.922       15.275      863.733
10/17/2013  19:31:00     -146.485      133.747      -32.729       57.829       58.794       39.174     3344.212     3456.734     1534.603        2.438        0.417      198.359       36.527        0.034      340.974       15.362      863.741
10/17/2013  19:32:00     -118.835      204.539      -35.107       52.471       46.264       29.510     2753.225     2140.377      870.828        3.148        0.288      236.554       23.876        0.010      340.945       15.311      863.760
10/17/2013  19:33:00     -158.961      178.781      -35.466       71.687       79.392       44.801     5139.033     6303.163     2007.166        3.597        0.672      239.230       47.068        0.039      340.916       15.264      863.776
10/17/2013  19:34:00     -157.124      174.124      -30.520       85.086       91.944       53.071     7239.594     8453.681     2816.574        3.722        0.925      234.536       54.550        0.054      340.930       15.286      863.781
10/17/2013  19:35:00     -160.790      218.484      -47.539       76.160       78.183       47.621     5800.303     6112.633     2267.732        4.501        0.709      271.272       53.392        0.039      340.952       15.324      863.789
10/17/2013  19:36:00     -110.121      116.901      -17.778       69.813       57.870       39.017     4873.851     3348.891     1522.321        1.793        0.487      160.600       28.467        0.031      340.939       15.305      863.802
10/17/2013  19:37:00     -170.145      189.201      -42.885       61.925       80.176       47.394     3834.715     6428.251     2246.202        3.955        0.625      254.453       39.293        0.024      340.915       15.261      863.815
10/17/2013  19:38:00     -148.938      191.480      -37.490       56.228       64.712       43.082     3161.625     4187.632     1856.019        3.473        0.460      242.584       38.253        0.025      340.913       15.258      863.820
10/17/2013  19:39:00     -124.846      172.268      -29.666       56.496       77.277       42.164     3191.822     5971.708     1777.783        2.854        0.547      212.751       34.887        0.027      340.892       15.224      863.836
10/17/2013  19:40:00     -146.095      178.906      -37.548       72.980       65.790       38.364     5326.050     4328.273     1471.774        3.294        0.556      230.979       43.418        0.035      340.865       15.177      863.844
10/17/2013  19:41:00     -182.937      170.891      -39.967       69.826       96.723       46.693     4875.692     9355.258     2180.270        4.034        0.821      250.340       42.091        0.028      340.909       15.253      863.854
10/17/2013  19:42:00     -174.941      162.512      -39.410       77.093       76.428       46.412     5943.288     5841.214     2154.035        3.625        0.697      238.777       42.525        0.032      340.902       15.240      863.855
10/17/2013  19:43:00     -148.057      151.755      -22.778       57.934       74.196       40.528     3356.346     5505.069     1642.488        2.798        0.525      212.015       31.954        0.023      340.903       15.242      863.868
10/17/2013  19:44:00     -157.434      136.360      -34.660       60.651       83.433       41.928     3678.557     6961.084     1757.961        2.849        0.620      208.277       33.646        0.026      340.873       15.191      863.867
10/17/2013  19:45:00     -180.389      257.514      -49.797       75.723       77.944       55.435     5733.901     6075.326     3073.036        5.811        0.744      314.410       50.425        0.026      340.942       15.306      863.885
10/17/2013  19:46:00     -152.239      133.211      -27.955       66.488       73.852       35.426     4420.718     5454.191     1255.023        2.641        0.556      202.292       34.705        0.029      340.874       15.193      863.880
10/17/2013  19:47:00     -177.333      148.222      -38.544       71.700       94.357       50.585     5140.843     8903.196     2558.832        3.575        0.830      231.121       32.763        0.020      340.947       15.315      863.903
10/17/2013  19:48:00     -176.502      197.314      -40.961       71.624       73.200       45.973     5129.986     5358.239     2113.518        4.218        0.630      264.737       41.260        0.024      340.945       15.312      863.904
10/17/2013  19:49:00     -165.460      158.156      -41.668       79.428       75.173       42.517     6308.781     5650.962     1807.655        3.394        0.688      228.889       46.498        0.041      340.968       15.353      863.917
10/17/2013  19:50:00     -134.397      159.267      -29.976       64.189       79.646       45.485     4120.188     6343.506     2068.877        2.843        0.627      208.396       46.903        0.051      340.922       15.275      863.920
10/17/2013  19:51:00     -134.602      167.406      -29.963       56.305       65.462       39.831     3170.290     4285.274     1586.520        2.804        0.452      214.808       34.206        0.025      340.952       15.325      863.916
10/17/2013  19:52:00     -155.243      173.736      -45.108       53.284       67.057       33.995     2839.197     4496.707     1155.648        3.240        0.425      232.990       38.922        0.028      340.927       15.281      863.916
10/17/2013  19:53:00     -135.238      150.016      -31.469       55.532       64.651       44.063     3083.772     4179.725     1941.545        2.549        0.460      201.976       37.604        0.035      340.949       15.319      863.924
10/17/2013  19:54:00     -108.908      119.260      -19.097       69.316       64.835       32.820     4804.705     4203.576     1077.157        1.827        0.504      161.505       32.672        0.041      340.930       15.290      863.932
10/17/2013  19:55:00      -80.633      141.860      -17.610       61.878       44.312       42.258     3828.886     1963.553     1785.750        1.726        0.379      163.175       41.453        0.065      340.918       15.269      863.930
10/17/2013  19:56:00     -109.282      115.843      -30.440       40.274       36.936       29.685     1621.987     1364.270      881.194        1.508        0.193      159.255       21.333        0.018      340.889       15.222      863.945
10/17/2013  19:57:00      -89.639      105.216      -16.939       75.621       52.148       32.769     5718.506     2719.462     1073.833        1.445        0.476      138.223       36.208        0.069      340.861       15.172      863.938
10/17/2013  19:58:00      -81.621      150.929      -19.417       43.041       50.648       31.968     1852.490     2565.203     1021.931        1.763        0.272      171.585       27.847        0.026      340.872       15.191      863.942
10/17/2013  19:59:00      -85.299       65.383      -19.524       38.905       29.617       17.733     1513.576      877.195      314.469        0.732        0.135      107.475       14.299        0.018      340.862       15.175      863.933
10/17/2013  20:00:00     -110.844      104.717      -25.844       63.366       48.016       33.884     4015.304     2305.506     1148.137        1.569        0.373      152.487       34.932        0.052      340.827       15.114      863.926
10/17/2013  20:01:00      -92.310       29.229       -7.298       53.935       48.808       35.107     2909.001     2382.191     1232.498        0.798        0.326       96.827       35.739        0.136      340.826       15.114      863.919
10/17/2013  20:02:00      -64.515       24.172       -2.275       44.146       51.510       28.792     1948.864     2653.272      829.005        0.509        0.272       68.895       28.873        0.176      340.769       15.018      863.919
10/17/2013  20:03:00     -149.603      110.169      -27.462       71.963       75.141       39.581     5178.622     5646.209     1566.665        2.383        0.620      185.791       47.095        0.064      340.815       15.093      863.914
10/17/2013  20:04:00      -89.840        9.627      -15.005       39.447       60.338       28.435     1556.094     3640.664      808.548        0.720        0.300       90.354       18.764        0.043      340.773       15.027      863.913
10/17/2013  20:05:00     -103.961       84.903       -6.755       60.569       56.347       43.079     3668.627     3175.037     1855.766        1.338        0.435      134.225       41.983        0.098      340.797       15.066      863.934
10/17/2013  20:06:00     -114.912       74.874      -24.114       53.887       44.370       35.016     2903.763     1968.662     1226.113        1.274        0.305      137.152       32.070        0.055      340.788       15.050      863.937
10/17/2013  20:07:00     -117.487       79.131      -23.895       41.579       74.393       27.098     1728.793     5534.333      734.287        1.432        0.400      141.651       29.192        0.042      340.828       15.116      863.945
10/17/2013  20:08:00      -55.779       38.626       -5.449       34.943       52.049       27.406     1221.004     2709.121      751.064        0.466        0.234       67.847       21.207        0.098      340.770       15.019      863.950
10/17/2013  20:09:00      -65.130      -13.333      -10.182       35.402       16.828       19.321     1253.318      283.178      373.316        0.322        0.095       66.481       18.931        0.081      340.757       14.997      863.959
10/17/2013  20:10:00       -0.016      -11.576       12.355       37.973       17.583       21.517     1441.973      309.170      462.999        0.125        0.111       11.576       20.299        3.075      340.529       14.612      863.961
10/17/2013  20:11:00      -41.508       -1.563       -7.620       34.481       20.269       14.180     1188.935      410.842      201.081        0.179        0.090       41.537       10.925        0.069      340.617       14.761      863.980
10/17/2013  20:12:00      -45.578       64.732       -9.665       32.744       45.826       25.943     1072.144     2100.053      673.052        0.510        0.192       79.168       15.366        0.038      340.703       14.907      864.000
10/17/2013  20:13:00      -62.290      -19.497      -11.952       29.888       28.966       20.015      893.311      839.001      400.590        0.327        0.107       65.270       14.299        0.048      340.687       14.879      864.014
10/17/2013  20:14:00      -60.401      -10.123       -5.945       22.994       25.765       16.660      528.706      663.847      277.540        0.263        0.074       61.243       15.386        0.063      340.648       14.812      864.033
10/17/2013  20:15:00      -63.571      -11.650       -7.954       29.945       34.290       15.238      896.731     1175.781      232.188        0.327        0.115       64.630       17.324        0.072      340.694       14.892      864.050
10/17/2013  20:16:00      -72.711       14.295      -14.992       33.037       39.245       18.905     1091.440     1540.154      357.418        0.435        0.149       74.103       13.416        0.033      340.667       14.847      864.076
10/17/2013  20:17:00      -55.231       30.767      -21.555       25.656       42.258       21.263      658.220     1785.746      452.115        0.368        0.145       63.222       13.266        0.044      340.720       14.935      864.095
10/17/2013  20:18:00        4.076        9.473        6.438       37.363       19.524       14.060     1395.992      381.186      197.694        0.106        0.099       10.313        9.196        0.795      340.671       14.853      864.115
10/17/2013  20:19:00       -2.115      -22.836       -1.105       14.959        8.680       12.674      223.775       75.340      160.625        0.049        0.023       22.934        5.305        0.054      340.531       14.618      864.143
10/17/2013  20:20:00        5.201      -44.530      -11.544       20.674       18.610       13.174      427.431      346.335      173.546        0.155        0.047       44.833       12.125        0.073      340.518       14.594      864.159
10/17/2013  20:21:00       19.780      -51.694      -15.029       22.147       18.466       14.926      490.507      340.980      222.790        0.217        0.053       55.349        5.612        0.010      340.471       14.516      864.174
10/17/2013  20:22:00        3.368      -34.210       -5.707       17.838       25.136       18.779      318.212      631.831      352.665        0.126        0.065       34.375        7.997        0.054      340.478       14.527      864.193
10/17/2013  20:23:00      -10.327      -58.259       -6.222       21.639       28.366       18.755      468.249      804.634      351.734        0.258        0.081       59.167       10.951        0.034      340.318       14.255      864.217
10/17/2013  20:24:00       19.314      -55.914      -13.020       24.444       26.337       16.426      597.500      693.649      269.807        0.261        0.078       59.156       10.060        0.029      340.317       14.254      864.227
10/17/2013  20:25:00       20.937      -58.709       -5.848       25.148       27.153       25.403      632.418      737.272      645.301        0.297        0.101       62.331       14.368        0.053      340.345       14.301      864.248
10/17/2013  20:26:00      -15.302      -12.640       -2.856       14.081       34.806       12.571      198.270     1211.442      158.028        0.098        0.078       19.848       13.647        0.473      340.334       14.283      864.278
10/17/2013  20:27:00        0.661       -1.581       -1.701       16.938       16.543        9.595      286.903      273.661       92.064        0.033        0.033        1.713       10.359       36.555      340.356       14.321      864.297
10/17/2013  20:28:00       -6.815        3.083       14.319       11.168       24.245       20.568      124.732      587.803      423.023        0.070        0.057        7.480       18.396        6.049      340.071       13.839      864.314
10/17/2013  20:29:00       -4.699        9.663       42.818       16.384       26.900       16.186      268.448      723.636      261.996        0.160        0.063       10.745       12.124        1.273      339.931       13.602      864.324
10/17/2013  20:30:00       -6.731       16.275       30.090       13.844       23.606       23.513      191.662      557.244      552.872        0.126        0.065       17.612       12.812        0.529      339.976       13.679      864.346
10/17/2013  20:31:00       23.771      -55.269       -2.344       37.174       34.614       22.496     1381.943     1198.151      506.070        0.336        0.154       60.164       25.502        0.180      340.188       14.037      864.360
10/17/2013  20:32:00       46.230      -39.733        3.344       33.669       41.637       17.514     1133.595     1733.603      306.729        0.345        0.159       60.958       22.289        0.134      340.311       14.243      864.373
10/17/2013  20:33:00       22.879      -34.349        9.926       26.726       43.913       21.665      714.293     1928.363      469.369        0.246        0.156       41.271       22.672        0.302      340.146       13.964      864.389
10/17/2013  20:34:00      -31.860      -11.750       -4.881       32.514       22.790       12.317     1057.155      519.395      151.710        0.145        0.086       33.958        7.447        0.048      340.215       14.080      864.400
10/17/2013  20:35:00      -55.998       37.493      -11.646       19.947       18.403       11.439      397.892      338.688      130.862        0.277        0.043       67.391       13.318        0.039      340.066       13.831      864.424
10/17/2013  20:36:00      -57.904       29.808      -13.710       19.372       19.762       11.364      375.282      390.537      129.130        0.266        0.045       65.126       14.935        0.053      340.217       14.085      864.453
10/17/2013  20:37:00      -18.979      -29.053       -1.448       17.144       13.273        6.738      293.924      176.169       45.399        0.086        0.026       34.702        5.506        0.025      340.477       14.525      864.461
10/17/2013  20:38:00       14.593        2.293        8.956       10.319       23.731        7.097      106.488      563.161       50.371        0.051        0.036       14.772        6.901        0.218      340.553       14.654      864.483
10/17/2013  20:39:00       -1.697       -1.503       -0.678       24.027       11.002       11.442      577.314      121.046      130.921        0.042        0.041        2.267        9.135       16.237      340.609       14.747      864.488
10/17/2013  20:40:00      -31.254        8.351       -9.567       24.089       14.571       12.573      580.299      212.309      158.076        0.104        0.048       32.350        8.645        0.071      340.624       14.773      864.497
10/17/2013  20:41:00      -39.225       -1.398        2.601       24.281       20.183       15.511      589.570      407.346      240.589        0.139        0.062       39.250       13.342        0.116      340.673       14.855      864.517
10/17/2013  20:42:00      -25.047       -3.598       10.103       33.986       25.330       14.577     1155.015      641.608      212.482        0.138        0.100       25.305       15.451        0.373      340.591       14.719      864.508
10/17/2013  20:43:00       20.390       69.291       -9.092       20.309       23.968       14.107      412.458      574.454      199.007        0.324        0.059       72.229       11.357        0.025      340.658       14.830      864.509
10/17/2013  20:44:00       47.132       29.754       -2.448       40.430       19.887       20.789     1634.608      395.497      432.178        0.279        0.123       55.738       11.765        0.045      340.237       14.118      864.517
10/17/2013  20:45:00       10.386       52.281       11.118       37.685       55.567       22.268     1420.156     3087.686      495.862        0.398        0.250       53.302       30.260        0.322      340.065       13.829      864.521
10/17/2013  20:46:00      -19.981      127.367      -21.481       30.602       42.892       16.533      936.467     1839.750      273.342        1.007        0.152      128.924       17.889        0.019      340.420       14.427      864.528
10/17/2013  20:47:00       -4.060      116.714      -21.090       21.492       28.873       11.192      461.898      833.643      125.259        0.775        0.071      116.784       14.133        0.015      340.473       14.518      864.542
10/17/2013  20:48:00        3.068      136.530      -30.508       21.662       18.596       11.541      469.242      345.827      133.199        1.026        0.047      136.564        9.236        0.005      340.436       14.455      864.555
10/17/2013  20:49:00       -6.385      132.389      -30.030       30.353       45.042       18.039      921.316     2028.792      325.410        1.087        0.164      132.543       21.884        0.027      340.576       14.692      864.560
10/17/2013  20:50:00      -43.647       91.748      -19.430       27.232       27.149       15.587      741.601      737.043      242.964        0.621        0.086      101.601       12.271        0.015      340.607       14.744      864.569
10/17/2013  20:51:00      -14.745      181.012      -29.283       28.427       31.840       12.995      808.105     1013.781      168.859        1.792        0.100      181.612        9.216        0.003      340.426       14.438      864.582
10/17/2013  20:52:00      -51.988       94.266      -13.946       27.967       32.464       15.463      782.170     1053.937      239.093        0.693        0.104      107.651       12.050        0.013      340.337       14.288      864.576
10/17/2013  20:53:00      -45.864      104.895      -15.737       21.401       31.880       19.137      457.982     1016.349      366.231        0.760        0.092      114.483       16.640        0.021      340.276       14.185      864.587
10/17/2013  20:54:00      -50.701       93.459      -19.523       31.391       29.965       16.670      985.415      897.886      277.880        0.692        0.108      106.325       14.710        0.019      340.477       14.526      864.608
10/17/2013  20:55:00      -46.951       94.720      -25.071       29.569       55.477       17.952      874.331     3077.698      322.257        0.804        0.214      105.718       20.263        0.037      340.353       14.315      864.630
10/17/2013  20:56:00      -64.899      124.971      -20.026       43.585       74.238       17.181     1899.666     5511.291      295.192        1.397        0.385      140.818       18.454        0.017      340.189       14.036      864.645
10/17/2013  20:57:00      -85.547       57.823      -14.695       32.800       40.638       20.361     1075.846     1651.442      414.562        0.701        0.157      103.256       24.457        0.056      340.044       13.793      864.660
10/17/2013  20:58:00     -114.722      137.022      -34.729       24.182       29.462       17.401      584.789      868.008      302.796        1.745        0.088      178.707       10.313        0.003      340.332       14.279      864.670
10/17/2013  20:59:00     -101.860      156.443      -27.681       31.939       36.542       26.339     1020.074     1335.351      693.758        1.933        0.152      186.681       20.245        0.012      340.209       14.070      864.671
10/17/2013  21:00:00      -98.545       84.183      -20.845       32.663       37.388       22.105     1066.867     1397.849      488.631        1.009        0.148      129.607       21.931        0.029      340.145       13.963      864.690
10/17/2013  21:01:00      -77.262      106.231      -22.649       31.874       28.267       19.052     1015.977      799.049      362.965        0.997        0.109      131.356       17.420        0.018      340.206       14.067      864.699
10/17/2013  21:02:00      -74.976       61.568      -14.600       24.684       62.372       16.159      609.287     3890.264      261.102        0.719        0.238       97.016       13.865        0.020      340.114       13.911      864.707
10/17/2013  21:03:00      -87.385       23.514      -14.327       44.048       46.670       21.029     1940.231     2178.075      442.213        0.648        0.228       90.494       18.392        0.041      340.143       13.960      864.722
10/17/2013  21:04:00      -49.172       13.298      -11.947       21.961       30.422       15.622      482.284      925.487      244.053        0.219        0.083       50.938        8.377        0.027      339.999       13.717      864.744
10/17/2013  21:05:00      -28.819      -19.871       -4.062       23.649       19.884       14.717      559.252      395.373      216.596        0.121        0.059       35.006        9.377        0.072      339.963       13.657      864.758
10/17/2013  21:06:00      -59.034      -16.800       -2.620       25.917       19.917       19.104      671.685      396.703      364.949        0.260        0.072       61.378       16.632        0.073      339.390       12.691      864.773
10/17/2013  21:07:00      -14.148      -56.740       -0.306       22.174       26.999       11.737      491.685      728.958      137.749        0.239        0.068       58.478        6.446        0.012      339.533       12.932      864.798
10/17/2013  21:08:00      -17.662      -48.202        4.095       21.599       28.117       18.522      466.503      790.555      343.065        0.213        0.080       51.335       14.618        0.081      339.768       13.327      864.807
10/17/2013  21:09:00      -11.145      -45.013       -0.594       19.820       18.552       16.316      392.831      344.186      266.225        0.158        0.050       46.372       11.933        0.066      339.894       13.539      864.816
10/17/2013  21:10:00       -3.757      -12.509       -7.152       14.535       11.938       13.189      211.271      142.517      173.948        0.037        0.026       13.061        9.952        0.581      339.722       13.250      864.837
10/17/2013  21:11:00       17.244       -5.557        5.115       19.389       16.804       15.539      375.926      282.373      241.472        0.063        0.045       18.117       12.901        0.507      339.692       13.199      864.836
10/17/2013  21:12:00      -29.454       -2.451       -1.933       16.019       14.894       11.313      256.615      221.818      127.984        0.074        0.030       29.556        9.563        0.105      339.620       13.078      864.835
10/17/2013  21:13:00      -36.425      -16.414       -5.338       11.952       16.670       10.896      142.857      277.881      118.733        0.108        0.027       39.953        6.920        0.030      339.481       12.843      864.841
10/17/2013  21:14:00      -81.901      -40.787       -3.116       20.720       17.585       12.409      429.331      309.228      153.972        0.464        0.045       91.495        4.343        0.002      339.383       12.679      864.828
10/17/2013  21:15:00      -86.031      -43.580      -10.508       31.864       29.375       22.483     1015.325      862.887      505.489        0.590        0.119       96.439       19.148        0.039      339.371       12.659      864.813
10/17/2013  21:16:00      -91.208      -49.280        0.872       28.008       27.040       17.666      784.464      731.140      312.097        0.629        0.091      103.670       13.631        0.017      339.327       12.586      864.817
10/17/2013  21:17:00     -109.704      -57.134       -0.323       42.687       23.194       19.157     1822.192      537.981      366.988        0.901        0.136      123.690       19.452        0.025      339.327       12.583      864.831
10/17/2013  21:18:00      -98.539      -28.656       -9.013       15.408       17.786       11.679      237.414      316.356      136.390        0.565        0.035      102.621        3.422        0.001      339.241       12.440      864.839
10/17/2013  21:19:00      -85.697      -38.983       -8.933       11.278       13.155        7.912      127.184      173.062       62.594        0.465        0.018       94.147        4.869        0.003      339.193       12.358      864.867
10/17/2013  21:20:00      -95.160      -14.181      -13.794       13.972       12.545        9.262      195.214      157.366       85.778        0.494        0.022       96.211        5.453        0.003      339.255       12.462      864.884
10/17/2013  21:21:00     -129.744        2.828      -16.038       24.769       19.110       13.405      613.498      365.181      179.688        0.913        0.058      129.775       12.903        0.010      339.129       12.252      864.901
10/17/2013  21:22:00     -111.726      -40.543      -13.838       27.642       20.663       13.858      764.101      426.951      192.044        0.785        0.069      118.855       10.066        0.007      339.102       12.205      864.913
10/17/2013  21:23:00      -99.890      -39.403       -4.562       27.469       22.081       18.061      754.568      487.560      326.209        0.656        0.078      107.381       17.628        0.027      339.087       12.179      864.907
10/17/2013  21:24:00     -125.180      -27.611      -19.100       10.266       10.446        7.799      105.394      109.129       60.827        0.854        0.014      128.189        5.921        0.002      339.055       12.127      864.898
10/17/2013  21:25:00     -154.551      -34.817      -18.943       21.314       24.311       16.211      454.269      591.003      262.786        1.338        0.065      158.424       11.306        0.005      339.059       12.133      864.901
10/17/2013  21:26:00     -147.128      -54.418      -13.803       16.855       21.371        9.952      284.084      456.706       99.044        1.282        0.042      156.869        7.024        0.002      338.821       11.732      864.895
10/17/2013  21:27:00     -102.012      -37.748       -5.666       40.561       36.700       17.765     1645.190     1346.854      315.596        0.758        0.165      108.772       17.013        0.024      338.704       11.536      864.902
10/17/2013  21:28:00      -91.638       -8.707       -8.089       24.292       17.763       15.487      590.122      315.509      239.862        0.484        0.057       92.050       12.250        0.018      338.856       11.791      864.937
10/17/2013  21:29:00     -107.640       -3.607      -17.530       16.139       15.095       13.519      260.466      227.855      182.756        0.629        0.034      107.701        5.627        0.003      339.102       12.206      864.956
10/17/2013  21:30:00      -90.369        4.478       -8.589       18.283       14.796       16.813      334.254      218.927      282.687        0.455        0.042       90.480       11.903        0.017      339.346       12.616      864.991
10/17/2013  21:31:00      -56.614        3.265       -5.252       17.646       21.645        7.924      311.382      468.501       62.795        0.204        0.042       56.708        4.740        0.007      339.391       12.692      865.005
10/17/2013  21:32:00      -34.991      -31.287       -1.895       12.829       14.851        9.482      164.577      220.559       89.908        0.134        0.024       46.939        7.076        0.023      339.386       12.683      865.000
10/17/2013  21:33:00      -49.656      -26.396       -8.917       14.360       15.241        8.591      206.214      232.294       73.799        0.188        0.026       56.236        5.033        0.008      339.613       13.066      865.006
10/17/2013  21:34:00       -9.240      -27.216        1.742       14.237        8.919       15.557      202.688       79.540      242.024        0.068        0.026       28.741        8.935        0.097      339.482       12.846      864.993
10/17/2013  21:35:00      -19.912      -34.358       -0.412       19.951       20.148       14.637      398.045      405.948      214.253        0.130        0.051       39.711        7.699        0.038      339.395       12.699      864.980
10/17/2013  21:36:00      -43.337      -40.367        0.636       21.412       15.728       13.421      458.483      247.371      180.112        0.220        0.044       59.225       14.586        0.061      339.601       13.045      864.962
10/17/2013  21:37:00      -42.939      -29.716       -0.352       29.451       34.247       11.262      867.336     1172.829      126.838        0.245        0.108       52.219       12.924        0.061      339.164       12.309      864.948
10/17/2013  21:38:00      -99.159      -15.377      -12.786       11.322       27.977        8.207      128.196      782.719       67.361        0.561        0.049      100.344        7.132        0.005      339.018       12.064      864.944
10/17/2013  21:39:00     -100.191      -25.405       -7.761       32.837       24.309       15.499     1078.258      590.945      240.217        0.633        0.095      103.362       12.381        0.014      339.048       12.114      864.938
10/17/2013  21:40:00     -130.199      -71.206       -0.141       36.386       23.880       21.525     1323.924      570.234      463.315        1.219        0.118      148.398       17.361        0.014      339.116       12.230      864.935
10/17/2013  21:41:00     -136.951      -66.290       -6.865       22.569       20.654       13.092      509.339      426.576      171.391        1.215        0.055      152.151        4.437        0.001      338.876       11.826      864.936
10/17/2013  21:42:00     -152.586      -63.165        1.380       31.983       28.286       22.465     1022.885      800.118      504.672        1.480        0.116      165.143       16.756        0.010      338.822       11.735      864.913
10/17/2013  21:43:00     -137.335      -53.384       -0.127       54.177       32.603       21.716     2935.177     1062.955      471.600        1.309        0.223      147.346       25.691        0.030      338.718       11.560      864.907
10/17/2013  21:44:00     -136.677      -37.962       -4.247       37.107       27.889       21.321     1376.927      777.798      454.577        1.137        0.130      141.851       19.496        0.019      338.691       11.515      864.888
10/17/2013  21:45:00     -134.528      -32.463        0.420       39.650       29.374       20.761     1572.113      862.803      431.005        1.101        0.143      138.389       18.975        0.019      338.724       11.569      864.889
10/17/2013  21:46:00     -129.789      -24.795       -5.222       53.336       33.816       22.474     2844.762     1143.497      505.063        1.099        0.225      132.136       27.179        0.042      338.802       11.701      864.903
10/17/2013  21:47:00     -144.559      -38.806       -9.645       37.272       21.088       16.763     1389.198      444.694      280.990        1.231        0.106      149.677       17.930        0.014      338.850       11.781      864.915
10/17/2013  21:48:00     -116.917      -35.335       -6.809       29.470       31.249       20.096      868.497      976.520      403.838        0.861        0.112      122.140       12.689        0.011      338.769       11.646      864.935
10/17/2013  21:49:00     -136.343      -32.230       -4.636       46.467       27.048       21.271     2159.183      731.578      452.448        1.150        0.167      140.101       22.999        0.027      338.750       11.614      864.949
10/17/2013  21:50:00     -142.017      -35.124       -4.729       41.628       38.431       20.141     1732.897     1476.941      405.678        1.252        0.181      146.296       20.035        0.019      338.621       11.398      864.951
10/17/2013  21:51:00     -166.817      -36.303       -5.447       43.931       33.674       27.773     1929.889     1133.969      771.312        1.650        0.192      170.721       28.468        0.028      338.518       11.223      864.957
10/17/2013  21:52:00     -145.857      -31.644       -4.584       42.107       29.135       24.668     1773.035      848.869      608.524        1.276        0.162      149.250       23.489        0.025      338.664       11.469      864.944
10/17/2013  21:53:00     -165.902      -40.732      -10.344       40.429       29.002       18.390     1634.542      841.098      338.176        1.605        0.141      170.829       20.440        0.014      338.647       11.440      864.929
10/17/2013  21:54:00     -149.376      -36.823      -14.025       35.042       27.317       20.044     1227.939      746.224      401.748        1.312        0.119      153.848       14.785        0.009      338.604       11.368      864.910
10/17/2013  21:55:00     -163.535      -62.927      -14.281       32.269       26.556       21.505     1041.257      705.226      462.472        1.656        0.110      175.224       17.823        0.010      338.649       11.444      864.896
10/17/2013  21:56:00     -137.709      -49.921       -7.007       36.311       31.153       27.965     1318.461      970.522      782.069        1.229        0.154      146.478       24.349        0.028      338.533       11.249      864.907
10/17/2013  21:57:00     -153.958       -6.054      -20.180       25.400       30.405       25.611      645.166      924.454      655.926        1.319        0.111      154.077       13.012        0.007      338.453       11.113      864.911
10/17/2013  21:58:00     -136.962      -19.806      -19.731       37.597       30.651       21.018     1413.500      939.459      441.737        1.117        0.140      138.387       20.802        0.023      338.401       11.027      864.913
10/17/2013  21:59:00     -147.315      -27.822      -21.480       15.012       18.586       12.232      225.374      345.434      149.623        1.183        0.036      149.920        5.644        0.001      338.425       11.067      864.895
10/17/2013  22:00:00     -145.013      -43.521       -9.023       20.964       29.964       14.720      439.503      897.837      216.681        1.228        0.078      151.403        7.709        0.003      338.408       11.039      864.868
10/17/2013  22:01:00     -143.284      -61.205       -5.462       28.986       20.565       16.114      840.199      422.939      259.663        1.291        0.076      155.808       10.208        0.004      338.383       10.997      864.865
10/17/2013  22:02:00     -124.205      -36.103       -5.503       30.127       33.477       19.530      907.639     1120.683      381.427        0.958        0.120      129.346       14.045        0.012      338.342       10.928      864.867
10/17/2013  22:03:00     -117.103      -27.198       -3.245       33.960       23.612       19.157     1153.304      557.541      366.992        0.827        0.104      120.220       16.675        0.019      338.214       10.712      864.888
10/17/2013  22:04:00     -117.359      -28.260       -6.071       39.416       21.877       16.611     1553.645      478.598      275.940        0.846        0.115      120.714       19.980        0.027      338.200       10.689      864.922
10/17/2013  22:05:00     -120.715      -23.702       -6.323       25.697       21.306       17.583      660.321      453.953      309.173        0.830        0.071      123.020       13.717        0.012      338.237       10.751      864.934
10/17/2013  22:06:00     -101.888      -33.003        0.377       27.805       19.567       15.337      773.113      382.869      235.219        0.643        0.070      107.100       12.269        0.013      338.149       10.605      864.935
10/17/2013  22:07:00     -120.270      -24.411       -4.162       26.404       22.957       13.522      697.194      527.026      182.848        0.824        0.070      122.722       11.058        0.008      338.102       10.526      864.921
10/17/2013  22:08:00      -88.798      -21.655        2.406       33.476       24.093       18.994     1120.668      580.484      360.767        0.521        0.103       91.400       20.108        0.048      338.042       10.425      864.918
10/17/2013  22:09:00     -105.766      -25.294        2.793       36.815       21.576       19.206     1355.322      465.529      368.870        0.701        0.109      108.748       18.564        0.029      337.903       10.192      864.928
10/17/2013  22:10:00     -106.709       -4.229       -2.984       32.586       20.946       17.570     1061.845      438.716      308.713        0.661        0.090      106.793       16.965        0.025      337.894       10.177      864.935
10/17/2013  22:11:00      -88.726      -30.744        2.454       28.164       19.944       15.679      793.196      397.780      245.843        0.513        0.072       93.901       16.474        0.031      337.946       10.263      864.954
10/17/2013  22:12:00      -87.741      -32.621       -0.399       32.423       24.741       15.382     1051.254      612.136      236.613        0.533        0.095       93.609       14.528        0.024      337.929       10.235      864.949
10/17/2013  22:13:00     -154.407      -29.205      -12.692       23.507       19.941       17.839      552.602      397.654      318.239        1.306        0.063      157.145       15.153        0.009      337.655        9.776      864.946
10/17/2013  22:14:00     -144.725      -15.478      -11.393       39.753       27.965       22.712     1580.280      782.035      515.856        1.210        0.144      145.550       20.169        0.019      337.561        9.619      864.939
10/17/2013  22:15:00     -116.465      -25.925       -3.752       48.719       31.750       25.968     2373.507     1008.064      674.349        0.915        0.203      119.315       25.712        0.046      337.639        9.749      864.928
10/17/2013  22:16:00     -148.030        7.719      -14.346       30.839       25.502       18.432      951.016      650.338      339.731        1.206        0.097      148.231       15.343        0.011      337.866       10.130      864.944
10/17/2013  22:17:00     -121.798        3.673       -4.930       30.632       22.971       15.595      938.317      527.664      243.196        0.829        0.085      121.853       14.434        0.014      338.050       10.439      864.955
10/17/2013  22:18:00      -92.407       17.330       -2.836       37.948       25.218       21.262     1440.074      635.923      452.067        0.569        0.126       94.018       18.269        0.038      337.973       10.309      864.966
10/17/2013  22:19:00     -122.182       47.723      -13.009       60.655       31.641       26.340     3678.970     1001.184      693.807        1.137        0.269      131.171       15.664        0.014      338.091       10.508      864.975
10/17/2013  22:20:00     -184.087       52.868       -9.640       32.833       23.819       17.984     1078.030      567.358      323.418        1.937        0.098      191.528        8.886        0.002      338.099       10.519      864.973
10/17/2013  22:21:00     -176.628       28.241      -12.316       26.249       21.638       15.484      689.023      468.203      239.750        1.677        0.070      178.871       13.413        0.006      338.027       10.400      864.988
10/17/2013  22:22:00     -102.430       -9.050       -5.778       52.261       33.720       21.741     2731.190     1137.010      472.678        0.747        0.217      102.829       26.657        0.067      338.001       10.356      864.993
10/17/2013  22:23:00      -69.916      -13.648      -16.335       22.603       25.020       16.959      510.912      626.011      287.598        0.338        0.071       71.236       11.231        0.025      337.910       10.203      865.015
10/17/2013  22:24:00      -82.638      -12.192      -15.027       17.860       21.793       13.219      318.990      474.922      174.745        0.409        0.048       83.533        7.010        0.007      337.877       10.149      865.019
10/17/2013  22:25:00     -100.497      -36.652      -19.157       20.103       25.249       18.489      404.145      637.491      341.839        0.660        0.069      106.972        9.009        0.007      337.684        9.823      864.999
10/17/2013  22:26:00     -138.237      -66.972      -15.539       27.153       35.972       15.114      737.259     1293.966      228.444        1.305        0.113      153.606        9.049        0.003      337.417        9.378      864.960
10/17/2013  22:27:00     -148.551      -33.629       -5.325       37.539       32.772       20.030     1409.179     1073.987      401.186        1.306        0.144      152.310       20.999        0.019      337.531        9.568      864.929
10/17/2013  22:28:00     -133.901      -40.428      -10.968       44.228       33.820       22.551     1956.159     1143.800      508.543        1.165        0.180      139.872       22.337        0.026      337.466        9.459      864.926
10/17/2013  22:29:00     -122.072        6.314      -14.800       43.839       32.346       23.933     1921.852     1046.271      572.806        0.935        0.177      122.235       21.874        0.032      337.474        9.472      864.926
10/17/2013  22:30:00     -119.525       -2.993      -13.403       24.979       27.160       16.820      623.929      737.670      282.922        0.806        0.082      119.562       12.837        0.012      337.611        9.702      864.950
10/17/2013  22:31:00     -124.936      -32.007       -2.952       40.102       26.319       15.828     1608.191      692.693      250.510        0.960        0.128      128.971       16.018        0.015      337.589        9.665      864.953
10/17/2013  22:32:00     -103.302       -3.000       -5.600       45.970       35.667       28.227     2113.286     1272.151      796.788        0.745        0.209      103.346       25.391        0.060      337.593        9.673      864.951
10/17/2013  22:33:00     -205.178       23.841      -19.290       55.798       41.807       31.172     3113.419     1747.831      971.710        2.443        0.292      206.559       30.558        0.022      337.587        9.659      864.948
10/17/2013  22:34:00     -187.922        0.799      -20.323       46.320       32.047       24.123     2145.554     1027.029      581.938        1.974        0.188      187.923       22.431        0.014      337.447        9.426      864.943
10/17/2013  22:35:00     -164.493       22.755       -6.886       41.756       45.229       30.124     1743.560     2045.666      907.428        1.616        0.235      166.059       28.702        0.030      337.516        9.542      864.949
10/17/2013  22:36:00     -109.284      -18.021      -12.941       28.474       47.784       30.655      810.770     2283.275      939.702        0.823        0.202      110.760       15.943        0.021      337.470        9.466      864.960
10/17/2013  22:37:00      -87.892      -62.099       -5.345       52.705       27.779       20.740     2777.774      771.689      430.139        0.779        0.199      107.616       22.507        0.044      337.388        9.325      864.982
10/17/2013  22:38:00      -89.533      -40.023       -0.059       40.232       26.717       16.898     1618.622      713.798      285.552        0.612        0.131       98.071        9.186        0.009      337.298        9.177      864.991
10/17/2013  22:39:00      -59.434      -43.307       -1.654       35.110       29.757       18.169     1232.728      885.491      330.095        0.393        0.122       73.539       19.187        0.068      337.326        9.225      865.009
10/17/2013  22:40:00      -98.529      -47.616       -6.585       22.922       26.119       16.283      525.431      682.227      265.128        0.675        0.074      109.432       14.366        0.017      337.360        9.281      865.005
10/17/2013  22:41:00     -124.081      -69.731       -4.387       38.931       25.479       15.988     1515.624      649.181      255.619        1.135        0.121      142.332       11.559        0.007      337.386        9.325      864.998
10/17/2013  22:42:00     -154.766      -39.130      -13.997       13.573       19.488       14.096      184.234      379.798      198.702        1.322        0.038      159.636        9.527        0.004      337.361        9.284      865.000
10/17/2013  22:43:00     -120.570      -18.611       -4.290       41.765       35.746       23.134     1744.309     1277.786      535.184        0.923        0.178      121.998       22.482        0.034      337.350        9.266      865.004
10/17/2013  22:44:00     -124.804       -2.893       -3.922       56.534       29.992       29.682     3196.067      899.528      881.050        1.029        0.249      124.837       32.674        0.069      337.354        9.271      865.029
10/17/2013  22:45:00      -99.307       16.751       -7.044       40.910       32.051       22.477     1673.605     1027.290      505.220        0.670        0.160      100.710       19.739        0.038      337.420        9.382      865.047
10/17/2013  22:46:00     -125.277       36.454       -9.376       36.935       23.539       20.979     1364.173      554.073      440.101        0.973        0.118      130.473       13.675        0.011      337.404        9.356      865.057
10/17/2013  22:47:00      -92.185      -18.700      -14.371       31.961       29.220       16.932     1021.525      853.814      286.693        0.561        0.108       94.063       15.942        0.029      337.402        9.352      865.070
10/17/2013  22:48:00      -73.794      -28.952       -5.930       22.283       21.097       15.322      496.546      445.099      234.756        0.375        0.059       79.271        5.758        0.005      337.415        9.373      865.065
10/17/2013  22:49:00      -57.787      -23.887       -5.024       20.293       18.308       12.952      411.822      335.173      167.763        0.242        0.046       62.530       10.488        0.028      337.393        9.336      865.073
10/17/2013  22:50:00       15.286      -12.319        1.907       12.093       15.369       13.007      146.232      236.213      169.171        0.047        0.028       19.632       12.941        0.435      337.432        9.402      865.107
10/17/2013  22:51:00        9.915       17.102       22.435       12.161       11.925        8.722      147.885      142.201       76.076        0.063        0.018       19.768        6.675        0.114      337.383        9.319      865.116
10/17/2013  22:52:00       -0.241      -18.544       -0.585        9.533        9.366        7.481       90.884       87.718       55.970        0.029        0.012       18.546        4.062        0.048      337.507        9.525      865.121
10/17/2013  22:53:00      -59.517      -20.265      -10.777       24.977       12.377       10.987      623.842      153.200      120.707        0.248        0.045       62.873       12.274        0.038      337.452        9.435      865.113
10/17/2013  22:54:00      -93.537      -30.457      -12.525       10.622        9.417        9.078      112.835       88.672       82.408        0.506        0.014       98.371        5.991        0.004      337.366        9.290      865.092
10/17/2013  22:55:00     -127.800      -41.532      -16.011       17.304        8.075        6.011      299.436       65.204       36.129        0.936        0.020      134.380        3.030        0.001      337.354        9.271      865.092
10/17/2013  22:56:00     -134.813      -38.367      -17.412       10.419        7.764        7.411      108.559       60.287       54.917        1.009        0.011      140.166        4.226        0.001      337.314        9.204      865.080
10/17/2013  22:57:00      -88.665      -35.038      -10.461       27.391       15.009       14.297      750.254      225.279      204.409        0.519        0.059       95.337       14.676        0.024      337.285        9.155      865.082
10/17/2013  22:58:00      -39.684      -31.883        0.745       28.366        9.312       11.294      804.645       86.719      127.546        0.181        0.051       50.905       13.742        0.073      337.284        9.153      865.101
10/17/2013  22:59:00      -43.911      -16.044       -6.465       10.003        6.446        4.227      100.059       41.549       17.871        0.119        0.008       46.750        2.191        0.002      337.399        9.345      865.098
10/17/2013  23:00:00      -79.237      -26.197      -10.203       19.122       10.956        9.755      365.647      120.034       95.167        0.382        0.029       83.456        9.277        0.012      337.466        9.458      865.098
10/17/2013  23:01:00      -93.155      -27.080      -13.198        8.631        8.410        9.017       74.496       70.726       81.303        0.491        0.011       97.011        5.040        0.003      337.360        9.280      865.100
10/17/2013  23:02:00      -88.094      -17.814      -11.833        8.053        7.789        8.362       64.850       60.664       69.925        0.421        0.010       89.877        1.823        0.000      337.338        9.243      865.108
10/17/2013  23:03:00      -74.796      -16.988       -9.573       16.052       14.868       11.255      257.657      221.071      126.671        0.329        0.030       76.701       10.215        0.018      337.288        9.160      865.127
10/17/2013  23:04:00      -48.184      -21.120      -10.371       22.632       14.750        9.066      512.199      217.572       82.190        0.184        0.041       52.610        6.621        0.016      337.372        9.300      865.138
10/17/2013  23:05:00       -8.113      -32.896       -4.444       14.376       10.675       13.906      206.674      113.959      193.363        0.084        0.026       33.882        5.365        0.025      337.454        9.439      865.141
10/17/2013  23:06:00      -63.527      -27.399       -7.904       20.934        8.127        7.190      438.215       66.049       51.692        0.270        0.028       69.184        7.042        0.010      337.385        9.324      865.148
10/17/2013  23:07:00      -81.503      -24.911      -13.150        4.884        5.766        5.027       23.854       33.242       25.274        0.376        0.004       85.225        2.786        0.001      337.241        9.084      865.143
10/17/2013  23:08:00      -74.703      -15.508       -8.926       10.348        7.693        6.294      107.091       59.176       39.609        0.305        0.010       76.296        4.499        0.003      337.298        9.178      865.135
10/17/2013  23:09:00      -48.009      -21.664        0.498       13.864       11.860        9.760      192.212      140.661       95.257        0.160        0.021       52.671        7.898        0.022      337.292        9.169      865.139
10/17/2013  23:10:00      -70.512      -12.929       -4.149        9.073        8.462        8.257       82.317       71.610       68.185        0.269        0.011       71.687        4.827        0.005      337.273        9.137      865.152
10/17/2013  23:11:00      -96.222      -25.102       -8.166       13.053       18.442       10.457      170.373      340.105      109.339        0.529        0.031       99.442        7.717        0.006      337.211        9.032      865.152
10/17/2013  23:12:00     -120.467      -33.067      -11.731       12.923       13.131        8.776      167.009      172.423       77.016        0.808        0.021      124.923        5.653        0.002      337.192        9.001      865.141
10/17/2013  23:13:00     -126.371      -44.513      -15.351       13.491       15.203        9.507      182.011      231.142       90.383        0.935        0.025      133.982        6.604        0.002      337.176        8.973      865.144
10/17/2013  23:14:00     -109.575      -43.906       -8.039       14.880       13.542        8.548      221.413      183.375       73.063        0.724        0.024      118.044        5.462        0.002      337.166        8.957      865.149
10/17/2013  23:15:00      -84.567      -25.582       -1.860       26.046       20.110       16.307      678.387      404.423      265.904        0.458        0.067       88.352       15.068        0.029      337.108        8.859      865.150
10/17/2013  23:16:00     -109.402      -39.906      -12.219       12.360       11.318        8.265      152.773      128.100       68.311        0.703        0.017      116.453        2.155        0.000      337.096        8.839      865.154
10/17/2013  23:17:00     -104.093      -41.935      -10.093       14.172       16.793        9.691      200.857      281.995       93.918        0.664        0.029      112.223        7.317        0.004      337.036        8.737      865.166
10/17/2013  23:18:00      -82.228      -45.919       -6.430       10.335       11.689        9.240      106.820      136.623       85.371        0.462        0.016       94.180        6.961        0.005      337.035        8.736      865.181
10/17/2013  23:19:00      -60.962      -34.299        1.389       18.981       14.355       11.634      360.262      206.066      135.358        0.280        0.035       69.948       10.615        0.023      337.044        8.751      865.180
10/17/2013  23:20:00      -83.186      -42.914       -8.982       13.090       12.057        9.172      171.345      145.360       84.129        0.462        0.020       93.603        4.941        0.003      337.106        8.855      865.173
10/17/2013  23:21:00      -92.379      -47.553       -5.895       15.036        9.358        9.205      226.071       87.565       84.728        0.561        0.020      103.900        6.688        0.004      337.100        8.845      865.176
10/17/2013  23:22:00      -77.564      -42.169       -1.682       22.021       13.203       12.409      484.939      174.313      153.981        0.431        0.041       88.286        9.674        0.012      337.089        8.827      865.169
10/17/2013  23:23:00      -56.935      -35.330       -7.177       14.619       10.596       12.663      213.712      112.275      160.344        0.251        0.024       67.006        6.366        0.009      337.078        8.809      865.172
10/17/2013  23:24:00      -89.848      -43.409      -12.822       14.821       11.171        8.642      219.655      124.793       74.689        0.527        0.021       99.784        5.790        0.003      337.129        8.894      865.178
10/17/2013  23:25:00      -77.334      -36.112       -6.757       36.772       18.744       14.036     1352.156      351.339      196.997        0.462        0.095       85.350        7.382        0.007      337.008        8.690      865.190
10/17/2013  23:26:00      -98.248      -43.632       -8.925       16.132       15.866       13.610      260.227      251.744      185.223        0.617        0.035      107.501       10.920        0.010      336.949        8.593      865.193
10/17/2013  23:27:00     -104.235      -31.634       -2.496       14.794       13.695       11.478      218.867      187.559      131.751        0.620        0.027      108.930        6.797        0.004      336.962        8.614      865.186
10/17/2013  23:28:00      -96.394      -46.100      -10.463       12.583       12.912        9.701      158.339      166.725       94.118        0.597        0.021      106.850        3.586        0.001      336.937        8.572      865.196
10/17/2013  23:29:00      -68.126      -48.708       -8.615       24.214       17.855       15.289      586.324      318.812      233.759        0.411        0.057       83.748        9.569        0.013      336.965        8.621      865.198
10/17/2013  23:30:00      -47.565      -46.994        3.864       33.144       23.551       17.183     1098.523      554.661      295.249        0.322        0.097       66.864       17.538        0.069      336.910        8.528      865.209
10/17/2013  23:31:00      -53.806      -55.190        0.227       40.301       28.409       21.482     1624.194      807.080      461.470        0.442        0.145       77.078       22.168        0.083      336.929        8.561      865.234
10/17/2013  23:32:00      -89.674      -70.586       -8.804       24.705       27.885       18.954      610.327      777.573      359.246        0.742        0.087      114.122       12.674        0.012      336.952        8.600      865.250
10/17/2013  23:33:00     -109.973      -52.434       -8.330       20.474       24.270       14.812      419.187      589.038      219.387        0.807        0.061      121.834       10.042        0.007      336.974        8.633      865.251
10/17/2013  23:34:00     -132.885      -32.194      -13.080       19.724       15.593       14.797      389.052      243.155      218.937        0.986        0.043      136.730       13.295        0.009      336.836        8.406      865.260
10/17/2013  23:35:00     -140.751      -39.539      -22.549       10.553       11.408       10.315      111.373      130.150      106.391        1.112        0.017      146.199        3.186        0.000      336.835        8.403      865.255
10/17/2013  23:36:00     -129.189      -36.198      -14.730       20.074       15.317       10.862      402.981      234.617      117.974        0.949        0.038      134.165       10.847        0.007      336.779        8.311      865.245
10/17/2013  23:37:00     -134.456      -35.195      -19.414       18.283       18.774       15.025      334.258      352.456      225.754        1.030        0.046      138.986        5.534        0.002      336.759        8.276      865.230
10/17/2013  23:38:00     -117.282      -51.331       -9.681       29.568       21.852       16.614      874.271      477.497      276.019        0.906        0.081      128.023       13.295        0.011      336.680        8.145      865.230
10/17/2013  23:39:00      -89.966      -58.180      -10.645       24.067       17.063       14.119      579.203      291.135      199.339        0.633        0.053      107.139        9.903        0.009      336.699        8.178      865.240
10/17/2013  23:40:00      -40.346      -41.338        1.661       26.986       17.813       17.597      728.257      317.314      309.650        0.235        0.068       57.764       17.004        0.087      336.800        8.345      865.260
10/17/2013  23:41:00      -36.070      -38.092       -2.642       26.715       15.975       13.428      713.674      255.188      180.314        0.195        0.057       52.460       14.151        0.073      336.897        8.506      865.287
10/17/2013  23:42:00      -18.302      -32.800       13.378       27.885       25.118       22.078      777.587      630.919      487.436        0.174        0.095       37.560       19.761        0.277      336.873        8.467      865.318
10/17/2013  23:43:00      -29.247      -48.835        9.611       47.750       26.045       22.016     2280.080      678.340      484.700        0.339        0.172       56.924       27.558        0.234      337.092        8.832      865.330
10/17/2013  23:44:00      -18.339       -8.751        8.373       27.919       16.448       14.021      779.486      270.535      196.594        0.086        0.062       20.320       15.071        0.550      337.051        8.764      865.346
10/17/2013  23:45:00      -39.780      -18.017       -0.922       14.074       18.236       11.594      198.068      332.535      134.413        0.129        0.033       43.670        7.392        0.029      337.055        8.769      865.358
10/17/2013  23:46:00      -78.614      -18.265      -11.495       27.168       23.917       15.509      738.094      572.025      240.524        0.410        0.078       80.708       10.661        0.017      337.027        8.722      865.352
10/17/2013  23:47:00     -126.934      -66.181      -11.538       23.812       24.256       15.869      567.028      588.339      251.830        1.102        0.070      143.151        8.494        0.004      336.735        8.236      865.354
10/17/2013  23:48:00      -85.836      -58.219       -2.595       35.170       28.220       20.922     1236.953      796.356      437.743        0.662        0.124      103.717       15.656        0.023      336.698        8.176      865.365
10/17/2013  23:49:00     -100.979      -46.080        2.232       27.212       25.527       19.617      740.487      651.652      384.827        0.705        0.089      110.996       14.024        0.016      336.615        8.037      865.374
10/17/2013  23:50:00     -101.087      -34.238      -11.976       20.271       22.255       14.961      410.925      495.300      223.828        0.633        0.057      106.727       12.124        0.013      336.673        8.134      865.364
10/17/2013  23:51:00     -136.329      -12.931      -12.280       27.939       17.325       14.809      780.579      300.157      219.302        1.010        0.065      136.941       13.562        0.010      336.667        8.123      865.347
10/17/2013  23:52:00     -129.739      -22.627      -14.101       35.047       25.181       22.256     1228.313      634.084      495.329        0.995        0.118      131.697       19.468        0.022      336.545        7.919      865.353
10/17/2013  23:53:00     -114.807      -57.731       -3.542       34.517       33.904       20.331     1191.404     1149.482      413.337        0.964        0.138      128.505       15.052        0.014      336.533        7.899      865.355
10/17/2013  23:54:00      -72.703      -24.694       -2.664       26.116       27.217       16.998      682.037      740.749      288.921        0.381        0.086       76.783       11.648        0.023      336.552        7.931      865.357
10/17/2013  23:55:00      -97.869       -7.324      -14.696       41.777       23.226       21.590     1745.352      539.443      466.131        0.630        0.138       98.143       16.310        0.028      336.584        7.985      865.358
10/17/2013  23:56:00     -133.632      -15.267      -16.929       24.821       32.705       18.596      616.099     1069.591      345.799        1.020        0.102      134.502       11.255        0.007      336.531        7.895      865.352
10/17/2013  23:57:00     -133.823       -4.568      -22.789       38.998       43.300       21.106     1520.837     1874.899      445.483        1.114        0.192      133.901       15.191        0.013      336.495        7.834      865.342
10/17/2013  23:58:00      -96.995       -1.261      -13.563       56.672       41.088       24.270     3211.718     1688.226      589.033        0.754        0.274       97.003       18.920        0.038      336.444        7.750      865.352
10/17/2013  23:59:00     -125.323      -10.191      -20.340       42.275       27.195       21.255     1787.218      739.566      451.791        0.960        0.149      125.737       21.807        0.030      336.425        7.718      865.357
